[[{"header":{"parameterUnit":"m.s-1","parameterCategory":1,"la1":30.6,"la2":28.766,"lo1":-90.7593,"lo2":-88.6598,"dy":0.0162,"dx":0.0183,"nx":116,"ny":114,"refTime":"2024-06-01T06:00:00:Z","depth":0,"parameterNumber":2,"parameterNumberName":"U-component_of_WINDS"},"data":[0.0,0.0,0.0,0.0,0.0,0.0,0.0,0.0,0.0,0.0,0.0,0.0,0.0,0.0,0.0,0.0,0.0,0.0,0.0,0.0,0.0,0.0,0.0,0.0,0.0,0.0,0.0,0.0,0.0,0.0,0.0,0.0,0.0,0.0,0.0,0.0,0.0,0.0,0.0,0.0,0.0,0.0,0.0,0.0,0.0,0.0,0.0,0.0,0.0,0.0,0.0,0.0,0.0,0.0,0.0,0.0,0.0,0.0,0.0,0.0,0.0,0.0,0.0,0.0,0.0,0.0,0.0,0.0,0.0,0.0,0.0,0.0,0.0,0.0,0.0,0.0,0.0,0.0,0.0,0.0,0.0,0.0,0.0,0.0,0.0,0.0,0.0,0.0,0.0,0.0,0.0,0.0,0.0,0.0,0.0,0.0,0.0,0.0,0.0,0.0,0.0,0.0,0.0,0.0,0.0,0.0,0.0,0.0,0.0,0.0,0.0,0.0,0.0,0.0,0.0,0.0,0.0,0.0,0.0,0.0,0.0,0.0,0.0,0.0,0.0,0.0,0.0,0.0,0.0,0.0,0.0,0.0,0.0,0.0,0.0,0.0,0.0,0.0,0.0,0.0,0.0,0.0,0.0,0.0,0.0,0.0,0.0,0.0,0.0,0.0,0.0,0.0,0.0,0.0,0.0,0.0,0.0,0.0,0.0,0.0,0.0,0.0,0.0,0.0,0.0,0.0,0.0,0.0,0.0,0.0,0.0,0.0,0.0,0.0,0.0,0.0,0.0,0.0,0.0,0.0,0.0,0.0,0.0,0.0,0.0,0.0,0.0,0.0,0.0,0.0,0.0,0.0,0.0,0.0,0.0,0.0,0.0,0.0,0.0,0.0,0.0,0.0,0.0,0.0,0.0,0.0,0.0,0.0,0.0,0.0,0.0,0.0,0.0,0.0,0.0,0.0,0.0,0.0,0.0,0.0,0.0,0.0,0.0,0.0,0.0,0.0,0.0,0.0,0.0,0.0,0.0,0.0,0.0,0.0,0.0,0.0,0.0,0.0,0.0,0.0,0.0,0.0,0.0,0.0,0.0,0.0,0.0,0.0,0.0,0.0,0.0,0.0,0.0,0.0,0.0,0.0,0.0,0.0,0.0,0.0,0.0,0.0,0.0,0.0,0.0,0.0,0.0,0.0,0.0,0.0,0.0,0.0,0.0,0.0,0.0,0.0,0.0,0.0,0.0,0.0,0.0,0.0,0.0,0.0,0.0,0.0,0.0,0.0,0.0,0.0,0.0,0.0,0.0,0.0,0.0,0.0,0.0,0.0,0.0,0.0,0.0,0.0,0.0,0.0,0.0,0.0,0.0,0.0,0.0,0.0,0.0,0.0,0.0,0.0,0.0,0.0,0.0,0.0,0.0,0.0,0.0,0.0,0.0,0.0,0.0,0.0,0.0,0.0,0.0,0.0,0.0,0.0,0.0,0.0,0.0,0.0,0.0,0.0,0.0,0.0,0.0,0.0,0.0,0.0,0.0,0.0,0.0,0.0,0.0,0.0,0.0,0.0,0.0,0.0,0.0,0.0,0.0,0.0,0.0,0.0,0.0,0.0,0.0,0.0,0.0,0.0,0.0,0.0,0.0,0.0,0.0,0.0,0.0,0.0,0.0,0.0,0.0,0.0,0.0,0.0,0.0,0.0,0.0,0.0,0.0,0.0,0.0,0.0,0.0,0.0,0.0,0.0,0.0,0.0,0.0,0.0,0.0,0.0,0.0,0.0,0.0,0.0,0.0,0.0,0.0,0.0,0.0,0.0,0.0,0.0,0.0,0.0,0.0,0.0,0.0,0.0,0.0,0.0,0.0,0.0,0.0,0.0,0.0,0.0,0.0,0.0,0.0,0.0,0.0,0.0,0.0,0.0,0.0,0.0,0.0,0.0,0.0,0.0,0.0,0.0,0.0,0.0,0.0,0.0,0.0,0.0,0.0,0.0,0.0,0.0,0.0,0.0,0.0,0.0,0.0,0.0,0.0,0.0,0.0,0.0,0.0,0.0,0.0,0.0,0.0,0.0,0.0,0.0,0.0,0.0,0.0,0.0,0.0,0.0,0.0,0.0,0.0,0.0,0.0,0.0,0.0,0.0,0.0,0.0,0.0,0.0,0.0,0.0,0.0,0.0,0.0,0.0,0.0,0.0,0.0,0.0,0.0,0.0,0.0,0.0,0.0,0.0,0.0,0.0,0.0,0.0,0.0,0.0,0.0,0.0,0.0,0.0,0.0,0.0,0.0,0.0,0.0,0.0,0.0,0.0,0.0,0.0,0.0,0.0,0.0,0.0,0.0,0.0,0.0,0.0,0.0,0.0,0.0,0.0,0.0,0.0,0.0,0.0,0.0,0.0,0.0,0.0,0.0,0.0,0.0,0.0,0.0,0.0,0.0,0.0,0.0,0.0,0.0,0.0,0.0,0.0,0.0,0.0,0.0,0.0,0.0,0.0,0.0,0.0,0.0,0.0,0.0,0.0,0.0,0.0,0.0,0.0,0.0,0.0,0.0,0.0,0.0,0.0,0.0,0.0,0.0,0.0,0.0,0.0,0.0,0.0,0.0,0.0,0.0,0.0,0.0,0.0,0.0,0.0,0.0,0.0,0.0,0.0,0.0,0.0,0.0,0.0,0.0,0.0,0.0,0.0,0.0,0.0,0.0,0.0,0.0,0.0,0.0,0.0,0.0,0.0,0.0,0.0,0.0,0.0,0.0,0.0,0.0,0.0,0.0,0.0,0.0,0.0,0.0,0.0,0.0,0.0,0.0,0.0,0.0,0.0,0.0,0.0,0.0,0.0,0.0,0.0,0.0,0.0,0.0,0.0,0.0,0.0,0.0,0.0,0.0,0.0,0.0,0.0,0.0,0.0,0.0,0.0,0.0,0.0,0.0,0.0,0.0,0.0,0.0,0.0,0.0,0.0,0.0,0.0,0.0,0.0,0.0,0.0,0.0,0.0,0.0,0.0,0.0,0.0,0.0,0.0,0.0,0.0,0.0,0.0,0.0,0.0,0.0,0.0,0.0,0.0,0.0,0.0,0.0,0.0,0.0,0.0,0.0,0.0,0.0,0.0,0.0,0.0,0.0,0.0,0.0,0.0,0.0,0.0,0.0,0.0,0.0,0.0,0.0,0.0,0.0,0.0,0.0,0.0,0.0,0.0,0.0,0.0,0.0,0.0,0.0,0.0,0.0,0.0,0.0,0.0,0.0,0.0,0.0,0.0,0.0,0.0,0.0,0.0,0.0,0.0,0.0,0.0,0.0,0.0,0.0,0.0,0.0,0.0,0.0,0.0,0.0,0.0,0.0,0.0,0.0,0.0,0.0,0.0,0.0,0.0,0.0,0.0,0.0,0.0,0.0,0.0,0.0,0.0,0.0,0.0,0.0,0.0,0.0,0.0,0.0,0.0,0.0,0.0,0.0,0.0,0.0,0.0,0.0,0.0,0.0,0.0,0.0,0.0,0.0,0.0,0.0,0.0,0.0,0.0,0.0,0.0,0.0,0.0,0.0,0.0,0.0,0.0,0.0,0.0,0.0,0.0,0.0,0.0,0.0,0.0,0.0,0.0,0.0,0.0,0.0,0.0,0.0,0.0,0.0,0.0,0.0,0.0,0.0,0.0,0.0,0.0,0.0,0.0,0.0,0.0,0.0,0.0,0.0,0.0,0.0,0.0,0.0,0.0,0.0,0.0,0.0,0.0,0.0,0.0,0.0,0.0,0.0,0.0,0.0,0.0,0.0,0.0,0.0,0.0,0.0,0.0,0.0,0.0,0.0,0.0,0.0,0.0,0.0,0.0,0.0,0.0,0.0,0.0,0.0,0.0,0.0,0.0,0.0,0.0,0.0,0.0,0.0,0.0,0.0,0.0,0.0,0.0,0.0,0.0,0.0,0.0,0.0,0.0,0.0,0.0,0.0,0.0,0.0,0.0,0.0,0.0,0.0,0.0,0.0,0.0,0.0,0.0,0.0,0.0,0.0,0.0,0.0,0.0,0.0,0.0,0.0,0.0,0.0,0.0,0.0,0.0,0.0,0.0,0.0,0.0,0.0,0.0,0.0,0.0,0.0,0.0,0.0,0.0,0.0,0.0,0.0,0.0,0.0,0.0,0.0,0.0,0.0,0.0,0.0,0.0,0.0,0.0,0.0,0.0,0.0,0.0,0.0,0.0,0.0,0.0,0.0,0.0,0.0,0.0,0.0,0.0,0.0,0.0,0.0,0.0,0.0,0.0,0.0,0.0,0.0,0.0,0.0,0.0,0.0,0.0,0.0,0.0,0.0,0.0,0.0,0.0,0.0,0.0,0.0,0.0,0.0,0.0,0.0,0.0,0.0,0.0,0.0,0.0,0.0,0.0,0.0,0.0,0.0,0.0,0.0,0.0,0.0,0.0,0.0,0.0,0.0,0.0,0.0,0.0,0.0,0.0,0.0,0.0,0.0,0.0,0.0,0.0,0.0,0.0,0.0,0.0,0.0,0.0,0.0,0.0,0.0,0.0,0.0,0.0,0.0,0.0,0.0,0.0,0.0,0.0,0.0,0.0,0.0,0.0,0.0,0.0,0.0,0.0,0.0,0.0,0.0,0.0,0.0,0.0,0.0,0.0,0.0,0.0,0.0,0.0,0.0,0.0,0.0,0.0,0.0,0.0,0.0,0.0,0.0,0.0,0.0,0.0,0.0,0.0,0.0,0.0,0.0,0.0,0.0,0.0,0.0,0.0,0.0,0.0,0.0,0.0,0.0,0.0,0.0,0.0,0.0,0.0,0.0,0.0,0.0,0.0,0.0,0.0,0.0,0.0,0.0,0.0,0.0,0.0,0.0,0.0,0.0,0.0,0.0,0.0,0.0,0.0,0.0,0.0,0.0,0.0,0.0,0.0,0.0,0.0,0.0,0.0,0.0,0.0,0.0,0.0,0.0,0.0,0.0,0.0,0.0,0.0,0.0,0.0,0.0,0.0,0.0,0.0,0.0,0.0,0.0,0.0,0.0,0.0,0.0,0.0,0.0,0.0,0.0,0.0,0.0,0.0,0.0,0.0,0.0,0.0,0.0,0.0,0.0,0.0,0.0,0.0,0.0,0.0,0.0,0.0,0.0,0.0,0.0,0.0,0.0,0.0,0.0,0.0,0.0,0.0,0.0,0.0,0.0,0.0,0.0,0.0,0.0,0.0,0.0,0.0,0.0,0.0,0.0,0.0,0.0,0.0,0.0,0.0,0.0,0.0,0.0,0.0,0.0,0.0,0.0,0.0,0.0,0.0,0.0,0.0,0.0,0.0,0.0,0.0,0.0,0.0,0.0,0.0,0.0,0.0,0.0,0.0,0.0,0.0,0.0,0.0,0.0,0.0,0.0,0.0,0.0,0.0,0.0,0.0,0.0,0.0,0.0,0.0,0.0,0.0,0.0,0.0,0.0,0.0,0.0,0.0,0.0,0.0,0.0,0.0,0.0,0.0,0.0,0.0,0.0,0.0,0.0,0.0,0.0,0.0,0.0,0.0,0.0,0.0,0.0,0.0,0.0,0.0,0.0,0.0,0.0,0.0,0.0,0.0,0.0,0.0,0.0,0.0,0.0,0.0,0.0,0.0,0.0,0.0,0.0,0.0,0.0,0.0,0.0,0.0,0.0,0.0,0.0,0.0,0.0,0.0,0.0,0.0,0.0,0.0,0.0,0.0,0.0,0.0,0.0,0.0,0.0,0.0,0.0,0.0,0.0,0.0,0.0,0.0,0.0,0.0,0.0,0.0,0.0,0.0,0.0,0.0,0.0,0.0,0.0,0.0,0.0,0.0,0.0,0.0,0.0,0.0,0.0,0.0,0.0,0.0,0.0,0.0,0.0,0.0,0.0,0.0,0.0,0.0,0.0,0.0,0.0,0.0,0.0,0.0,0.0,0.0,0.0,0.0,0.0,0.0,0.0,0.0,0.0,0.0,0.0,0.0,0.0,0.0,0.0,0.0,0.0,0.0,0.0,0.0,0.0,0.0,0.0,0.0,0.0,0.0,0.0,0.0,0.0,0.0,0.0,0.0,0.0,0.0,0.0,0.0,0.0,0.0,0.0,0.0,0.0,0.0,-2.3267,-2.2423,0.0,0.0,0.0,0.0,0.0,0.0,0.0,0.0,0.0,0.0,0.0,0.0,0.0,0.0,0.0,0.0,0.0,0.0,0.0,0.0,0.0,0.0,0.0,-2.3245,-2.419,-2.419,-2.419,-2.419,-2.419,0.0,0.0,0.0,0.0,0.0,-2.1812,-2.096,-2.0503,-2.0503,-1.9693,-1.9297,-1.9305,-1.9545,-1.9761,-2.0006,0.0,0.0,0.0,0.0,0.0,0.0,0.0,0.0,0.0,0.0,0.0,0.0,0.0,0.0,0.0,0.0,0.0,0.0,0.0,0.0,0.0,0.0,0.0,0.0,0.0,0.0,0.0,0.0,0.0,0.0,0.0,0.0,0.0,0.0,0.0,0.0,0.0,0.0,0.0,0.0,0.0,0.0,0.0,0.0,0.0,0.0,0.0,0.0,0.0,0.0,0.0,0.0,0.0,0.0,0.0,0.0,0.0,0.0,0.0,0.0,0.0,0.0,0.0,0.0,0.0,0.0,0.0,0.0,0.0,0.0,-2.4947,-2.4389,0.0,0.0,0.0,0.0,0.0,0.0,0.0,0.0,0.0,0.0,0.0,0.0,0.0,0.0,0.0,0.0,0.0,0.0,0.0,0.0,0.0,-2.1794,-2.1794,-2.3245,-2.419,-2.419,-2.419,-2.419,-2.419,-2.419,0.0,0.0,0.0,-2.2905,-2.2235,-2.1226,-2.0714,-2.0714,-1.9905,-1.951,-1.9517,-1.9924,-2.0189,-2.034,-2.0109,0.0,0.0,0.0,0.0,0.0,0.0,0.0,0.0,0.0,0.0,0.0,0.0,0.0,0.0,0.0,0.0,0.0,0.0,0.0,0.0,0.0,0.0,0.0,0.0,0.0,0.0,0.0,0.0,0.0,0.0,0.0,0.0,0.0,0.0,0.0,0.0,0.0,0.0,0.0,0.0,0.0,0.0,0.0,0.0,0.0,0.0,0.0,0.0,0.0,0.0,0.0,0.0,0.0,0.0,0.0,0.0,0.0,0.0,0.0,0.0,0.0,0.0,0.0,-2.726,-2.7334,-2.7334,-2.7334,-2.7334,-2.7287,-2.6628,-2.6553,-2.6851,-2.633,0.0,0.0,0.0,0.0,0.0,0.0,0.0,0.0,0.0,0.0,0.0,0.0,0.0,0.0,0.0,0.0,0.0,0.0,0.0,-2.1794,-2.1794,-2.3245,-2.419,-2.419,-2.419,-2.419,-2.419,-2.419,0.0,0.0,-2.4043,-2.3988,-2.3878,-2.2355,-2.1541,-2.1541,-2.0734,-2.0331,-2.0358,-2.1263,-2.1704,-2.1697,-2.0512,-2.0014,-2.002,0.0,0.0,0.0,0.0,0.0,0.0,0.0,0.0,0.0,0.0,0.0,0.0,0.0,0.0,0.0,0.0,0.0,0.0,0.0,0.0,0.0,0.0,0.0,0.0,0.0,0.0,0.0,0.0,0.0,0.0,0.0,0.0,0.0,0.0,0.0,0.0,0.0,0.0,0.0,0.0,0.0,-2.4043,-2.4271,0.0,0.0,0.0,0.0,0.0,0.0,0.0,0.0,0.0,0.0,0.0,0.0,0.0,-2.6859,-2.684,-2.7574,-2.7947,-2.7947,-2.8709,-2.9062,-2.9062,-2.9062,-2.9031,-2.8989,-2.893,0.0,-2.6944,-2.7538,0.0,0.0,0.0,0.0,0.0,0.0,0.0,0.0,0.0,0.0,0.0,0.0,0.0,0.0,0.0,0.0,0.0,0.0,0.0,0.0,0.0,-2.2538,-2.3529,-2.3529,-2.3492,-2.3666,-2.4114,-2.3692,-2.3618,-2.4066,-2.4084,-2.4084,-2.4084,-2.2922,-2.2109,-2.1643,-2.1373,-2.119,-2.1122,-2.1771,-2.1977,-2.1805,-2.1372,-2.0947,-2.0574,-2.0709,0.0,0.0,0.0,0.0,0.0,0.0,0.0,0.0,0.0,0.0,0.0,0.0,0.0,0.0,0.0,0.0,0.0,0.0,0.0,0.0,0.0,0.0,0.0,0.0,0.0,0.0,0.0,0.0,0.0,0.0,0.0,0.0,0.0,0.0,0.0,0.0,0.0,0.0,0.0,-2.4095,-2.5452,-2.5717,-2.6162,-2.6501,0.0,0.0,0.0,0.0,0.0,0.0,0.0,0.0,0.0,-2.7554,-2.7555,-2.7758,-2.8149,-2.8532,-2.8727,-2.8727,-2.9148,-2.9344,-2.9344,-2.9386,-2.9365,-2.9302,-2.9334,-2.8907,-2.8201,-2.8122,-2.7891,-2.7538,0.0,0.0,0.0,0.0,-2.7297,-2.6981,0.0,0.0,0.0,0.0,0.0,0.0,0.0,0.0,0.0,0.0,0.0,0.0,-2.0503,-2.1805,-2.2658,-2.2658,-2.2612,-2.2822,-2.3416,-2.305,-2.3067,-2.3678,-2.3896,-2.3886,-2.3696,-2.2883,-2.2172,-2.1562,-2.187,-2.1989,-2.189,-2.2416,-2.256,-2.2373,-2.2571,-2.2141,-2.1245,-2.1204,-2.0842,-2.0243,0.0,0.0,0.0,0.0,0.0,0.0,0.0,0.0,0.0,0.0,0.0,0.0,0.0,0.0,0.0,0.0,0.0,0.0,0.0,0.0,0.0,0.0,0.0,0.0,0.0,0.0,0.0,0.0,0.0,0.0,0.0,0.0,0.0,0.0,0.0,0.0,0.0,-2.5192,-2.6476,-2.6978,-2.7195,-2.7289,0.0,0.0,0.0,0.0,0.0,0.0,-2.7582,-2.759,-2.7988,-2.8835,-2.8894,-2.9182,-2.9783,-2.9806,-2.9817,-2.9817,-2.9665,-2.9576,-2.9576,-2.9426,-2.9304,-2.924,-2.928,-2.924,-2.9141,-2.8608,-2.839,-2.8316,-2.7732,-2.7519,-2.7593,-2.8207,-2.804,-2.7724,0.0,0.0,0.0,0.0,0.0,0.0,0.0,0.0,0.0,0.0,0.0,-2.0503,-2.0503,-2.1266,-2.1779,-2.1779,-2.1689,-2.168,-2.1717,-2.2401,-2.283,-2.2866,-2.3586,-2.3641,-2.2884,-2.2017,-2.1542,-2.1514,-2.2279,-2.2653,-2.2662,-2.3704,-2.4183,-2.4174,-2.4173,-2.3358,-2.1916,-2.1349,-2.1119,-2.1089,-2.0413,0.0,0.0,0.0,0.0,0.0,0.0,0.0,0.0,0.0,0.0,0.0,0.0,0.0,0.0,0.0,0.0,0.0,0.0,0.0,0.0,0.0,0.0,0.0,0.0,0.0,0.0,0.0,0.0,0.0,0.0,0.0,0.0,0.0,0.0,0.0,0.0,0.0,0.0,-2.7665,-2.7765,0.0,0.0,0.0,0.0,-2.7867,-2.7833,-2.8433,-2.9934,-3.0008,-3.0387,-3.1195,-3.1281,-3.1342,-3.1378,-3.1451,-3.1486,-3.1468,-3.0711,-3.0341,-3.0323,-2.957,-2.9167,-2.91,-2.9167,-2.9156,-2.91,-2.913,-2.9144,-2.9155,-2.918,-2.9183,-2.9183,-2.9301,-2.9304,-2.9285,0.0,0.0,0.0,0.0,0.0,-1.9297,-1.9297,-1.9297,-1.9297,-1.9297,-1.9541,-1.9727,-1.9727,-2.0408,-2.0858,-2.0858,-2.0833,-2.1034,-2.1498,-2.1316,-2.1643,-2.2696,-2.3022,-2.3238,-2.3436,-2.3127,-2.298,-2.2976,-2.3262,-2.342,-2.342,-2.393,-2.4135,-2.4047,-2.4173,-2.3879,-2.3254,-2.2734,-2.2264,-2.1796,-2.1202,-2.0962,0.0,0.0,0.0,0.0,0.0,0.0,0.0,0.0,0.0,0.0,0.0,0.0,0.0,0.0,0.0,0.0,0.0,0.0,0.0,0.0,0.0,0.0,0.0,0.0,0.0,0.0,0.0,0.0,0.0,0.0,0.0,0.0,0.0,0.0,0.0,0.0,0.0,-2.8477,-2.8565,0.0,-2.8636,-2.8812,-2.9058,-2.9384,-2.9853,-3.0368,-3.0944,-3.0962,-3.1103,-3.1397,-3.1409,-3.144,-3.144,-3.1464,-3.1477,-3.1477,-3.1207,-3.112,-3.1102,-3.0854,-3.0429,-2.9874,-2.9897,-2.9586,-2.904,-2.9062,-2.9112,-2.92,-2.9229,-2.924,-2.924,-2.9323,-2.9334,-2.9344,0.0,0.0,0.0,0.0,-1.9297,-1.9297,-1.9297,-1.9297,-1.9289,-1.9292,-1.9306,-1.9301,-1.9266,-1.9683,-1.9958,-1.9958,-1.997,-2.0172,-2.0653,-2.0445,-2.0789,-2.183,-2.2118,-2.2731,-2.3736,-2.3505,-2.3486,-2.3772,-2.3768,-2.3771,-2.3771,-2.3927,-2.3988,-2.3939,-2.4019,-2.4067,-2.4058,-2.3745,-2.3204,-2.252,-2.1938,-2.1722,-2.1658,0.0,0.0,0.0,0.0,0.0,0.0,0.0,0.0,0.0,0.0,0.0,0.0,0.0,0.0,0.0,0.0,0.0,0.0,0.0,0.0,0.0,0.0,0.0,0.0,0.0,0.0,0.0,0.0,0.0,0.0,0.0,0.0,0.0,0.0,-2.7371,-2.8249,-2.8918,-2.9244,-2.939,-2.939,-3.0136,-3.0595,-3.0595,-3.1103,-3.1525,-3.1788,-3.1806,-3.1935,-3.2192,-3.2223,-3.2223,-3.2223,-3.2223,-3.2223,-3.2223,-3.1973,-3.1875,-3.1857,-3.1642,-3.1219,-3.0667,-3.0667,-3.019,-2.939,-2.939,-2.9301,-2.9123,-2.9163,-2.9156,-2.9167,-2.924,-2.9262,-2.9262,0.0,0.0,0.0,-1.9297,-1.9297,-1.9297,-1.9297,-1.9297,-1.93,-1.9298,-1.9308,-1.9266,-1.9219,-1.9142,-1.9107,-1.9107,-1.9102,-1.9113,-1.915,-1.9829,-2.0282,-2.0336,-2.1059,-2.2165,-2.3664,-2.2941,-2.2923,-2.37,-2.37,-2.37,-2.37,-2.3772,-2.3873,-2.4001,-2.3868,-2.3939,-2.4192,-2.4192,-2.3858,-2.3276,-2.2604,-2.2413,-2.2528,0.0,0.0,0.0,0.0,0.0,0.0,0.0,0.0,0.0,0.0,0.0,0.0,0.0,0.0,0.0,0.0,0.0,0.0,0.0,0.0,0.0,0.0,0.0,0.0,0.0,0.0,0.0,0.0,0.0,0.0,0.0,0.0,0.0,-2.8007,-2.8034,-2.8313,-2.8955,-2.9739,-3.0246,-3.0246,-3.0962,-3.1452,-3.1452,-3.147,-3.1825,-3.2601,-3.2638,-3.2986,-3.377,-3.3807,-3.3807,-3.3807,-3.3807,-3.3807,-3.3788,-3.3005,-3.2638,-3.2601,-3.1825,-3.147,-3.1452,-3.1415,-3.0944,-3.021,-3.0173,-2.9702,-2.9005,-2.9074,-2.9108,-2.9119,-2.9167,-2.9189,-2.92,0.0,0.0,-1.9297,-1.9297,-1.9297,-1.9297,-1.9297,-1.9297,-1.9289,-1.93,-1.9256,-1.9227,-1.9192,-1.9135,-1.9094,-1.9094,-1.9104,-1.9349,-1.992,-1.963,-1.992,-2.1049,-2.2363,-2.3246,-2.3611,-2.3469,-2.3451,-2.3629,-2.3667,-2.37,-2.37,-2.3711,-2.3775,-2.3852,-2.3828,-2.3842,-2.3909,-2.3909,-2.3901,-2.3832,-2.3356,-2.3193,-2.3176,0.0,0.0,0.0,0.0,0.0,0.0,0.0,0.0,0.0,0.0,0.0,0.0,0.0,0.0,0.0,0.0,0.0,0.0,0.0,0.0,0.0,0.0,0.0,0.0,0.0,0.0,0.0,0.0,0.0,0.0,0.0,-2.7582,-2.7862,-2.7927,-2.8887,-2.9662,-2.9843,-3.0577,-3.1072,-3.1072,-3.1806,-3.2284,-3.2284,-3.2816,-3.3238,-3.3458,-3.3476,-3.3568,-3.3788,-3.3807,-3.3807,-3.3807,-3.3807,-3.3807,-3.3807,-3.3587,-3.3476,-3.3458,-3.3238,-3.2816,-3.2247,-3.1641,-3.0944,-3.0155,-2.9574,-2.9207,-2.9005,-2.9028,-2.9028,-2.904,-2.9089,-2.9163,-2.92,0.0,-1.9297,-1.9297,-1.9297,-1.9297,-1.9297,-1.9297,-1.9297,-1.9289,-1.9292,-1.9274,-1.9227,-1.9158,-1.9109,-1.9094,-1.9095,-1.9421,-1.9648,-1.9793,-1.9649,-2.0246,-2.1754,-2.2686,-2.3271,-2.3551,-2.3607,-2.3607,-2.3562,-2.3607,-2.3611,-2.3611,-2.3634,-2.3685,-2.3718,-2.3772,-2.3797,-2.3792,-2.3795,-2.3868,-2.3954,-2.3808,-2.3843,-2.3959,-2.3612,-2.3278,-2.2979,-2.2527,-2.2407,-2.2433,-2.1969,0.0,0.0,0.0,0.0,0.0,0.0,0.0,0.0,0.0,0.0,0.0,0.0,0.0,0.0,0.0,0.0,0.0,0.0,0.0,0.0,0.0,0.0,0.0,0.0,-2.8529,-2.8843,-2.8868,-2.9614,-3.0283,-3.0619,-3.1408,-3.1898,-3.1898,-3.2632,-3.3096,-3.3096,-3.3532,-3.3807,-3.3807,-3.3807,-3.3807,-3.3807,-3.3807,-3.3807,-3.3807,-3.3807,-3.3807,-3.3807,-3.3807,-3.3807,-3.3807,-3.3807,-3.3532,-3.3073,-3.2247,-3.1439,-3.0632,-2.9831,-2.9299,-2.9005,0.0,0.0,0.0,0.0,-2.9078,-2.913,0.0,-1.9297,-1.9297,-1.9297,-1.9297,-1.9297,-1.9297,-1.9389,-1.9392,-1.9316,-1.9382,-1.935,-1.9123,-1.9107,-1.9109,-1.9095,-1.9829,-2.0029,0.0,-2.0129,-2.1135,-2.235,-2.2482,-2.2836,-2.3487,-2.3505,-2.3505,-2.3505,-2.3505,-2.3505,-2.3505,-2.3562,-2.3585,-2.3614,-2.3729,-2.3783,-2.3793,-2.3792,-2.3795,-2.3824,-2.3981,-2.4284,-2.4642,-2.4723,-2.4384,-2.3866,-2.3759,-2.3284,-2.2703,-2.2626,0.0,0.0,0.0,0.0,0.0,0.0,0.0,0.0,0.0,0.0,0.0,0.0,0.0,0.0,0.0,0.0,0.0,0.0,0.0,0.0,0.0,0.0,0.0,0.0,-2.945,-3.0356,-3.0465,-3.0418,-3.0662,-3.1338,-3.2195,-3.2729,-3.2729,-3.3385,-3.3807,-3.3807,-3.3807,-3.3807,-3.3807,-3.3807,0.0,0.0,0.0,-3.3807,-3.3807,-3.3807,-3.3807,-3.3807,-3.3807,-3.3807,-3.3807,-3.3807,-3.3807,-3.3752,-3.2949,-3.2137,-3.1342,-3.0522,-2.9721,-2.9005,-2.9005,-2.9005,-2.9005,-2.9005,-2.9005,-2.9005,0.0,-1.9297,-1.9297,-1.9297,-1.9297,-1.9297,-1.9297,-1.9858,-2.0034,-1.9373,-1.9863,-1.9988,-1.9265,-1.9123,-1.9109,-1.9095,-1.9829,-2.0499,-2.0923,-2.2255,-2.284,-2.2422,-2.2968,-2.3356,-2.3505,-2.3505,-2.3505,-2.3505,-2.3505,-2.3505,-2.3505,-2.3517,-2.3551,-2.3596,-2.3618,-2.3674,-2.3721,-2.3775,-2.3797,-2.3807,-2.3845,-2.3991,-2.4248,-2.4407,-2.4398,-2.419,-2.3556,-2.3612,-2.3953,-2.3412,-2.3223,-2.3244,-2.3417,-2.3468,0.0,0.0,0.0,0.0,0.0,0.0,0.0,0.0,0.0,0.0,0.0,0.0,0.0,0.0,0.0,0.0,0.0,0.0,0.0,-3.0133,-3.0412,-3.0857,-3.1979,-3.2163,-3.2212,-3.2253,-3.3038,-3.3568,-3.3568,-3.3715,-3.3807,-3.3807,-3.3807,-3.3807,-3.3807,-3.3807,-3.3807,-3.3807,-3.3807,-3.3807,-3.3807,-3.3807,-3.3807,-3.3807,-3.3807,0.0,-3.3807,-3.3807,-3.3807,-3.3752,-3.2949,-3.2137,-3.1342,-3.0522,-2.9721,-2.9005,-2.9005,-2.9005,-2.9005,-2.9005,-2.9005,-2.9005,-1.9297,-1.9297,-1.9297,-1.9297,-1.9297,-1.9297,-1.9297,-1.9638,-1.9895,-1.9895,-2.0246,-2.0331,-1.9898,-1.9784,-1.9578,-1.9129,-1.9847,-2.0933,-2.2453,-2.2908,-2.3059,-2.2961,-2.3302,-2.3505,-2.3505,-2.3505,-2.3505,-2.3505,-2.3505,-2.3505,-2.3505,-2.3505,-2.3517,-2.3551,-2.3603,-2.3618,-2.3645,-2.3711,-2.3783,-2.3804,-2.3757,-2.3834,-2.3961,-2.4174,-2.431,-2.4342,-2.3944,-2.4055,-2.4351,-2.4017,-2.3892,-2.3916,-2.402,-2.405,-2.4118,0.0,0.0,0.0,0.0,0.0,0.0,0.0,0.0,0.0,0.0,0.0,0.0,0.0,0.0,-2.8613,-2.9495,0.0,-3.0649,-3.1393,-3.1734,-3.2149,-3.2846,-3.3149,-3.3241,-3.3017,-3.3447,-3.3753,-3.3753,-3.378,-3.3807,-3.3807,-3.3807,-3.3807,-3.3807,-3.3807,-3.3807,-3.3807,-3.3807,-3.3807,-3.3807,-3.3807,-3.3807,-3.3807,-3.3807,-3.3807,-3.3807,-3.3807,-3.3807,-3.3733,-3.2522,-3.177,-3.1323,-3.0099,-2.9354,-2.9005,-2.9005,-2.9005,-2.9005,-2.9005,-2.9005,-2.9005,-1.9297,-1.9297,-1.9297,-1.9297,-1.9297,-1.9352,-1.9517,-1.9683,-2.0031,-2.0676,-2.0896,-2.0916,-2.0744,-2.0692,-2.0422,-1.9861,-2.0381,-2.1602,-2.3595,-2.3095,-2.2977,-2.351,-2.3505,-2.3505,-2.3505,-2.3505,-2.3505,-2.3505,-2.3505,-2.3505,-2.3505,-2.3505,-2.3505,-2.3505,-2.3551,-2.3573,-2.3573,-2.3645,-2.37,-2.3761,-2.3711,-2.3736,-2.3795,-2.3969,-2.4136,-2.4284,-2.4284,-2.4284,-2.4293,-2.4328,-2.4337,-2.4346,-2.4389,-2.4398,-2.4557,-2.5356,-2.5588,0.0,0.0,0.0,0.0,0.0,0.0,0.0,0.0,-2.7669,-2.8014,-2.8661,-2.9486,-3.0312,-3.0997,-3.1826,-3.2381,-3.2342,-3.2874,-3.332,-3.3392,-3.3685,-3.378,-3.3506,-3.3619,-3.3698,-3.3698,-3.3766,-3.3807,-3.3807,-3.3807,-3.3807,-3.3807,-3.3807,-3.3807,-3.3807,-3.3807,-3.3807,-3.3807,-3.3807,-3.3807,-3.3807,-3.3807,-3.3807,-3.3807,-3.3807,-3.3807,-3.3715,-3.2113,-3.1323,-3.1048,-2.9592,-2.9005,-2.9005,-2.9005,-2.9005,-2.9005,-2.9005,-2.9005,-2.9005,0.0,-1.9297,-1.9297,-1.9297,-1.9297,-1.9528,-2.0254,-2.1015,-2.1555,-2.1647,-2.2281,-2.2419,-2.1651,-2.1551,-2.1753,-2.2244,-2.2376,-2.2823,-2.3721,-2.3649,-2.3566,-2.3585,-2.3528,-2.3505,-2.3505,-2.3505,-2.3505,-2.3505,-2.3505,-2.3505,-2.3505,-2.3505,-2.3505,-2.3505,-2.3517,-2.3517,-2.3517,-2.3573,-2.3625,-2.3618,-2.3667,-2.3711,-2.3721,-2.3797,-2.3852,-2.3878,-2.3878,-2.3878,-2.3881,-2.4069,-2.4126,-2.4155,-2.4346,-2.4398,-2.4557,-2.5356,-2.5588,-2.5625,-2.5718,-2.5805,-2.6161,-2.7447,-2.8144,-2.8567,0.0,-2.9653,-3.0433,-3.029,-3.1094,-3.1843,-3.1947,-3.2204,-3.2561,-3.3093,-3.3239,-3.3388,-3.3707,-3.3773,-3.3712,-3.3437,-3.3591,-3.3698,-3.3698,-3.3766,-3.3807,-3.3807,-3.3807,-3.3807,-3.3807,-3.3807,-3.3807,-3.3807,-3.3807,-3.3807,-3.3807,-3.3807,-3.3807,-3.3807,-3.3807,-3.3807,-3.3807,-3.3807,-3.3807,-3.3715,-3.2113,-3.0993,-3.0265,-2.9372,-2.9005,-2.9005,-2.9005,-2.9005,-2.9005,-2.9005,-2.9005,-2.9005,0.0,-1.9297,-1.9297,-1.9297,-1.9693,-2.0107,-2.0456,-2.1235,-2.1978,-2.2446,-2.2786,-2.285,-2.2511,-2.2008,-2.1972,-2.2644,-2.2705,-2.3019,-2.375,-2.3765,-2.3718,-2.3596,-2.3573,-2.3539,-2.3505,-2.3505,-2.3505,-2.3505,-2.3505,-2.3505,-2.3505,-2.3505,-2.3505,-2.3505,-2.3505,-2.3505,-2.3505,-2.3562,-2.3618,-2.3663,-2.3652,-2.37,-2.375,-2.3754,-2.3768,-2.3806,-2.3806,-2.3806,0.0,-2.3899,-2.3929,-2.3949,-2.402,-2.405,-2.4215,-2.501,-2.5248,-2.5348,-2.5824,-2.6693,-2.754,-2.7814,-2.8479,-2.9073,-2.9164,-3.0068,-3.0875,-3.0758,-3.1868,-3.2849,-3.2809,-3.3284,-3.3707,-3.3807,-3.3829,-3.3871,-3.4006,-3.3895,-3.3766,-3.3661,-3.4025,-3.4101,-3.3684,-3.3698,-3.3766,-3.3807,-3.3807,-3.3807,-3.3807,-3.3807,-3.3807,-3.3807,-3.3807,-3.3807,-3.3807,-3.3807,-3.3807,-3.3807,-3.3807,-3.3807,-3.3807,-3.3807,-3.3293,-3.2351,-3.1201,-3.0246,-2.9482,-2.9133,-2.9005,-2.9005,-2.9005,-2.9005,-2.9005,-2.9005,-2.9005,-2.9005,0.0,-1.9297,-1.9297,-1.9297,-1.9968,-2.0503,-2.0503,-2.1235,-2.2088,-2.2896,-2.3189,-2.3318,-2.3318,-2.2749,-2.2648,-2.3366,-2.3181,-2.3349,-2.41,-2.3923,-2.3761,-2.3652,-2.3618,-2.3573,-2.3528,-2.3517,-2.3505,-2.3505,-2.3505,-2.3505,-2.3505,-2.3505,-2.3505,-2.3505,-2.3505,-2.3517,-2.3528,-2.3573,-2.3641,-2.3718,-2.3885,-2.4012,-2.4097,-2.4068,-2.41,-2.4111,-2.3886,-2.3806,-2.3806,-2.3806,-2.3806,-2.3806,-2.3806,-2.3806,-2.3958,-2.4755,-2.5208,-2.5663,-2.67,-2.7699,-2.8419,-2.8187,-2.8727,-2.9304,-2.9304,-3.0129,-3.0969,-3.1252,-3.2409,-3.3421,-3.3625,-3.4116,-3.4397,-3.4136,-3.4086,-3.4061,-3.3985,-3.3802,-3.3684,-3.3684,-3.4091,-3.4222,-3.3927,-3.399,-3.4055,-3.4124,-3.3935,-3.3807,-3.3807,-3.3807,-3.3807,-3.3807,-3.3807,-3.3807,-3.3807,-3.3807,-3.3807,-3.3807,-3.3807,-3.3807,-3.3788,-3.3568,-3.2706,-3.136,-3.0558,-2.9739,-2.9005,-2.9005,-2.9005,-2.9005,-2.9005,-2.9005,-2.9005,-2.9005,-2.9005,-2.9005,0.0,0.0,-1.9297,-1.9297,-1.9968,-2.0503,-2.0503,-2.1235,-2.2088,-2.2896,-2.3676,-2.4153,-2.4153,-2.4078,-2.436,-2.5147,-2.4387,-2.4205,-2.5012,-2.4273,-2.3804,-2.3793,-2.3663,-2.3596,-2.3603,-2.3539,-2.3505,-2.3505,-2.3505,-2.3505,-2.3505,-2.3505,-2.3505,-2.3505,-2.3505,-2.3539,-2.3603,-2.3596,-2.3641,-2.3772,-2.4545,-2.4869,-2.4863,-2.4937,-2.496,-2.4852,-2.4074,0.0,-2.3806,-2.3806,-2.3806,-2.3806,-2.3806,-2.3806,-2.3958,-2.4755,-2.5728,-2.6898,-2.8477,-2.8513,-2.825,-2.882,-2.9134,-2.9304,-2.9304,-3.0129,-3.1177,-3.2154,-3.2854,-3.3558,-3.4414,-3.4356,-3.4124,-3.3873,-3.3802,-3.3726,-3.3466,-3.3408,-3.3408,-3.3408,-3.3429,-3.3767,-3.4585,-3.4787,-3.4883,-3.4954,-3.4247,-3.3807,-3.3807,-3.3807,-3.3807,-3.3807,-3.3807,-3.3807,-3.3807,-3.3807,-3.3807,-3.3807,-3.3807,-3.3807,-3.377,-3.2986,-3.2173,-3.136,-3.0558,-2.9739,-2.9005,-2.9005,-2.9005,-2.9005,-2.9005,-2.9005,-2.9005,-2.9005,-2.9005,-2.9005,0.0,0.0,0.0,-2.0858,-2.1188,-2.1363,-2.1363,-2.161,-2.2088,-2.2896,-2.4171,0.0,0.0,0.0,0.0,0.0,-2.5317,-2.4918,-2.5096,-2.4319,-2.386,-2.3804,-2.3761,-2.3936,-2.4395,-2.436,-2.4587,-2.5033,-2.5033,-2.5033,-2.5033,-2.5033,-2.5063,-2.5165,-2.5165,-2.5195,-2.5266,-2.5265,-2.5577,-2.6069,-2.5798,-2.6038,-2.6507,-2.5942,-2.5766,-2.5692,0.0,-2.4248,-2.3806,-2.3806,-2.3803,-2.38,-2.3795,-2.3771,-2.3801,-2.4104,-2.4835,-2.5667,-2.6194,-2.6979,-2.767,-2.7881,-2.853,-2.9097,-2.9097,-3.0027,-3.0998,-3.1318,-3.2091,-3.2921,-3.3609,-3.3512,-3.3438,-3.3755,-3.3643,-3.3491,-3.3408,-3.3864,-3.4009,-3.3465,-3.4806,-3.5722,-3.5527,-3.5086,-3.5082,-3.5685,-3.5031,-3.4601,-3.4601,-3.41,-3.3807,-3.3807,-3.3807,-3.3807,-3.3807,-3.3807,-3.3807,-3.3807,-3.3807,-3.3532,-3.2981,-3.2173,-3.1366,-3.0558,-2.9739,-2.9244,-2.9005,-2.9005,-2.9005,-2.9005,-2.9005,-2.9005,-2.9005,-2.9005,-2.9005,-2.9005,0.0,0.0,0.0,0.0,0.0,0.0,0.0,0.0,0.0,0.0,0.0,0.0,0.0,0.0,0.0,0.0,0.0,-2.581,-2.6027,-2.4964,-2.4301,-2.4273,-2.397,-2.414,-2.4859,-2.4854,-2.5189,-2.5911,-2.5886,-2.5886,-2.5911,-2.5886,-2.5929,-2.6038,-2.6038,-2.6057,-2.6111,-2.6099,-2.6411,-2.6886,-2.667,-2.691,-2.7351,-2.679,-2.6585,0.0,-2.5715,-2.5099,-2.4574,-2.3994,-2.3803,-2.3789,-2.381,-2.3768,-2.3797,-2.414,-2.4653,-2.5183,-2.5375,-2.6254,-2.7161,-2.7357,-2.793,-2.8539,-2.8906,-2.9689,-3.0431,-3.0828,-3.1403,-3.2043,-3.2734,-3.2575,-3.2576,-3.3344,-3.3506,-3.3654,-3.3935,-3.4659,-3.4942,-3.4332,-3.562,-3.6504,-3.6313,-3.59,-3.5881,-3.6482,-3.5556,-3.4962,-3.5004,-3.4247,-3.3807,-3.3807,-3.3807,-3.3807,-3.3807,-3.3807,-3.3807,-3.3807,-3.3807,-3.3532,-3.2999,-3.2192,-3.1549,-3.0999,-2.9904,-2.9427,-2.9409,-2.9115,-2.9005,-2.9005,-2.9005,-2.9005,-2.9005,-2.9005,-2.9005,-2.9005,0.0,0.0,0.0,0.0,0.0,0.0,0.0,0.0,0.0,0.0,0.0,0.0,0.0,0.0,0.0,0.0,0.0,0.0,-2.7647,-2.6064,-2.5132,-2.515,-2.4339,-2.4256,-2.5104,-2.5066,-2.5409,-2.6219,-2.6164,-2.6164,-2.6219,-2.6164,-2.6164,-2.6231,-2.6231,-2.6219,-2.623,-2.623,-2.629,-2.6457,-2.717,-2.7477,-2.7514,-2.7477,0.0,0.0,-2.6554,-2.6246,-2.6011,-2.4447,-2.3896,-2.385,-2.3815,-2.3804,-2.3941,-2.4708,-2.5108,-2.5436,-2.5946,-2.6293,-2.6632,-2.715,-2.7333,-2.7677,-2.8684,-2.9115,-2.9588,-3.062,-3.0771,-3.1034,-3.1888,-3.1644,-3.1679,-3.2733,-3.3437,-3.4109,-3.4866,-3.572,-3.6113,-3.5779,-3.5804,-3.6127,-3.6814,-3.6969,-3.7098,-3.7235,-3.5809,-3.4993,-3.5045,-3.4252,-3.3807,-3.3807,-3.3807,-3.3807,-3.3807,-3.3807,-3.3807,-3.3807,-3.3807,-3.377,-3.3715,-3.2949,-3.2564,-3.2381,-3.087,-3.0173,-3.0081,-2.9317,-2.9005,-2.9005,-2.9005,-2.9005,-2.9005,-2.9005,-2.9005,-2.9005,0.0,0.0,0.0,0.0,0.0,0.0,0.0,0.0,0.0,0.0,0.0,0.0,0.0,0.0,0.0,0.0,0.0,0.0,-2.7684,-2.6169,-2.5486,-2.6045,-2.5223,-2.5393,-2.676,-2.6718,-2.7054,-2.7813,-2.7805,-2.7805,-2.7813,-2.7805,-2.7826,-2.7902,-2.7902,-2.7909,-2.7959,-2.7959,-2.8328,-2.886,0.0,-2.8648,-2.9119,0.0,0.0,-2.8183,-2.7369,-2.7079,-2.6934,-2.5932,-2.519,-2.4581,-2.3934,-2.3757,-2.3828,-2.4042,-2.4142,-2.4252,-2.4378,-2.49,-2.5441,-2.5581,-2.65,-2.7465,-2.7755,-2.8588,-2.937,-2.9655,-2.9936,-3.0407,-3.1258,-3.152,-3.189,-3.2757,-3.3738,-3.4473,-3.4658,-3.5908,-3.6329,-3.5059,-3.5965,-3.629,-3.5313,-3.5763,-3.617,-3.6243,-3.5921,-3.5743,-3.5817,-3.4495,-3.3753,-3.3807,-3.3807,-3.3807,-3.3807,-3.3807,-3.3807,-3.3807,-3.3807,-3.3495,-3.2894,-3.2693,-3.194,-3.0797,-3.0393,-2.9849,-2.9299,-2.9078,-2.9005,-2.9005,-2.9005,-2.9005,-2.9005,-2.9005,-2.9005,-2.9005,0.0,0.0,0.0,0.0,0.0,0.0,0.0,0.0,0.0,0.0,0.0,0.0,0.0,0.0,0.0,0.0,0.0,0.0,0.0,-2.601,-2.563,-2.641,-2.5576,-2.5837,-2.7411,-2.7375,-2.7711,-2.8484,0.0,0.0,-2.8484,-2.8458,-2.8286,-2.8025,-2.8386,-2.8363,-2.8093,-2.8455,0.0,0.0,0.0,0.0,0.0,0.0,0.0,-2.8545,-2.8093,-2.793,-2.7803,-2.6989,-2.6162,-2.5398,-2.4931,-2.4592,-2.4324,-2.4324,-2.4092,-2.3806,-2.3806,-2.4121,-2.4646,-2.5353,-2.6222,-2.7061,-2.7767,-2.8643,-2.9304,-2.9304,-2.9626,-3.0048,-3.0541,-3.0938,-3.1474,-3.2404,-3.3802,-3.4903,-3.5256,-3.6692,-3.7192,-3.5817,-3.6451,-3.6524,-3.5258,-3.5532,-3.5817,-3.5846,-3.5593,-3.5468,-3.5539,-3.4379,-3.3712,-3.3753,-3.3793,-3.3807,-3.3807,-3.3807,-3.3807,-3.3807,-3.3807,-3.3568,-3.3115,-3.3115,-3.2632,-3.1751,-3.1035,-3.0467,-3.0008,-2.9299,-2.9005,-2.9005,-2.9005,-2.9005,-2.9005,-2.9005,-2.9005,-2.9005,0.0,0.0,0.0,0.0,0.0,0.0,0.0,0.0,0.0,0.0,0.0,0.0,0.0,0.0,0.0,0.0,0.0,0.0,0.0,0.0,0.0,-2.6483,-2.5717,-2.599,-2.7493,-2.7447,-2.7828,-2.8612,-2.8345,-2.829,0.0,0.0,0.0,0.0,0.0,0.0,0.0,0.0,0.0,0.0,0.0,0.0,0.0,0.0,0.0,-2.8612,-2.86,-2.86,-2.8491,-2.7785,-2.7001,-2.626,-2.6217,-2.5717,-2.5134,-2.5034,-2.4502,-2.3951,-2.3842,-2.3806,-2.4157,-2.5679,-2.612,-2.659,-2.8093,-2.8881,-2.9293,-2.9262,-2.9608,-2.988,-2.983,-3.0197,-3.083,-3.184,-3.3562,-3.5105,-3.6033,-3.7442,-3.8005,-3.6955,-3.685,-3.6472,-3.5569,-3.5478,-3.5478,-3.5478,-3.4903,-3.4596,-3.479,-3.4081,-3.3684,-3.3712,-3.378,-3.3807,-3.3807,-3.3807,-3.3807,-3.3807,-3.3807,-3.3807,-3.3807,-3.3807,-3.3733,-3.3568,-3.2045,-3.1342,-3.1109,-2.961,-2.9005,-2.9005,-2.9005,-2.9005,-2.9005,-2.9005,-2.9005,-2.9005,0.0,0.0,0.0,0.0,0.0,0.0,0.0,0.0,0.0,0.0,-2.5488,-2.641,0.0,0.0,0.0,0.0,0.0,0.0,0.0,0.0,0.0,-2.6554,-2.6373,-2.6695,-2.7634,-2.7606,-2.793,-2.8682,-2.735,-2.6988,-2.7586,-2.6922,-2.6536,-2.6427,-2.7242,0.0,0.0,0.0,0.0,-2.8682,-2.8682,-2.8724,0.0,0.0,0.0,0.0,-2.8625,-2.86,-2.8582,-2.8437,-2.7845,-2.7067,-2.6409,-2.6102,-2.5866,-2.5208,-2.49,-2.4646,-2.3976,-2.3806,-2.4031,-2.4972,-2.5715,-2.6457,-2.7387,-2.8489,-2.9251,-2.9086,-2.9494,-2.9805,-2.9474,-3.0004,-3.0721,-3.1353,-3.2693,-3.4189,-3.5662,-3.6694,-3.6969,-3.6109,-3.6019,-3.5439,-3.3954,-3.3828,-3.3828,-3.3828,-3.3698,-3.396,-3.4687,-3.4014,-3.3657,-3.378,-3.3775,-3.3807,-3.3807,-3.3807,-3.3807,-3.3807,-3.3807,-3.3807,-3.3807,-3.3807,-3.344,-3.2748,-3.1806,-3.1029,-3.0338,-2.939,-2.9005,-2.9005,-2.9005,-2.9005,-2.9005,-2.9005,-2.9005,-2.9005,0.0,0.0,0.0,0.0,0.0,0.0,0.0,-2.3471,-2.4007,-2.481,-2.5934,-2.6814,-2.7224,-2.7559,-2.7611,0.0,0.0,0.0,0.0,0.0,0.0,0.0,-2.6933,-2.7302,-2.7686,-2.8049,-2.8403,-2.8749,0.0,-2.7725,-2.8064,-2.7647,-2.7224,-2.6862,-2.7707,-2.7846,-2.7501,-2.8342,-2.8724,-2.8749,-2.8749,-2.8773,0.0,0.0,0.0,0.0,-2.8657,-2.8637,-2.86,-2.86,-2.8346,-2.7966,-2.7568,-2.7152,-2.6675,-2.586,-2.5335,-2.4827,-2.4013,-2.3806,-2.4085,-2.5316,-2.5914,-2.653,-2.7749,-2.8606,-2.9119,-2.9026,-2.9314,-2.9532,-2.9334,-2.9835,-3.0383,-3.0632,-3.1869,-3.3339,-3.4953,-3.5874,-3.6236,-3.584,-3.5804,-3.517,-3.3556,-3.3393,-3.3393,-3.3393,-3.3393,-3.3589,-3.3999,-3.3753,-3.3661,-3.3739,-3.3793,-3.3807,-3.3807,-3.3766,-3.3766,-3.3807,-3.3766,-3.3766,-3.3807,-3.3807,-3.3587,-3.3164,-3.1935,-3.1182,-3.0723,-2.95,-2.9005,-2.9005,-2.9005,-2.9005,-2.9005,-2.9005,-2.9005,-2.9005,0.0,0.0,0.0,0.0,0.0,0.0,0.0,-2.37,-2.4413,-2.5402,-2.6224,-2.7036,-2.7833,-2.7448,-2.7334,0.0,0.0,0.0,0.0,0.0,0.0,0.0,0.0,-2.7727,-2.7727,0.0,0.0,-2.8822,-2.8409,0.0,0.0,0.0,0.0,0.0,-2.8052,-2.8076,-2.7561,-2.8427,-2.8798,0.0,0.0,-2.8822,0.0,0.0,0.0,0.0,0.0,-2.8687,-2.8625,-2.8625,-2.8612,-2.86,-2.86,-2.8165,-2.7495,-2.6681,-2.5896,-2.5081,-2.4284,-2.4049,-2.4393,-2.5842,-2.6331,-2.6826,-2.8274,-2.8803,-2.898,-2.8922,-2.913,-2.9272,-2.9166,-2.955,-2.9892,-3.0015,-3.1101,-3.256,-3.4353,-3.5279,-3.5804,-3.5804,-3.5804,-3.517,-3.3556,-3.3393,-3.3393,-3.3393,-3.3393,-3.3411,-3.3408,-3.352,-3.3619,-3.3698,-3.3753,-3.3793,-3.3807,-3.3739,-3.3739,-3.3807,-3.3739,-3.3739,-3.3807,-3.3807,-3.3807,-3.3715,-3.2284,-3.1549,-3.1286,-2.9861,-2.9152,-2.9005,-2.9005,-2.9005,-2.9005,-2.9005,-2.9005,-2.9005,0.0,0.0,0.0,0.0,0.0,0.0,0.0,-2.3269,-2.3862,-2.5467,-2.632,-2.7096,-2.7911,-2.8572,-2.8698,0.0,0.0,0.0,0.0,0.0,0.0,0.0,0.0,0.0,0.0,0.0,0.0,-2.8893,-2.743,0.0,0.0,0.0,0.0,0.0,0.0,-2.7579,-2.7561,-2.8427,0.0,0.0,0.0,0.0,0.0,0.0,0.0,0.0,0.0,-2.8749,-2.8682,-2.8682,-2.865,-2.86,-2.86,-2.8545,-2.8328,-2.7532,-2.6717,-2.5914,-2.5117,-2.4882,-2.5099,-2.5986,-2.6753,-2.7514,-2.8401,-2.8803,-2.8934,-2.8687,-2.8978,-2.9166,-2.8743,-2.8894,-2.927,-2.9753,-3.0559,-3.1926,-3.428,-3.5279,-3.5804,-3.5804,-3.5804,-3.517,-3.3556,-3.3393,-3.3393,-3.3393,-3.3393,-3.3422,-3.3495,-3.3491,-3.3563,-3.3698,-3.3712,-3.3739,-3.3807,-3.3739,-3.3739,-3.3807,-3.3739,-3.3739,-3.3807,-3.3807,-3.3807,-3.3752,-3.2871,-3.2082,-3.1342,-3.0448,-2.9647,-2.9005,-2.9005,-2.9005,-2.9005,-2.9005,-2.9005,-2.9005,0.0,0.0,0.0,0.0,0.0,0.0,-2.3856,-2.3955,-2.4565,-2.62,-2.6683,-2.7369,-2.8687,-2.9122,-2.9164,-2.8756,0.0,0.0,0.0,0.0,0.0,0.0,0.0,0.0,0.0,0.0,-2.8663,-2.8952,-2.8288,0.0,0.0,0.0,0.0,0.0,0.0,-2.827,-2.83,-2.8742,0.0,0.0,0.0,0.0,0.0,0.0,0.0,0.0,0.0,0.0,-2.8694,-2.8694,-2.8662,-2.86,-2.86,-2.86,-2.8437,-2.764,-2.717,-2.6753,-2.595,-2.5715,-2.5914,-2.6717,-2.7152,-2.7604,-2.8419,-2.8687,-2.8737,-2.8625,-2.8755,-2.8809,-2.8637,-2.8687,-2.8828,-2.9042,-2.9355,-3.0224,-3.2162,-3.3261,-3.3996,-3.4314,-3.5078,-3.4985,-3.3531,-3.3549,-3.3577,-3.3408,-3.3393,-3.3408,-3.3437,-3.3481,-3.3534,-3.3647,-3.3671,-3.3793,-3.3985,-3.3753,-3.3753,-3.3972,-3.3753,-3.378,-3.4036,-3.4036,-3.4036,-3.4012,-3.3186,-3.2287,-3.1342,-3.0522,-2.9721,-2.9005,-2.9005,-2.9005,-2.9005,-2.9005,-2.9005,-2.9005,0.0,0.0,0.0,0.0,0.0,-2.3666,-2.3969,-2.4059,-2.4789,-2.6637,-2.6897,-2.7538,-2.9221,-2.9396,-2.9347,-2.9272,-2.9251,0.0,0.0,0.0,0.0,0.0,0.0,0.0,0.0,0.0,-2.9005,-2.9005,-2.8952,-2.8929,0.0,0.0,-2.8755,-2.8755,0.0,0.0,0.0,0.0,0.0,0.0,0.0,0.0,0.0,0.0,0.0,0.0,0.0,0.0,0.0,0.0,0.0,-2.8637,-2.8637,-2.8612,-2.8491,-2.793,-2.7586,-2.7278,-2.6699,-2.6554,-2.6693,-2.726,-2.7586,-2.7894,-2.8473,-2.86,-2.86,-2.86,-2.86,-2.86,-2.86,-2.8662,-2.87,-2.8612,-2.8844,-2.9577,-3.1143,-3.2291,-3.3171,-3.3807,-3.4792,-3.4903,-3.3636,-3.3619,-3.3605,-3.3408,-3.3393,-3.3393,-3.3393,-3.3437,-3.3509,-3.3563,-3.3684,-3.3815,-3.3947,-3.378,-3.3834,-3.4099,-3.3902,-3.3979,-3.4286,-3.4286,-3.425,-3.416,-3.3603,-3.2736,-3.1696,-3.0889,-3.0081,-2.9335,-2.9097,-2.9005,-2.9005,-2.9005,-2.9005,-2.9005,0.0,0.0,0.0,0.0,0.0,0.0,-2.2974,-2.3165,-2.4088,-2.6495,-2.6868,-2.7538,-2.9221,-2.9396,-2.9396,-2.9396,-2.9344,0.0,0.0,0.0,0.0,0.0,0.0,0.0,0.0,0.0,-2.9005,-2.9005,-2.9005,-2.9005,-2.8994,-2.8929,-2.8905,-2.8905,0.0,0.0,0.0,0.0,0.0,0.0,0.0,0.0,0.0,0.0,0.0,0.0,0.0,0.0,0.0,0.0,0.0,0.0,0.0,-2.8644,-2.86,-2.86,-2.802,-2.7405,-2.7387,-2.7387,-2.7387,-2.7405,-2.8002,-2.86,-2.86,-2.86,-2.86,-2.86,-2.86,-2.86,-2.86,-2.8815,-2.891,-2.865,-2.9442,-3.0576,-3.1986,-3.3118,-3.41,-3.488,-3.523,-3.4981,-3.3907,-3.3549,-3.3393,-3.3393,-3.3393,-3.3393,-3.3393,-3.3393,-3.3437,-3.3509,-3.3766,-3.3788,-3.3619,-3.3807,-3.3972,-3.4099,-3.4237,-3.4368,-3.4508,-3.4508,-3.4394,-3.4197,-3.4179,-3.3586,-3.2528,-3.1715,-3.0907,-3.0118,-2.9317,-2.9005,-2.9005,-2.9005,-2.9005,-2.9005,0.0,0.0,0.0,0.0,0.0,0.0,0.0,-2.4377,-2.5254,-2.6625,-2.7293,-2.8101,-2.9266,-2.9396,-2.9396,-2.9396,-2.9386,0.0,0.0,0.0,0.0,0.0,0.0,0.0,0.0,0.0,-2.9005,-2.9005,-2.9005,-2.9005,-2.9005,-2.8929,-2.8905,-2.8905,-2.8905,-2.8905,0.0,0.0,0.0,0.0,0.0,0.0,0.0,0.0,0.0,0.0,0.0,0.0,0.0,0.0,0.0,0.0,0.0,0.0,0.0,-2.8612,-2.8419,-2.8219,-2.8219,-2.8219,-2.8219,-2.8219,-2.8419,-2.86,-2.86,-2.8731,-2.8863,-2.8863,-2.8984,-2.9079,-2.9079,-2.9144,-2.9362,-2.9813,-3.0172,-3.0731,-3.1782,-3.3167,-3.39,-3.3411,-3.3767,-3.4041,-3.4067,-3.3657,-3.3393,-3.3393,-3.3393,-3.3393,-3.3393,-3.3753,-3.382,-3.3506,-3.3591,-3.3684,-3.3788,-3.3684,-3.3829,-3.4233,-3.4142,-3.4314,-3.4723,-3.4753,-3.4733,-3.4662,-3.4483,-3.3813,-3.2803,-3.182,-3.0925,-3.0118,-2.9317,-2.9005,-2.9005,-2.9005,-2.9005,-2.9005,0.0,0.0,0.0,0.0,0.0,0.0,0.0,-2.4929,-2.5807,-2.6651,-2.7485,-2.8339,-2.9222,-2.9376,-2.9396,-2.9365,-2.9386,0.0,0.0,0.0,0.0,0.0,0.0,0.0,0.0,-2.9005,-2.9005,-2.9005,-2.9005,-2.9005,-2.9005,-2.897,-2.894,-2.894,-2.894,-2.894,0.0,0.0,0.0,0.0,0.0,0.0,0.0,0.0,0.0,0.0,0.0,0.0,0.0,0.0,0.0,0.0,0.0,0.0,0.0,0.0,-2.86,-2.86,-2.86,-2.86,-2.86,-2.86,-2.86,-2.86,-2.86,-2.8737,-2.8875,-2.898,-2.9097,-2.9198,-2.9283,-2.9365,-2.9544,-2.9975,-3.0112,-3.0493,-3.148,-3.2831,-3.3715,-3.3759,-3.3633,-3.3726,-3.4161,-3.3712,-3.3393,-3.3393,-3.3477,-3.3509,-3.3411,-3.3908,-3.4023,-3.3633,-3.3712,-3.3753,-3.3712,-3.3661,-3.3775,-3.4111,-3.4208,-3.445,-3.4793,-3.4945,-3.4917,-3.4743,-3.4572,-3.4038,0.0,-3.1918,-3.1103,-3.054,-2.9427,-2.9005,-2.9005,-2.9005,-2.9005,-2.9005,0.0,0.0,0.0,0.0,0.0,0.0,0.0,-2.4947,-2.5787,-2.6611,-2.7465,-2.8318,-2.9137,-2.9326,-2.9376,-2.9312,0.0,0.0,0.0,0.0,0.0,0.0,0.0,0.0,0.0,-2.9005,-2.9005,-2.9005,-2.9005,-2.9005,-2.9005,-2.9005,-2.9005,-2.9005,-2.9005,-2.9017,0.0,0.0,0.0,0.0,0.0,0.0,0.0,0.0,0.0,0.0,0.0,0.0,0.0,0.0,0.0,0.0,0.0,0.0,0.0,0.0,0.0,0.0,0.0,-2.86,-2.86,-2.86,-2.86,-2.86,-2.86,-2.8612,0.0,-2.8968,-2.9037,-2.9097,-2.9304,-2.9504,-2.9589,-2.945,-2.9635,-3.0185,-3.1299,-3.233,-3.3638,-3.5469,-3.4562,-3.3908,-3.4173,-3.3739,-3.3408,-3.3393,-3.3633,-3.3657,-3.3408,-3.3881,-3.4061,-3.382,-3.4061,-3.3959,-3.3466,-3.3684,-3.3823,-3.3854,-3.4442,-3.4743,-3.4841,-3.5089,-3.4963,-3.4532,-3.4443,-3.4174,-3.364,-3.1997,-3.1323,-3.1158,-2.961,-2.9005,-2.9005,-2.9005,-2.9005,-2.9005,0.0,0.0,0.0,0.0,0.0,0.0,0.0,0.0,0.0,0.0,-2.7485,-2.8349,-2.9243,-2.9386,-2.9396,0.0,0.0,0.0,0.0,0.0,0.0,0.0,0.0,0.0,0.0,-2.9005,-2.9005,-2.9005,-2.9005,-2.9005,-2.9005,-2.9005,-2.9005,-2.9005,-2.9005,-2.9089,0.0,0.0,0.0,0.0,0.0,0.0,0.0,0.0,0.0,0.0,-2.9005,-2.9005,0.0,0.0,0.0,0.0,0.0,0.0,0.0,0.0,-2.86,-2.86,-2.86,0.0,-2.86,-2.86,-2.86,-2.86,0.0,-2.8755,-2.898,-2.9177,-2.9355,-2.9523,-2.9716,-2.9805,-3.003,-3.0656,-3.1306,-3.2006,-3.2719,-3.3265,-3.4059,-3.5318,-3.4484,-3.3908,-3.4173,-3.3895,-3.3633,-3.3408,-3.3466,-3.3466,-3.3393,-3.3712,-3.3855,-3.3788,-3.4061,-3.4136,-3.4011,-3.3868,-3.4011,-3.4401,-3.4559,-3.4763,-3.5029,-3.5155,-3.5145,-3.4988,-3.4005,-3.3516,-3.3254,-3.1278,-3.0485,-3.0375,-2.939,-2.9005,-2.9005,-2.9005,-2.9005,-2.9005,0.0,0.0,0.0,0.0,0.0,0.0,0.0,0.0,0.0,0.0,0.0,0.0,0.0,0.0,0.0,0.0,0.0,0.0,0.0,0.0,0.0,0.0,0.0,0.0,-2.9005,-2.9005,-2.9005,-2.9005,-2.9005,-2.9005,-2.9005,-2.9005,-2.9005,-2.9005,-2.9005,-2.9055,0.0,0.0,0.0,0.0,0.0,0.0,0.0,0.0,0.0,0.0,-2.9138,-2.9089,0.0,-2.9104,-2.9078,-2.8982,0.0,0.0,0.0,0.0,-2.8625,-2.86,-2.86,-2.86,-2.86,-2.86,-2.86,-2.86,-2.86,-2.8724,-2.8887,-2.9119,-2.9324,-2.9504,-2.9608,-2.9698,-3.0043,-3.092,-3.1327,-3.2037,-3.3471,-3.3852,-3.437,-3.5404,-3.4618,-3.4036,-3.4185,-3.3959,-3.3684,-3.3408,-3.3506,-3.352,-3.3411,-3.378,-3.3985,-3.3985,-3.3741,-3.3795,-3.4197,-3.366,-3.3734,-3.4409,-3.417,-3.4346,-3.4927,-3.5101,-3.5073,-3.4823,-3.3757,-3.3235,-3.2963,-3.1001,-3.0251,-3.024,-2.9345,-2.9005,-2.9005,-2.9005,-2.9005,-2.9005,0.0,0.0,0.0,0.0,0.0,0.0,0.0,0.0,0.0,0.0,0.0,0.0,0.0,0.0,0.0,0.0,0.0,0.0,0.0,0.0,0.0,0.0,0.0,-2.9005,-2.9005,-2.9005,-2.9005,-2.9005,-2.9005,-2.9005,-2.9005,-2.9005,-2.9005,-2.9005,-2.9005,-2.9028,0.0,0.0,0.0,0.0,0.0,0.0,0.0,0.0,0.0,0.0,0.0,0.0,0.0,-2.9206,-2.9149,-2.8994,-2.8917,0.0,0.0,0.0,0.0,0.0,-2.86,-2.86,-2.86,-2.86,-2.86,-2.86,-2.86,-2.86,-2.8675,-2.8945,-2.9141,-2.9262,-2.9293,-2.9568,-3.0039,-3.0781,-3.0881,-3.1607,-3.3753,-3.4093,-3.4475,-3.5371,-3.4743,-3.4245,-3.4209,-3.3998,-3.3684,-3.3259,-3.3437,-3.3392,-3.3045,-3.3461,-3.3741,-3.3777,-3.3049,-3.3054,-3.3838,-3.3143,-3.3234,-3.413,-3.3663,-3.3881,-3.4684,-3.4992,-3.4917,-3.4484,-3.3502,-3.2962,-3.263,-3.077,-3.0125,-3.018,-2.9343,-2.9005,-2.9005,-2.9005,-2.9005,-2.9005,0.0,0.0,0.0,0.0,0.0,0.0,0.0,0.0,0.0,0.0,0.0,0.0,0.0,0.0,0.0,0.0,0.0,0.0,0.0,0.0,0.0,0.0,-2.904,-2.9005,-2.9005,-2.9005,-2.9005,-2.9005,-2.9005,-2.9005,-2.9005,-2.9005,-2.9005,-2.9005,-2.9005,-2.9082,-2.927,0.0,0.0,0.0,-2.958,0.0,0.0,0.0,0.0,0.0,0.0,0.0,0.0,-2.9082,-2.904,-2.8994,-2.8917,0.0,0.0,0.0,0.0,0.0,-2.8612,-2.86,-2.86,-2.86,-2.86,-2.86,-2.86,-2.86,-2.8675,-2.8945,-2.9026,-2.9097,-2.9262,-3.0064,-3.0744,-3.0885,-3.1832,-3.2846,-3.3721,-3.3855,-3.3996,-3.437,-3.4483,-3.445,-3.4221,-3.4161,-3.3639,-3.2476,-3.2422,-3.2127,-3.1415,-3.1443,-3.1597,-3.182,-3.1704,-3.1794,-3.2154,-3.2203,-3.2755,-3.3771,-3.3696,-3.3988,-3.4622,-3.4733,-3.4763,-3.4649,-3.2826,-3.2099,-3.2064,-3.0032,-2.9193,-2.9198,-2.9053,-2.9005,-2.9005,-2.9005,-2.9005,-2.9005,0.0,0.0,0.0,0.0,0.0,0.0,0.0,0.0,0.0,0.0,0.0,0.0,0.0,0.0,0.0,0.0,0.0,0.0,0.0,0.0,0.0,-2.9051,-2.9017,-2.9005,-2.9005,-2.9005,-2.9005,-2.9005,-2.9005,-2.9005,-2.9005,-2.9005,-2.9005,-2.9005,-2.9005,-2.9055,-2.916,-2.9365,0.0,0.0,0.0,0.0,0.0,0.0,0.0,0.0,0.0,0.0,0.0,0.0,-2.91,-2.8994,-2.8952,0.0,0.0,0.0,0.0,0.0,-2.8612,-2.86,-2.86,-2.86,-2.86,-2.8587,-2.8562,-2.8549,-2.8569,-2.8706,-2.8821,-2.8885,-2.8874,-2.9747,-3.0721,-3.1469,-3.2735,-3.3642,-3.3773,-3.3648,-3.3569,-3.3702,-3.3525,-3.3254,-3.2876,-3.2841,-3.249,-3.1619,-3.1546,-3.1397,-3.1034,-3.0998,-3.1114,-3.1391,-3.095,-3.083,-3.1083,-3.0766,-3.1332,-3.2826,-3.269,-3.2857,-3.3304,-3.3644,-3.3535,-3.3042,-3.1704,-3.1142,-3.1115,-2.9625,-2.9067,-2.916,-2.9044,-2.9005,-2.9005,-2.9005,-2.9005,-2.9005,0.0,0.0,0.0,0.0,0.0,0.0,0.0,0.0,0.0,0.0,0.0,0.0,0.0,0.0,0.0,0.0,0.0,0.0,0.0,0.0,-2.9119,-2.9028,-2.9028,-2.9017,-2.9005,-2.9005,-2.9005,-2.9005,-2.9005,-2.9005,-2.9005,-2.9005,-2.9005,-2.9005,-2.9044,-2.9078,-2.9082,-2.9445,-2.9542,0.0,0.0,0.0,0.0,0.0,0.0,0.0,0.0,0.0,0.0,0.0,0.0,0.0,0.0,0.0,0.0,-2.8899,-2.8791,-2.8682,-2.8625,-2.86,-2.86,-2.86,-2.86,-2.8629,-2.8758,-2.8781,-2.8835,-2.8989,-2.9163,-2.9221,-2.9065,-2.9913,-3.1064,-3.2406,-3.3419,-3.3867,-3.3437,-3.3222,-3.306,-3.2927,-3.2522,-3.2117,-3.1742,-3.1663,-3.1378,-3.0767,-3.0726,-3.064,-3.0441,-3.0441,-3.0529,-3.0735,-3.0106,-2.9854,-3.0043,-2.944,-3.0018,-3.1716,-3.1509,-3.1654,-3.2096,-3.2485,-3.2307,-3.1667,-3.0761,-3.0439,-3.042,-2.9398,-2.9089,-2.9217,-2.9026,-2.8982,-2.8982,-2.8994,-2.9005,-2.9005,0.0,0.0,0.0,0.0,0.0,0.0,0.0,0.0,0.0,0.0,0.0,0.0,0.0,0.0,0.0,0.0,0.0,0.0,0.0,0.0,-2.9218,-2.9108,-2.9078,-2.9055,-2.9005,-2.9005,-2.9005,-2.9005,-2.9005,-2.9005,-2.9005,-2.9005,-2.9005,-2.9017,-2.9195,-2.9272,-2.9293,-2.9513,-2.9698,-2.9864,0.0,0.0,0.0,0.0,0.0,0.0,0.0,0.0,0.0,0.0,0.0,0.0,0.0,0.0,-2.9408,-2.914,-2.9027,-2.8932,-2.8669,-2.86,-2.86,-2.86,-2.86,-2.8773,-2.9462,-2.9611,-2.9801,-3.0488,-3.065,-3.0664,-3.0635,-3.1465,-3.2522,-3.3684,-3.3692,-3.3221,-3.2264,-3.2379,-3.2347,-3.1784,-3.179,-3.1804,-3.1719,-3.1523,-3.1004,-2.9955,-2.9893,-2.9554,-2.8817,-2.8763,-2.8775,-2.8801,-2.8734,-2.8728,-2.8735,-2.8681,-2.9313,-3.061,-3.0599,-3.0998,-3.1742,-3.1656,-3.1679,-3.1738,-3.0539,-3.0221,-3.042,-2.9345,-2.8952,-2.901,-2.894,-2.8917,-2.8917,-2.8982,-2.9005,-2.9005,0.0,0.0,0.0,0.0,0.0,0.0,0.0,0.0,0.0,0.0,0.0,0.0,0.0,0.0,0.0,0.0,0.0,0.0,0.0,0.0,-2.9197,-2.9089,-2.9089,-2.9074,-2.9005,-2.9005,-2.9005,-2.9005,-2.9005,-2.9005,-2.9005,-2.9005,-2.9067,-2.9185,-2.928,-2.9375,-2.9504,-2.9698,-2.983,-2.9905,-3.0034,0.0,0.0,0.0,0.0,0.0,0.0,0.0,0.0,0.0,-2.9608,-2.9608,-2.9608,-2.9561,-2.9476,-2.9338,-2.9227,-2.914,-2.8904,-2.8839,-2.8803,-2.8637,-2.86,-2.8778,-2.9467,-2.9242,-2.9103,-2.9843,-2.999,-3.0309,-3.1358,-3.1412,-3.1613,-3.2606,-3.2218,-3.1693,-3.1308,-3.1034,-3.0839,-3.0733,-3.0409,-3.0149,-3.0087,-2.9978,-2.9667,-2.9109,-2.9047,-2.8907,-2.8618,-2.86,-2.86,-2.86,-2.86,-2.86,-2.86,-2.86,-2.8839,-2.9319,-2.9826,-3.0056,-3.003,-3.0302,-3.0241,-2.9854,-2.9399,-2.932,-2.9471,-2.9062,-2.8917,-2.8929,-2.8858,-2.887,-2.8887,-2.8929,-2.8952,-2.9005,0.0,0.0,0.0,0.0,0.0,0.0,0.0,0.0,0.0,0.0,0.0,0.0,0.0,0.0,0.0,0.0,0.0,0.0,-2.9272,-2.9251,-2.9207,-2.9123,-2.91,-2.9074,-2.9005,-2.9005,-2.9005,-2.9005,-2.9005,-2.9005,-2.9005,-2.9005,-2.9078,-2.9206,-2.9334,-2.9474,-2.9617,-2.9888,-2.9996,-3.0011,-3.0142,-3.0211,0.0,0.0,0.0,0.0,0.0,0.0,0.0,0.0,-2.9786,-2.9786,-2.9786,-2.9741,-2.9661,-2.9523,-2.9399,-2.9266,-2.9052,-2.8934,-2.8827,-2.865,-2.86,-2.8778,-2.9445,-2.9166,-2.8977,-2.9665,-2.983,-3.0209,-3.1477,-3.111,-3.0869,-3.1596,-3.115,-3.0614,-3.0381,-3.0022,-2.9786,-2.9781,-2.9297,-2.9,-2.9086,-2.8943,-2.8767,-2.8612,-2.86,-2.86,-2.86,-2.86,-2.86,-2.86,-2.86,-2.86,-2.86,-2.86,-2.86,-2.8618,-2.9156,-2.9271,-2.901,-2.9282,-2.9196,-2.8791,-2.8724,-2.8718,-2.8827,-2.887,-2.887,-2.887,-2.881,-2.8822,-2.887,-2.887,-2.8917,-2.8994,0.0,0.0,0.0,0.0,0.0,0.0,0.0,0.0,0.0,0.0,0.0,0.0,0.0,0.0,0.0,0.0,0.0,0.0,-2.9396,-2.9344,-2.9262,-2.92,-2.9152,-2.9074,-2.9005,-2.9005,-2.9005,-2.9005,-2.9005,-2.9005,-2.9005,-2.9005,-2.9005,-2.9028,-2.9415,-2.9598,-2.9635,-3.0034,-3.0204,-3.0204,-3.0204,-3.0211,0.0,0.0,0.0,0.0,0.0,0.0,0.0,0.0,-3.0211,-3.0211,-3.0211,0.0,-3.0045,-2.9773,-2.9514,-2.9258,-2.9045,-2.8803,-2.86,-2.86,-2.86,-2.8778,-2.9427,-2.9597,-2.9753,-3.0347,-3.0478,-3.061,-3.1029,-3.075,-3.0625,-3.1025,-3.075,-3.0225,-2.9494,-2.9458,-2.9332,-2.8952,-2.8596,-2.8576,-2.9042,-2.8731,-2.8536,-2.8587,-2.86,-2.86,-2.86,-2.86,-2.86,-2.86,-2.86,-2.86,-2.86,-2.86,-2.86,-2.86,-2.86,-2.8749,-2.898,-2.8724,-2.8731,-2.898,-2.8724,-2.8637,-2.8724,-2.8773,-2.8798,-2.8798,-2.8798,-2.8798,-2.8798,-2.8798,-2.887,-2.8994,0.0,0.0,0.0,0.0,0.0,0.0,0.0,0.0,0.0,0.0,0.0,0.0,0.0,0.0,0.0,0.0,0.0,0.0,-2.9396,-2.9344,-2.9262,-2.92,-2.9152,-2.9074,-2.9005,-2.9005,-2.9005,-2.9005,-2.9005,-2.9005,-2.9005,-2.9005,-2.9078,-2.9217,-2.9334,-2.9474,-2.9617,-2.988,-2.9996,-3.0003,-3.0142,-3.0211,0.0,0.0,0.0,0.0,0.0,0.0,0.0,0.0,0.0,0.0,-3.0211,0.0,-3.0035,-2.927,-2.9439,-2.9672,-2.8811,-2.8835,-2.9064,-2.8922,-2.8694,-2.8564,-2.8725,-2.877,-2.8945,-2.9594,-2.9744,-2.9915,-3.0564,-3.017,-2.9769,-2.9879,-2.9333,-2.8802,-2.8588,-2.858,-2.8663,-2.8815,-2.8525,-2.8492,-2.8915,-2.8676,-2.8505,-2.8536,-2.8574,-2.86,-2.86,-2.86,-2.86,-2.86,-2.86,-2.86,-2.86,-2.86,-2.86,-2.86,-2.86,-2.8637,-2.8724,-2.8637,-2.865,-2.8724,-2.8637,-2.8637,-2.8694,-2.8706,-2.8737,-2.8718,-2.8675,-2.8687,-2.8737,-2.8737,-2.8785,-2.8858,0.0,0.0,0.0,0.0,0.0,0.0,0.0,0.0,0.0,0.0,0.0,0.0,0.0,0.0,0.0,0.0,0.0,0.0,0.0,0.0,-2.924,-2.92,-2.91,-2.9051,-2.9005,-2.9005,-2.9005,-2.9005,-2.9005,-2.9005,-2.9005,-2.9005,-2.9067,-2.9174,-2.9251,-2.9375,-2.9504,-2.9769,-2.9897,-2.9932,-3.0121,-3.0211,-3.0211,0.0,0.0,0.0,0.0,0.0,0.0,0.0,0.0,0.0,-3.0211,-2.9956,-2.9603,-2.9255,-2.9217,-2.9204,-2.8773,-2.8836,-2.8978,-2.8875,-2.8682,-2.8523,-2.8419,-2.8371,-2.8448,-2.8848,-2.8909,-2.9052,-2.9497,-2.9212,-2.8909,-2.8909,-2.8517,-2.8196,-2.8196,-2.8196,-2.8313,-2.8644,-2.8427,-2.8393,-2.8749,-2.8556,-2.8432,-2.8458,-2.8523,-2.8562,-2.8562,-2.8587,-2.86,-2.86,-2.86,-2.86,-2.86,-2.86,-2.86,-2.86,-2.86,-2.86,-2.86,-2.86,-2.86,-2.86,-2.86,-2.8637,-2.8694,-2.8675,-2.8687,-2.8682,-2.8625,-2.865,-2.8694,-2.8675,-2.8724,-2.8798,0.0,0.0,0.0,0.0,0.0,0.0,0.0,0.0,0.0,0.0,0.0,0.0,0.0,0.0,0.0,0.0,0.0,0.0,0.0,0.0,-2.9218,-2.92,-2.9074,-2.9005,-2.9005,-2.9005,-2.9005,-2.9005,-2.9005,-2.9005,-2.9005,-2.9005,-2.9005,-2.9017,-2.9185,-2.9262,-2.9293,-2.9698,-2.9872,-2.9888,-3.0121,-3.0211,-3.0211,-3.0211,0.0,0.0,0.0,0.0,0.0,0.0,0.0,0.0,-3.0211,-2.9612,-2.8984,-2.9477,-2.8912,-2.8258,-2.8805,-2.8796,-2.8637,-2.8637,-2.8612,-2.8549,-2.8406,-2.8291,-2.8196,-2.8196,-2.8196,-2.8196,-2.8196,-2.8196,-2.8196,-2.8196,-2.8196,-2.8196,-2.8196,-2.8196,-2.8277,-2.8484,-2.8313,-2.8304,-2.8562,-2.8419,-2.8327,-2.8398,-2.8458,-2.8479,-2.8492,-2.8562,-2.8587,-2.86,-2.86,-2.86,-2.86,-2.86,-2.86,-2.86,-2.86,-2.86,-2.86,-2.86,-2.86,-2.86,-2.86,-2.8637,-2.87,-2.8625,-2.8637,-2.8682,-2.8625,-2.8637,-2.8682,-2.8625,-2.8675,-2.8773,0.0,0.0,0.0,0.0,0.0,0.0,0.0,0.0,0.0,0.0,0.0,0.0,0.0,0.0,0.0,0.0,0.0,0.0,0.0,0.0,-2.9251,-2.92,-2.9074,-2.9005,-2.9005,-2.9005,-2.9005,-2.9005,-2.9005,-2.9005,-2.9005,-2.9005,-2.9005,-2.9005,-2.9044,-2.9067,-2.91,-2.9494,-2.9662,-2.9698,-3.0057,-3.0211,-3.0211,-3.0211,-3.0211,0.0,0.0,0.0,0.0,0.0,0.0,0.0,-3.0211,-2.9612,-2.8916,-2.8988,-2.8712,-2.8441,-2.8512,-2.8725,-2.891,-2.891,-2.8687,-2.8419,-2.834,-2.8264,-2.8196,-2.8196,-2.8196,-2.8196,-2.8196,-2.8196,-2.8196,-2.8196,-2.8196,-2.8196,-2.8196,-2.8196,-2.8277,-2.8484,-2.8313,-2.8291,-2.851,-2.8393,-2.8313,-2.8313,-2.838,-2.8445,-2.851,-2.8505,-2.8549,-2.86,-2.86,-2.86,-2.86,-2.86,-2.86,-2.86,-2.86,-2.86,-2.86,-2.86,-2.86,-2.86,-2.86,-2.86,-2.8625,-2.86,-2.8612,-2.8625,-2.86,-2.8612,-2.8625,-2.86,-2.8612,-2.865,0.0,0.0,0.0,0.0,0.0,0.0,0.0,0.0,0.0,0.0,0.0,0.0,0.0,0.0,0.0,0.0,0.0,0.0,0.0,0.0,-2.9474,-2.9304,-2.9235,-2.9145,-2.9051,-2.9017,-2.9005,-2.9005,-2.9005,-2.9005,-2.9005,-2.9005,-2.9005,-2.9005,-2.9005,-2.9055,-2.9152,-2.9474,-2.9653,-2.976,-3.0072,-3.0211,-3.0147,-2.9746,-2.9841,-3.0147,-2.9726,0.0,0.0,0.0,0.0,0.0,0.0,0.0,-2.8947,-2.9205,-2.8909,-2.8532,-2.8641,-2.8841,-2.8968,-2.8839,-2.8637,-2.8432,-2.8353,-2.8304,-2.8143,-2.771,-2.7928,-2.8196,-2.8196,-2.8196,-2.8196,-2.8196,-2.8196,-2.8196,-2.8196,-2.8196,-2.8237,-2.834,-2.8264,-2.8237,-2.834,-2.8286,-2.8246,-2.8246,-2.8313,-2.838,-2.8445,-2.8479,-2.8536,-2.86,-2.86,-2.86,-2.86,-2.86,-2.86,-2.86,-2.86,-2.86,-2.86,-2.86,-2.86,-2.86,-2.86,-2.86,-2.86,-2.86,-2.86,-2.86,-2.86,-2.86,-2.86,-2.86,-2.86,-2.86,0.0,0.0,0.0,0.0,0.0,0.0,0.0,0.0,0.0,0.0,0.0,0.0,0.0,0.0,0.0,0.0,0.0,0.0,0.0,-2.9809,-2.9696,-2.9476,-2.9455,-2.9363,-2.9222,-2.9112,-2.9055,-2.9055,-2.9028,-2.9078,-2.9207,-2.9078,-2.9005,-2.9005,-2.9051,-2.9149,-2.9314,-2.9561,-2.9742,-2.9932,-3.0121,-3.0211,-3.0109,-2.9395,-2.9471,-2.9879,-2.9166,-2.9357,-2.9975,-2.9975,0.0,0.0,0.0,0.0,-2.9036,-2.9652,-2.9206,-2.859,-2.9002,-2.9056,-2.8934,-2.8675,-2.8549,-2.8497,-2.8432,-2.8246,-2.7893,-2.7178,-2.7638,-2.816,-2.8017,-2.8106,-2.8196,-2.8196,-2.8196,-2.8196,-2.8196,-2.8196,-2.8196,-2.8196,-2.8196,-2.8196,-2.8196,-2.8196,-2.8196,-2.8196,-2.825,-2.8313,-2.8367,-2.8445,-2.851,-2.8574,-2.8587,-2.8587,-2.86,-2.86,-2.86,-2.86,-2.86,-2.86,-2.86,-2.86,-2.86,-2.86,-2.86,-2.86,-2.86,-2.86,-2.86,-2.86,-2.86,-2.86,-2.86,-2.86,-2.86,-2.86,0.0,0.0,0.0,0.0,0.0,0.0,0.0,0.0,0.0,0.0,-2.9005,-2.9028,-2.9085,-2.9167,0.0,0.0,0.0,0.0,-2.9878,0.0,0.0,-2.9758,-2.9633,-2.9598,-2.9608,-2.9375,-2.9251,-2.9251,-2.9089,-2.9354,-3.0026,-2.9335,-2.9005,-2.9017,-2.9174,-2.9272,-2.9324,-2.9698,-2.9872,-2.9932,-3.0121,-3.0211,-3.0192,-3.007,-2.9631,-2.907,-2.893,-2.8968,-2.907,-2.907,-2.9593,0.0,0.0,0.0,-2.9057,-2.982,-2.9327,-2.8663,-2.94,-2.9314,-2.8934,-2.8675,-2.8549,-2.851,-2.8479,-2.7854,-2.723,-2.7105,-2.7683,-2.7981,-2.7281,-2.7727,-2.8196,-2.8196,-2.8196,-2.8196,-2.8196,-2.8196,-2.8196,-2.8196,-2.8196,-2.8196,-2.8196,-2.8196,-2.8196,-2.8196,-2.8196,-2.825,-2.8313,-2.8327,-2.8375,-2.8505,-2.8505,-2.8549,-2.86,-2.86,-2.86,-2.86,-2.86,-2.86,-2.86,-2.86,-2.86,-2.86,-2.86,-2.86,-2.86,-2.86,-2.86,-2.86,-2.86,-2.86,-2.86,-2.86,-2.86,-2.86,0.0,0.0,0.0,0.0,0.0,0.0,0.0,0.0,0.0,0.0,0.0,-2.9017,-2.9051,-2.9206,0.0,0.0,0.0,0.0,-3.0168,-3.0154,0.0,0.0,-2.9888,-2.979,-2.9706,-2.9436,-2.9304,-2.9304,-2.9093,-2.9409,-3.0191,-2.9831,-2.9916,-3.032,-2.9978,-2.9869,-2.9943,-2.9671,-2.9689,-2.9905,-3.0003,-3.0392,-3.0815,-2.9841,-2.9529,-2.9516,-2.8554,-2.823,-2.8306,-2.8739,-2.9147,-2.9548,-3.0051,0.0,0.0,0.0,-2.9813,-2.9409,-2.9467,-2.9235,-2.895,-2.8675,-2.8574,-2.8549,-2.8505,-2.817,-2.7615,-2.6684,-2.7069,-2.7464,-2.7063,-2.7281,-2.7692,-2.8124,-2.8196,-2.8196,-2.8196,-2.8196,-2.8196,-2.8196,-2.8196,-2.8196,-2.8196,-2.8196,-2.8196,-2.8196,-2.8196,-2.8237,-2.83,-2.83,-2.8367,-2.851,-2.8492,-2.8536,-2.86,-2.86,-2.86,-2.86,-2.86,-2.86,-2.86,-2.86,-2.86,-2.86,-2.86,-2.86,-2.86,-2.86,-2.86,-2.86,-2.86,-2.86,-2.86,-2.86,-2.86,-2.86,0.0,0.0,0.0,0.0,0.0,0.0,0.0,0.0,0.0,0.0,0.0,0.0,-2.9005,0.0,0.0,0.0,0.0,0.0,-3.0373,0.0,0.0,0.0,0.0,-2.9973,-2.9782,-2.9514,-2.9346,-2.9304,-2.9093,-2.9519,-3.0503,-3.0503,-3.1035,-3.1966,-3.0784,-3.036,-3.0442,-2.9698,-2.9664,-3.0124,-3.0124,-3.0658,-3.1291,-3.0208,-2.9971,-3.0039,-2.8771,-2.8198,-2.8096,-2.8707,-2.9051,-2.9318,-2.9726,-2.9879,0.0,0.0,0.0,-2.9741,-2.9467,-2.9279,-2.9104,-2.8791,-2.8712,-2.8675,-2.8543,-2.8343,-2.7776,-2.6327,-2.629,-2.6496,-2.6445,-2.6581,-2.6889,-2.7482,-2.775,-2.7892,-2.7892,-2.8071,-2.8196,-2.8196,-2.8196,-2.8196,-2.8196,-2.8196,-2.8196,-2.8196,-2.8196,-2.8223,-2.8273,-2.8273,-2.8327,-2.8458,-2.8471,-2.851,-2.8574,-2.8587,-2.86,-2.86,-2.86,-2.86,-2.86,-2.86,-2.86,-2.86,-2.86,-2.86,-2.86,-2.86,-2.86,-2.86,-2.86,-2.86,-2.86,-2.86,-2.86,-2.86,0.0,0.0,0.0,0.0,0.0,0.0,0.0,0.0,0.0,0.0,0.0,0.0,-2.9005,-2.9123,-2.9343,-2.967,0.0,0.0,0.0,0.0,0.0,0.0,0.0,0.0,-2.9992,-2.971,-2.9495,-2.9304,-2.9093,-2.9794,-3.1342,-3.1342,-3.2155,-3.3582,-3.1448,-3.0487,-3.0453,-2.9831,-3.0049,-3.0753,-3.0753,-3.094,-3.1295,-3.197,-3.1388,-3.0192,-3.0096,-2.9535,-2.8834,-2.8891,-2.9452,-2.9994,-2.9204,-2.8968,-2.8822,0.0,0.0,0.0,-2.954,-2.9671,-2.9551,-2.9086,-2.898,-2.891,-2.865,-2.7952,-2.7121,-2.6273,-2.5469,-2.492,-2.4933,-2.5427,-2.589,-2.5925,-2.655,-2.7063,-2.7063,-2.7714,-2.8196,-2.8196,-2.8196,-2.8196,-2.8196,-2.8196,-2.8196,-2.8196,-2.8196,-2.8196,-2.8196,-2.8196,-2.8237,-2.8313,-2.8367,-2.8432,-2.8492,-2.8574,-2.86,-2.86,-2.86,-2.86,-2.86,-2.86,-2.86,-2.86,-2.86,-2.86,-2.86,-2.86,-2.86,-2.86,-2.86,-2.86,-2.86,-2.86,-2.86,-2.86,0.0,0.0,0.0,0.0,0.0,0.0,0.0,0.0,0.0,0.0,0.0,0.0,0.0,-2.9112,-2.928,-2.9495,-2.984,0.0,0.0,0.0,0.0,0.0,0.0,0.0,0.0,-2.9706,-2.9494,-2.9494,-2.916,-2.9555,-3.0632,-3.0632,-3.0944,-3.1476,-3.1194,-3.1077,-3.1003,-2.9736,-2.9458,-2.9834,-2.9834,-3.0628,-3.1704,-3.1039,-3.0793,-3.0657,-2.9723,-2.8822,-2.8211,-2.872,-2.9108,-2.9318,-2.9006,-2.8891,-2.8739,-2.7943,-2.8261,-2.8893,-2.8917,-2.9298,-2.9607,-2.9277,-2.909,-2.8968,-2.8875,-2.8488,-2.7923,-2.7109,-2.6237,-2.5493,-2.4961,-2.498,-2.5426,-2.6407,-2.68,-2.7174,-2.771,-2.8017,-2.8196,-2.8196,-2.8196,-2.8196,-2.8196,-2.8196,-2.8196,-2.8196,-2.8196,-2.8196,-2.8196,-2.7696,-2.7714,-2.8282,-2.7825,-2.7872,-2.8492,-2.8574,-2.86,-2.86,-2.86,-2.86,-2.86,-2.86,-2.86,-2.86,-2.86,-2.86,-2.86,-2.86,-2.86,-2.86,-2.86,-2.86,-2.86,-2.86,-2.86,-2.86,0.0,0.0,0.0,0.0,0.0,0.0,0.0,0.0,0.0,-2.9005,0.0,0.0,0.0,0.0,-2.9363,-2.9616,-2.9966,-3.0189,-3.0196,0.0,0.0,0.0,0.0,0.0,0.0,-2.9653,-2.9474,-2.9395,-2.9127,-2.9409,-3.021,-3.021,-3.0338,-3.0613,-3.087,-3.0999,-3.0907,-2.9574,-2.9225,-2.9621,-2.9898,-3.0687,-3.1674,-3.1506,-3.1348,-3.1105,-3.0421,-2.9471,-2.8618,-2.9166,-2.9338,-2.9242,-2.8669,-2.8115,-2.7599,-2.7338,-2.7848,-2.8528,-2.8613,-2.9225,-2.9767,-2.9504,-2.9316,-2.9174,-2.9037,-2.8863,-2.8476,-2.7592,-2.6935,-2.6273,-2.5462,-2.5219,-2.5379,-2.6116,-2.667,-2.7192,-2.7714,-2.8035,-2.8196,-2.8196,-2.8196,-2.8196,-2.8196,-2.8196,-2.8196,-2.8196,-2.7946,-2.7803,-2.7803,-2.7032,-2.6999,-2.787,-2.7386,-2.7546,-2.8453,-2.851,-2.8549,-2.8574,-2.8536,-2.8549,-2.86,-2.8574,-2.8574,-2.86,-2.86,-2.86,-2.86,-2.86,-2.86,-2.86,-2.86,-2.86,-2.86,-2.86,-2.86,-2.86,0.0,0.0,0.0,0.0,0.0,0.0,0.0,0.0,-2.9005,-2.9005,0.0,0.0,0.0,0.0,0.0,-3.0038,-3.0215,-3.031,-3.0392,-3.0202,0.0,0.0,0.0,0.0,-2.9418,-2.9589,-2.9455,-2.9017,-2.9005,-2.939,-3.0173,-3.0173,-3.0577,-3.1305,-3.0503,-3.0173,-3.0118,-2.9335,-2.9464,-3.0265,-3.1029,-3.1184,-3.1194,-3.3502,-3.3157,-3.155,-3.2378,-3.1641,-3.0254,-3.0254,-3.0242,-2.9956,-2.8255,-2.6599,-2.544,-2.6217,-2.7052,-2.7905,0.0,0.0,0.0,-2.9779,-2.9653,-2.9494,-2.9097,-2.9003,-2.8691,-2.7647,-2.7368,-2.7049,-2.6273,-2.6087,-2.5762,-2.4903,-2.6027,-2.7009,-2.7032,-2.771,-2.8196,-2.8196,-2.8196,-2.8196,-2.8196,-2.8196,-2.8196,-2.8196,-2.7478,-2.7027,-2.7009,-2.6247,-2.6183,-2.7033,-2.7087,-2.752,-2.8393,-2.8411,-2.8432,-2.8492,-2.8432,-2.8458,-2.8587,-2.8536,-2.8549,-2.8587,-2.86,-2.86,-2.86,-2.86,-2.86,-2.86,-2.86,-2.86,-2.86,-2.86,-2.86,-2.86,0.0,0.0,0.0,0.0,0.0,-2.9005,-2.9005,-2.9005,-2.9005,0.0,0.0,0.0,-2.9005,-2.9235,-2.9464,-2.9645,-2.9915,-3.0114,-3.018,-3.0228,-3.0248,-3.0248,-3.0063,-2.9891,-2.9763,-2.9475,-2.931,-2.9217,-2.9078,-2.9115,-2.9335,-2.9335,-2.9445,-2.9647,-2.9427,-2.9335,-2.9317,-2.9097,-2.9464,-3.0173,-2.9812,-3.0661,-3.2083,-3.1749,-3.1974,-3.2464,-3.2259,-3.2013,-3.1794,-3.1794,-3.1504,-3.0835,-2.9108,-2.7848,-2.7052,-2.7281,-2.7924,-2.8624,-2.8847,0.0,0.0,0.0,0.0,0.0,-2.9241,-2.895,-2.8627,-2.8323,-2.7791,-2.7296,-2.7025,-2.6952,-2.6861,-2.6566,-2.6788,-2.7192,-2.7799,-2.8053,-2.8196,-2.8196,-2.8196,-2.8196,-2.8196,-2.8196,-2.8196,-2.8196,-2.7999,-2.762,-2.7032,-2.6247,-2.5908,-2.6147,-2.677,-2.7494,-2.8327,-2.8384,-2.8432,-2.8492,-2.8432,-2.8445,-2.8536,-2.8505,-2.8505,-2.8536,-2.8574,-2.86,-2.86,-2.86,-2.86,-2.86,-2.86,-2.86,-2.86,-2.86,-2.86,-2.86,0.0,0.0,0.0,0.0,0.0,-2.9005,-2.9005,-2.9005,-2.9005,0.0,0.0,0.0,-2.9115,-2.9564,-2.9817,-2.9672,-2.9851,-3.0015,-3.0173,-3.0181,-3.0189,-3.0221,-3.0041,-2.9907,-2.9823,-2.9561,-2.9373,-2.9304,-2.9093,-2.9005,-2.9005,-2.9005,-2.9005,-2.9005,-2.9005,-2.9005,-2.9005,-2.9005,-2.9262,-2.9721,-2.9922,-3.068,-3.1746,-3.1955,-3.2244,-3.2538,-3.2537,-3.2486,-3.2399,-3.2399,-3.1768,-3.072,-2.9338,-2.8344,-2.7701,-2.7701,-2.8268,-2.8891,-2.8891,-2.9501,-3.0094,-3.0102,0.0,0.0,-2.9334,-2.9012,-2.8749,-2.8625,-2.8238,-2.7881,-2.7857,-2.7832,-2.7776,-2.7751,-2.7648,-2.7736,-2.8179,-2.8209,-2.8196,-2.8196,-2.8499,-2.857,-2.8231,-2.8499,-2.8552,-2.8231,-2.7892,-2.721,-2.6104,-2.5283,-2.5128,-2.5783,-2.6285,-2.7102,-2.8246,-2.8304,-2.834,-2.8419,-2.834,-2.8384,-2.8458,-2.8432,-2.8458,-2.8492,-2.8549,-2.8574,-2.86,-2.86,-2.86,-2.86,-2.86,-2.86,-2.86,-2.86,-2.86,-2.86,0.0,0.0,-2.9005,-2.9005,-2.9078,-2.9133,-2.9133,-2.9133,-2.917,0.0,-2.9262,-2.9336,-2.9519,-3.0115,-3.036,-2.9996,-2.9913,-2.9969,-3.0226,-3.0078,-3.0026,-3.0094,-3.0034,-2.9915,-2.9705,-2.9681,-2.9532,-2.928,-2.91,-2.9005,-2.9005,-2.9005,-2.9005,-2.9005,-2.9005,-2.9005,-2.9005,-2.9005,-2.906,-2.9262,-3.0687,-3.1058,-3.0973,-3.3184,-3.3264,-3.2299,-3.308,-3.3028,-3.2581,-3.2551,-3.1665,-3.0412,-2.9464,-2.8688,-2.8103,-2.8007,-2.8478,-2.9044,-2.9024,-2.9537,-3.0072,-3.0046,-2.983,0.0,-2.9324,-2.9119,-2.8899,-2.865,-2.86,-2.86,-2.86,-2.8549,-2.8505,-2.8505,-2.8458,-2.838,-2.8313,-2.8264,-2.8259,-2.8348,-2.8901,-2.9044,-2.8405,-2.8905,-2.8976,-2.8249,-2.746,-2.6354,-2.4908,-2.4129,-2.4379,-2.5765,-2.589,-2.6662,-2.8196,-2.8196,-2.8237,-2.83,-2.8237,-2.8264,-2.8398,-2.8327,-2.8367,-2.8479,-2.8497,-2.8536,-2.8587,-2.8587,-2.8587,-2.86,-2.86,-2.86,-2.86,-2.86,-2.86,-2.86,0.0,-2.9005,-2.9005,-2.9005,-2.9537,-2.9971,-2.9971,-2.9971,-3.021,-3.0852,-3.0925,-3.095,-3.098,-3.0701,-3.0474,-3.0394,-2.9945,-2.9697,-2.9803,-2.9883,-2.9943,-3.0026,-3.0,-2.9907,-2.9707,-2.9541,-2.9341,-2.9055,-2.9028,-2.9005,-2.9005,-2.9005,-2.9005,-2.9005,-2.9005,-2.9005,-2.9005,-2.9005,-2.9372,-2.9989,-3.032,-3.1134,-3.2237,-3.2728,-3.314,-3.3473,-3.3652,-3.3759,-3.3799,-3.3478,-3.3163,-3.2703,-3.1337,-3.0846,-3.0624,-2.9917,-2.9822,-2.9909,-2.9756,-2.9823,-2.9888,-2.9671,-2.9456,0.0,-2.9093,-2.8897,-2.8718,-2.8625,-2.86,-2.86,-2.86,-2.8587,-2.8574,-2.8574,-2.8505,-2.8458,-2.838,-2.8384,-2.8604,-2.9242,-2.8887,-2.8757,-2.9199,-2.8792,-2.8425,-2.8213,-2.746,-2.6586,-2.564,-2.5444,-2.5497,-2.5788,-2.6425,-2.7228,-2.8196,-2.8196,-2.8237,-2.83,-2.8237,-2.825,-2.8313,-2.8313,-2.8313,-2.834,-2.8393,-2.8458,-2.8505,-2.8505,-2.8549,-2.86,-2.86,-2.86,-2.86,-2.86,-2.86,-2.86,-2.9005,-2.9005,-2.9133,-2.9537,-2.9934,-3.0338,-3.0742,-3.0797,-3.1091,-3.1898,-3.2357,-3.2296,-3.1488,-3.1126,-3.0838,-3.0524,-2.987,-2.9513,-2.9635,-2.9715,-2.9784,-2.9861,-2.9842,-2.9792,-2.9652,-2.9484,-2.932,-2.916,-2.9044,-2.9005,-2.9005,-2.9005,-2.9005,-2.9005,-2.9005,-2.9005,-2.9005,-2.9005,-2.9225,-2.9666,-3.0485,-3.1531,-3.2638,-3.3041,-3.3458,-3.3807,-3.3807,-3.3972,-3.4052,-3.317,-3.3195,-3.3325,-3.1795,-3.1672,-3.1901,-3.0975,-3.0704,-3.0551,-2.9908,-2.9742,-2.9707,-2.9551,-2.9346,0.0,0.0,-2.8885,-2.8749,-2.87,-2.8675,-2.8535,-2.8136,-2.8027,-2.8002,-2.8002,-2.7977,-2.8079,-2.8443,-2.8432,-2.8555,-2.8945,-2.8986,-2.899,-2.8945,-2.8918,-2.8702,-2.8231,-2.746,-2.6817,-2.6425,-2.6015,-2.5979,-2.6389,-2.6795,-2.7388,-2.8196,-2.8196,-2.8209,-2.825,-2.8209,-2.8209,-2.825,-2.825,-2.8259,-2.83,-2.834,-2.8406,-2.851,-2.8471,-2.8497,-2.8562,-2.8587,-2.8574,-2.8562,-2.8587,-2.86,-2.86,-2.9005,-2.9005,-2.9207,-2.9849,-3.0228,-3.065,-3.1305,-3.1525,-3.1916,-3.2742,-3.3532,-3.3605,-3.248,-3.2058,-3.1728,-3.1409,-3.035,-2.9768,-2.9942,-2.9841,-2.973,-2.9636,-2.9653,-2.9635,-2.9542,-2.9445,-2.9332,-2.9249,-2.9089,-2.9005,-2.9005,-2.9005,-2.9005,-2.9005,-2.9005,-2.9005,-2.9005,-2.9005,-2.9189,-2.9574,-3.087,-3.1696,-3.2234,-3.3201,-3.3568,-3.3568,-3.3568,-3.3602,-3.3523,-3.2588,-3.2812,-3.3261,-3.2003,-3.2199,-3.2678,-3.1718,-3.1324,-3.0997,-3.0095,-2.9692,-2.9523,-2.9435,-2.9283,-2.9134,0.0,0.0,0.0,-2.8798,-2.8761,-2.8518,-2.7864,-2.758,-2.7496,-2.7628,-2.752,-2.7707,-2.8491,-2.8497,-2.8504,-2.8648,-2.9098,-2.9224,-2.8707,-2.9035,-2.8971,-2.8276,-2.7603,-2.7157,-2.7009,-2.6532,-2.6496,-2.6991,-2.7139,-2.7549,-2.8196,-2.8196,-2.8196,-2.8196,-2.8196,-2.8196,-2.8196,-2.8196,-2.8237,-2.8273,-2.8273,-2.8353,-2.8471,-2.8406,-2.8419,-2.8466,-2.8549,-2.8549,-2.8505,-2.8574,-2.8587,-2.8587,-2.9005,-2.9005,-2.9023,-2.9115,-3.032,-3.1286,-3.1397,-3.2008,-3.2761,-3.3568,-3.4362,-3.5096,-3.5679,-3.4412,-3.3802,-3.4426,-3.245,-3.117,-3.1194,-3.068,-3.0076,-2.9382,-2.9523,-2.9514,-2.9326,-2.9324,-2.9217,-2.9021,-2.9017,-2.9005,-2.9005,-2.9005,-2.9005,-2.9005,-2.9005,-2.9005,-2.9005,-2.9005,-2.9824,-3.114,-3.1342,-3.1017,-3.065,-3.2161,-3.2729,-3.2729,-3.2729,-3.2296,-3.1832,-3.2639,-3.2966,-3.3079,-3.3068,-3.3251,-3.3334,-3.2511,-3.1762,-3.113,-3.0819,-3.0064,-2.9283,-2.9093,-2.9033,-2.901,-2.8934,0.0,-2.8881,-2.881,0.0,-2.8767,-2.8676,0.0,0.0,-2.8458,-2.7943,-2.7755,-2.8491,-2.8587,-2.884,-2.9559,-2.9094,-2.8928,-2.9489,-2.8883,-2.8407,-2.8304,-2.8147,-2.775,-2.7045,-2.7603,-2.7643,-2.7027,-2.7678,-2.8106,-2.8196,-2.8196,-2.8196,-2.8196,-2.8196,-2.8196,-2.8196,-2.8196,-2.8196,-2.8209,-2.8209,-2.8246,-2.8327,-2.8313,-2.8313,-2.834,-2.8453,-2.8523,-2.8505,-2.8574,-2.8562,-2.8505,-2.9005,-2.9005,-2.9152,-2.961,-3.0246,-3.1017,-3.1953,-3.3605,-3.4688,-3.4509,-3.5642,-3.6413,-3.6303,-3.522,-3.4637,-3.4968,-3.366,-3.2596,-3.2137,-3.1427,-3.0879,-3.0528,-2.9695,-2.9428,-2.9809,-2.9366,-2.9071,-2.9005,-2.9005,-2.9005,0.0,0.0,-2.9005,-2.9023,-2.9482,-2.9702,-2.9702,-2.9702,-3.0099,-3.0705,-3.0705,-3.0479,-3.0369,-3.2478,-3.3005,-3.2528,-3.2063,-3.1678,-3.1391,-3.1372,-3.2093,-3.292,-3.2549,-3.32,-3.3872,-3.2599,-3.1987,-3.1469,-3.0289,-2.9726,-2.9395,-2.9078,-2.91,-2.9138,-2.8987,-2.8952,-2.894,-2.8917,0.0,0.0,0.0,0.0,0.0,0.0,-2.7835,-2.7901,-2.856,-2.8625,-2.8726,-2.9065,-2.8799,-2.8719,-2.8993,-2.8657,-2.8375,-2.8313,-2.8273,-2.8089,-2.7727,-2.8017,-2.8053,-2.771,-2.8017,-2.8196,-2.8196,-2.8196,-2.8196,-2.8196,-2.8196,-2.8196,-2.8196,-2.8196,-2.8196,-2.8196,-2.8196,-2.8237,-2.83,-2.8264,-2.8259,-2.8313,-2.8367,-2.8419,-2.8445,-2.8523,-2.8518,-2.8492,-2.9005,-2.9005,-2.9189,-2.9757,-3.0246,-3.1146,-3.2986,-3.4798,-3.5881,-3.5701,-3.6743,-3.7364,-3.7,-3.6211,-3.5775,-3.5995,-3.5092,-3.4247,-3.3647,-3.2632,-3.1966,-3.1733,-3.0179,-2.9592,-3.0191,-2.9409,-2.9005,-2.9005,-2.9005,-2.9005,0.0,0.0,-2.9005,-2.9042,-2.9831,-3.021,-3.021,-3.0448,-3.0668,-3.087,-3.087,-3.0949,-3.1247,-3.2598,-3.2766,-3.2173,-3.1347,-3.0925,-3.0687,-3.032,-3.1113,-3.2173,-3.1807,-3.2635,-3.3521,-3.236,-3.1854,-3.1364,-3.0025,-2.9533,-2.9345,-2.9067,-2.9104,-2.9174,-2.9021,-2.9005,-2.9005,-2.9005,-2.8952,0.0,0.0,0.0,-2.7893,-2.7956,0.0,-2.8003,-2.8634,-2.8687,-2.8637,-2.86,-2.86,-2.8574,-2.8536,-2.8505,-2.844,-2.834,-2.8313,-2.8259,-2.8196,-2.8196,-2.8196,-2.8196,-2.8196,-2.8196,-2.8196,-2.8196,-2.8196,-2.8196,-2.8196,-2.8196,-2.8196,-2.8196,-2.8196,-2.8196,-2.8196,-2.8223,-2.8259,-2.8223,-2.8237,-2.8273,-2.8273,-2.8313,-2.838,-2.8445,-2.8471,-2.8458,-2.9005,-2.9005,-2.9005,-2.9023,-3.0338,-3.2173,-3.4564,-3.4986,-3.561,-3.7217,-3.7474,-3.7786,-3.8542,-3.7915,-3.7731,-3.8505,-3.7129,-3.6211,-3.6174,-3.4633,-3.3385,-3.2601,-3.1005,-3.0173,-3.021,-2.9409,-2.9005,-2.9005,-2.9005,-2.9005,0.0,0.0,-2.9005,-2.9042,-2.9831,-3.021,-3.0246,-3.1017,-3.1806,-3.2509,-3.2509,-3.2947,-3.3424,-3.1942,-3.1407,-3.1342,-3.0522,-2.9739,-2.9189,-2.9941,-3.0246,-3.0424,-3.1189,-3.1639,-3.1883,-3.1808,-3.121,-3.0545,-3.057,-2.9769,-2.8922,-2.8994,-2.9005,-2.9017,-2.9005,-2.9005,-2.9005,-2.9005,-2.9005,-2.8987,-2.8968,-2.8338,-2.8033,-2.8752,-2.821,0.0,0.0,-2.8785,-2.8737,-2.8612,-2.86,-2.86,-2.8587,-2.8549,-2.8471,-2.8393,-2.834,-2.8259,-2.8196,-2.8196,-2.8196,-2.8196,-2.8196,-2.8196,-2.8196,-2.8196,-2.8196,-2.8196,-2.8196,-2.8196,-2.8196,-2.8196,-2.8196,-2.8196,-2.8196,-2.8196,-2.8196,-2.8196,-2.8196,-2.8196,-2.8196,-2.825,-2.8313,-2.8367,-2.8353,-2.8313,-3.0595,-3.0595,-3.0246,-2.9189,-2.9886,-3.1421,-3.3844,-3.5147,-3.6248,-3.7364,-3.797,-3.8395,-3.867,-3.8469,-3.8395,-3.8689,-3.8193,-3.7661,-3.7125,-3.5532,-3.4729,-3.5037,-3.243,-3.1494,-3.2559,-3.076,-2.9787,-2.9787,-2.9262,-2.9005,0.0,0.0,0.0,-2.9042,-2.9831,-3.0503,-3.0999,-3.1286,-3.1861,-3.2601,-3.2496,-3.2958,-3.3588,-3.2442,-3.2067,-3.2023,-3.1166,-3.0722,-3.0558,-3.0782,-3.0861,-3.0916,-3.1172,-3.1365,-3.1384,-3.0949,-3.0624,-3.0313,-2.9765,-2.9416,-2.918,-2.898,-2.9037,-2.9115,-2.901,-2.9005,-2.9005,-2.9005,-2.9005,-2.9005,-2.9005,-2.8883,-2.8827,-2.895,-2.8809,-2.8728,0.0,-2.8324,-2.8124,-2.8615,-2.8625,-2.86,-2.86,-2.8574,-2.8549,-2.8471,-2.8406,-2.8345,-2.8259,-2.8223,-2.8196,-2.8196,-2.8196,-2.8196,-2.8196,-2.8196,-2.8196,-2.8196,-2.8196,-2.8196,-2.8196,-2.8196,-2.8196,-2.8196,-2.8196,-2.8196,-2.8196,-2.8196,-2.8196,-2.8196,-2.8196,-2.8209,-2.825,-2.83,-2.8313,-2.83,-3.147,-3.1397,-3.1072,-3.0026,-3.076,-3.221,-3.4357,-3.5844,-3.7033,-3.7823,-3.8377,-3.8707,-3.8707,-3.8707,-3.8707,-3.8707,-3.8707,-3.8487,-3.797,-3.6652,-3.6138,-3.6703,-3.4119,-3.3036,-3.377,-3.2008,-3.0779,-3.021,-2.9684,-2.928,0.0,0.0,0.0,0.0,-3.0136,-3.0907,-3.1452,-3.1983,-3.2533,-3.301,-3.288,-3.3149,-3.3546,-3.2984,-3.2643,-3.2391,-3.1503,-3.1224,-3.125,-3.1211,-3.1203,-3.1149,-3.087,-3.0786,-3.0704,-2.9983,-2.9773,-2.9685,-2.9147,-2.9071,-2.9097,-2.891,-2.8968,-2.9041,-2.8975,-2.8959,-2.8947,-2.897,-2.8952,-2.8952,-2.8952,-2.9093,-2.916,-2.901,-2.9071,-2.9093,0.0,-2.8401,-2.8172,-2.8676,-2.8408,-2.8292,-2.8582,-2.86,-2.8574,-2.8523,-2.8432,-2.8367,-2.83,-2.8237,-2.8196,-2.8196,-2.8196,-2.8196,-2.8196,-2.8196,-2.8196,-2.8196,-2.8196,-2.8196,-2.8196,-2.8196,-2.8196,-2.8196,-2.8196,-2.8196,-2.8196,-2.8196,-2.8196,-2.8196,-2.8196,-2.8126,-2.8039,-2.8205,-2.8191,-2.8077,-3.1733,-3.1617,-3.1635,-3.1635,-3.2797,-3.4321,-3.6083,-3.6978,-3.7749,-3.8597,-3.8707,-3.8707,-3.8707,-3.8707,-3.8707,-3.8707,-3.8707,-3.8707,-3.8707,-3.7936,-3.7529,-3.7566,-3.5973,-3.4729,-3.399,-3.3109,-3.1904,-3.0375,-3.0265,-2.9812,0.0,0.0,0.0,0.0,-3.0632,-3.136,-3.1494,-3.2993,-3.3703,-3.378,-3.3661,-3.3549,-3.3477,-3.3422,-3.3051,-3.2433,-3.1599,-3.1313,-3.1313,-3.1313,-3.1276,-3.1131,-3.0347,-3.0068,-2.9849,-2.9059,-2.8785,-2.8706,-2.8773,-2.8749,-2.8706,-2.8773,-2.8785,-2.881,-2.8881,-2.8846,-2.881,-2.8893,-2.8905,-2.8905,-2.8905,-2.894,-2.8994,-2.8994,-2.9005,-2.9005,-2.9005,-2.8904,-2.8833,-2.8798,-2.7979,-2.7713,-2.8527,-2.86,-2.8574,-2.8505,-2.8445,-2.8384,-2.8313,-2.825,-2.8196,-2.8196,-2.8196,-2.8196,-2.8196,-2.8196,-2.8196,-2.8196,-2.8196,-2.8196,-2.8196,-2.8182,-2.8182,-2.8196,-2.8182,-2.8182,-2.8196,-2.8196,-2.8196,-2.8196,-2.8196,-2.7996,-2.7745,-2.8039,-2.7954,-2.7642,-3.4124,-3.4596,-3.5037,-3.5037,-3.3862,-3.388,-3.6758,-3.6868,-3.711,-3.8524,-3.8707,-3.8707,-3.8707,-3.8707,-3.8707,-3.8707,-3.8707,-3.8707,-3.8707,-3.7936,-3.7768,-3.8377,-3.6835,-3.6156,-3.6538,-3.4541,-3.3293,-3.2889,-3.1091,-3.0099,-2.9879,0.0,0.0,0.0,-3.0063,-3.0834,-3.1458,-3.2407,-3.3113,-3.3577,-3.3534,-3.3524,-3.3477,-3.3422,-3.3339,-3.3207,-3.2936,-3.2863,-3.2906,-3.2849,-3.2436,-3.191,-3.1692,-3.0861,-2.9888,-2.9631,-2.9141,-2.8682,-2.8662,-2.8637,-2.865,-2.8724,-2.8737,-2.8731,-2.881,-2.881,-2.8798,-2.8822,-2.8822,-2.8822,-2.8822,-2.8881,-2.8929,-2.8929,-2.897,-2.9005,-2.9005,-2.8381,-2.8147,-2.8725,-2.7979,-2.7713,-2.8527,-2.86,-2.8587,-2.8574,-2.8523,-2.8445,-2.8367,-2.8313,-2.825,-2.8196,-2.8196,-2.8196,-2.8196,-2.8196,-2.8196,-2.8196,-2.8196,-2.8196,-2.8182,-2.7936,-2.795,-2.8182,-2.7936,-2.7965,-2.8196,-2.8196,-2.8196,-2.8196,-2.8196,-2.7996,-2.7686,-2.7522,-2.74,-2.7322,-3.5628,-3.5973,-3.6413,-3.6758,-3.5661,-3.5367,-3.7217,-3.7404,-3.7679,-3.8579,-3.8707,-3.8707,-3.8707,-3.8707,-3.8707,-3.8707,-3.8707,-3.8707,-3.8707,-3.8267,-3.823,-3.8689,-3.7826,-3.7404,-3.7492,-3.5803,-3.4523,-3.3807,-3.1733,-3.054,-3.0173,0.0,0.0,-2.906,-3.021,-3.098,-3.1458,-3.2554,-3.32,-3.3509,-3.3509,-3.3495,0.0,-3.3408,-3.3422,-3.3452,-3.3408,-3.3422,-3.3452,-3.3408,-3.3103,-3.2651,-3.2306,-3.161,-3.0839,-3.045,-3.0028,-2.9696,-2.9658,-2.9391,-2.9132,-2.917,-2.8916,-2.8675,-2.8749,-2.8737,-2.8724,-2.8749,-2.8761,-2.8761,-2.8761,-2.8846,-2.8917,-2.894,-2.894,-2.897,-2.897,-2.8486,-2.8275,-2.8707,-2.83,-2.813,-2.8563,-2.8274,-2.8219,-2.8582,-2.8224,-2.8093,-2.8375,-2.834,-2.8259,-2.8196,-2.8196,-2.8196,-2.8196,-2.8196,-2.8196,-2.8196,-2.8196,-2.8196,-2.8182,-2.7847,-2.7803,-2.7965,-2.7774,-2.7821,-2.7979,-2.814,-2.8196,-2.8168,-2.7882,-2.7659,-2.7413,-2.694,-2.6858,-2.6956,-3.6578,-3.6633,-3.6945,-3.7547,-3.7731,-3.7804,-3.7804,-3.8414,-3.8909,-3.9001,-3.9019,-3.9019,-3.9019,-3.9019,-3.8982,-3.8872,-3.8854,-3.8817,-3.8707,-3.8707,-3.8707,-3.8707,-3.8707,-3.8377,-3.7676,-3.6868,-3.5642,-3.3972,-3.2339,-3.1091,0.0,0.0,-2.9005,-2.9078,-3.0577,-3.1347,-3.1634,-3.3071,-3.3619,-3.3495,-3.3495,-3.3452,-3.3393,-3.3393,-3.3393,-3.3393,-3.3393,-3.3393,-3.3393,-3.3393,-3.3393,-3.3284,-3.2578,-3.227,-3.2053,-3.1361,-3.1089,-3.0998,-3.0998,-3.0491,-2.9929,-2.9821,-2.9264,-2.8739,-2.8705,-2.865,-2.8612,-2.8669,-2.87,-2.87,-2.87,-2.8688,-2.874,-2.8805,-2.8782,-2.8729,-2.8729,-2.8761,-2.8761,-2.8724,-2.8682,0.0,-2.86,-2.7966,-2.7857,-2.8545,-2.7898,-2.7745,-2.8375,-2.834,-2.8273,-2.8196,-2.8196,-2.8196,-2.8196,-2.8196,-2.8196,-2.8196,-2.8196,-2.8196,-2.8182,-2.7821,-2.7672,-2.7701,-2.7612,-2.758,-2.7672,-2.7996,-2.814,-2.8067,-2.7446,-2.7165,-2.7053,-2.6469,-2.6417,-2.659,-3.7327,-3.8374,-3.9093,-3.8579,-3.9038,-3.9494,-3.9494,-3.9588,-3.9937,-4.0581,-4.0673,-4.0673,-4.0673,-4.0673,-4.0414,-3.9753,-3.968,-3.9405,-3.8744,-3.8707,-3.8707,-3.8707,-3.8707,-3.8634,-3.8487,-3.7698,-3.6468,-3.4784,-3.317,-3.1641,-3.0173,0.0,-2.9005,-2.9042,-2.9989,-3.1089,-3.2301,-3.3218,-3.3534,-3.3408,-3.3408,-3.3408,-3.3393,-3.3393,-3.3393,-3.3393,-3.3393,-3.3393,-3.3393,-3.3393,-3.3393,-3.3375,-3.323,-3.2723,-3.2162,-3.2035,-3.151,-3.0998,-3.0998,-3.0908,-3.0636,-2.9965,-2.9694,-2.9422,-2.8757,-2.8612,-2.86,-2.8612,-2.8612,-2.8612,-2.8612,-2.8143,-2.7772,-2.783,-2.7848,-2.7818,-2.7818,-2.8336,-2.8706,-2.8694,-2.865,-2.8612,-2.86,-2.8473,-2.8455,-2.86,-2.846,-2.8379,-2.8393,-2.838,-2.8331,-2.8196,-2.8196,-2.8196,-2.8196,-2.8196,-2.8196,-2.8196,-2.8196,-2.8196,-2.8168,-2.7585,-2.7446,-2.7672,-2.7116,-2.702,-2.7322,-2.7657,-2.7789,-2.7745,-2.7353,-2.7037,-2.6775,-2.6657,-2.6469,-2.6292,-3.9368,-3.9643,-3.99,-3.9955,-4.0267,-4.0671,-4.1075,-4.1497,-4.1607,-4.115,-4.1095,-4.1095,-4.1095,-4.1095,-4.093,-4.0561,-4.0139,-3.9735,-3.935,-3.8927,-3.8707,-3.8707,-3.8707,-3.8707,-3.8707,-3.7915,-3.689,-3.5665,-3.361,-3.199,-3.0797,-2.9574,-2.9005,-2.9078,-3.0674,-3.2015,-3.3118,-3.3868,-3.3891,-3.3452,-3.3408,-3.3393,-3.3393,-3.3393,-3.3393,-3.3393,-3.3393,-3.3393,-3.3393,-3.3393,-3.3393,-3.3393,-3.3393,-3.314,-3.2814,-3.2814,-3.2542,-3.2234,-3.2234,-3.1926,-3.1419,-3.0618,-3.011,-2.9603,-2.8781,-2.86,-2.86,-2.86,-2.86,-2.8612,-2.865,-2.836,-2.8009,-2.7668,-2.7565,-2.7541,-2.7541,-2.781,-2.8191,-2.8596,-2.8625,-2.86,-2.86,-2.86,-2.86,-2.86,-2.8176,-2.8059,-2.8375,-2.8384,-2.8304,-2.8196,-2.8196,-2.8196,-2.8196,-2.8196,-2.8196,-2.8196,-2.8196,-2.8112,-2.7922,-2.743,-2.718,-2.7164,-2.6841,-2.6791,-2.6972,-2.7289,-2.7446,-2.7415,-2.7069,-2.6841,-2.6674,-2.6487,-2.6346,-2.6202,-4.1132,-4.0728,-4.0529,-4.0987,-4.1191,-4.1504,-4.2144,-4.2914,-4.3004,-4.1774,-4.1625,-4.159,-4.1592,-4.1609,-4.1535,-4.1354,-4.0765,-4.0341,-4.0175,-3.9405,-3.8964,-3.8964,-3.8799,-3.8707,-3.8707,-3.8065,-3.729,-3.6303,-3.416,-3.2601,-3.1623,-3.0191,-2.958,-2.9825,-3.185,-3.3195,-3.3972,-3.4662,-3.4585,-3.3971,-3.3749,-3.3665,-3.3647,-3.3465,-3.3393,-3.3393,-3.3393,-3.3393,-3.3393,-3.3393,-3.3393,-3.3393,-3.3393,-3.3393,-3.3393,-3.3393,-3.3393,-3.3393,-3.3393,-3.294,-3.2252,-3.1469,-3.0654,-2.9839,-2.9047,-2.8726,-2.86,-2.86,-2.86,-2.8612,-2.8675,-2.8397,-2.804,-2.7614,-2.7234,-2.7083,-2.7428,-2.7423,-2.7695,-2.8509,-2.86,-2.86,-2.86,-2.86,-2.86,-2.86,-2.7952,-2.7727,-2.8118,-2.825,-2.8188,-2.7946,-2.7905,-2.7935,-2.8081,-2.7865,-2.7865,-2.8081,-2.8081,-2.7968,-2.7701,-2.7353,-2.7021,-2.6691,-2.6607,-2.6624,-2.6708,-2.6907,-2.7021,-2.7053,-2.6708,-2.659,-2.6555,-2.631,-2.6202,-2.6202,-4.1242,-4.1579,-4.1748,-4.1034,-4.1477,-4.1937,-4.2028,-4.2721,-4.3249,-4.326,-4.3277,-4.326,-4.3191,-4.3243,-4.2949,-4.2167,-4.207,-4.1772,-4.104,-4.023,-3.979,-3.979,-3.9093,-3.8707,-3.8707,-3.8634,-3.7845,-3.6303,-3.5279,-3.3995,-3.2472,-3.1586,-3.153,-3.2203,-3.3159,-3.3966,-3.4669,-3.5439,-3.5701,-3.5512,-3.4787,-3.4498,-3.4407,-3.3683,-3.3393,-3.3393,-3.3393,-3.3393,-3.3393,-3.3393,-3.3393,-3.3393,-3.3393,-3.3393,-3.3393,-3.3393,-3.3393,-3.3393,-3.3393,-3.3357,-3.3085,-3.2288,-3.1473,-3.069,-2.9875,-2.9119,-2.86,-2.86,-2.86,-2.86,-2.86,-2.7417,-2.665,-2.732,-2.6197,-2.5744,-2.72,-2.7387,-2.7695,-2.8509,-2.86,-2.86,-2.86,-2.86,-2.86,-2.86,-2.8476,-2.807,-2.734,-2.7927,-2.7951,-2.7152,-2.6871,-2.7067,-2.7745,-2.678,-2.678,-2.7745,-2.7745,-2.773,-2.7701,-2.7353,-2.7021,-2.6674,-2.6381,-2.6417,-2.6674,-2.6416,-2.6469,-2.6708,-2.6381,-2.6239,-2.6239,-2.6203,-2.6202,-2.6202,-4.2548,-4.2332,-4.2224,-4.2264,-4.212,-4.2157,-4.2649,-4.2996,-4.3214,-4.3304,-4.3304,-4.3322,-4.3269,-4.3304,-4.3176,-4.283,-4.2461,-4.211,-4.178,-4.0584,-3.99,-3.99,-3.9129,-3.8707,-3.8707,-3.8707,-3.8157,-3.7015,-3.6193,-3.5169,-3.4032,-3.3185,-3.3172,-3.3907,-3.4688,-3.5157,-3.5475,-3.6227,-3.6268,-3.5768,-3.5442,-3.5315,-3.5279,-3.4953,-3.4826,-3.4826,-3.4826,-3.4826,-3.4826,-3.4826,-3.4208,-3.3393,-3.3393,-3.3393,-3.3393,-3.3393,-3.3393,-3.3393,-3.3393,-3.3393,-3.3212,-3.2397,-3.16,-3.0799,-2.9984,-2.9174,-2.86,-2.86,-2.86,-2.86,-2.86,-2.8075,-2.7586,-2.7423,-2.6464,-2.6113,-2.7242,-2.6971,-2.7152,-2.8455,-2.86,-2.8419,-2.793,-2.8328,-2.8401,-2.793,-2.826,-2.834,-2.7939,-2.7712,-2.7616,-2.7727,-2.6525,-2.6479,-2.7683,-2.6651,-2.6545,-2.74,-2.7595,-2.758,-2.74,-2.726,-2.6924,-2.6399,-2.6257,-2.6274,-2.6399,-2.6257,-2.6292,-2.6399,-2.6257,-2.6202,-2.6202,-2.6202,-2.6202,-2.6202,-4.3394,-4.2919,-4.2647,-4.3087,-4.2668,-4.2468,-4.3032,-4.3105,-4.3105,-4.3105,-4.3105,-4.3123,-4.316,-4.3196,-4.3196,-4.316,-4.2758,-4.2482,-4.2482,-4.1287,-4.0455,-4.0217,-3.9431,-3.8899,-3.8643,-3.8643,-3.8365,-3.7796,-3.7037,-3.634,-3.572,-3.481,-3.4797,-3.5511,-3.6015,-3.6368,-3.6606,-3.7138,-3.7015,-3.649,-3.6254,-3.6164,-3.6127,-3.5876,-3.5804,-3.5804,-3.5804,-3.5804,-3.5804,-3.5804,-3.5044,-3.4063,-3.3828,-3.3592,-3.3393,-3.3393,-3.3393,-3.3393,-3.3393,-3.3393,-3.3266,-3.2687,-3.1763,-3.0853,-3.0273,-2.9355,-2.86,-2.86,-2.86,-2.86,-2.86,-2.8419,-2.8147,-2.7803,-2.688,-2.6554,-2.7604,-2.7061,-2.7061,-2.8437,-2.86,-2.8382,-2.7803,-2.8261,-2.8339,-2.776,-2.8185,-2.835,-2.8065,-2.7352,-2.7072,-2.7374,-2.5704,-2.5547,-2.7081,-2.6018,-2.6014,-2.7053,-2.7382,-2.7384,-2.7053,-2.694,-2.6657,-2.6202,-2.6202,-2.6202,-2.6202,-2.6202,-2.6202,-2.6202,-2.6202,-2.6202,-2.6202,-2.6202,-2.6202,-2.6202,-4.3394,-4.3286,-4.3178,-4.3123,-4.2975,-4.2901,-4.2901,-4.2901,-4.2901,-4.2901,-4.2901,-4.2938,-4.3086,-4.316,-4.316,-4.3104,-4.316,-4.3196,-4.3196,-4.2555,-4.1803,-4.0924,-4.0174,-3.9388,-3.8528,-3.851,-3.8491,-3.8491,-3.7814,-3.7474,-3.7456,-3.6505,-3.6425,-3.7071,-3.7071,-3.7477,-3.8172,-3.8191,-3.8191,-3.81,-3.7303,-3.6995,-3.6904,-3.6109,-3.5804,-3.5804,-3.5804,-3.5804,-3.5804,-3.5804,-3.5786,-3.5623,-3.4826,-3.4045,-3.3393,-3.3393,-3.3393,-3.3393,-3.3393,-3.3393,-3.3393,-3.3393,-3.218,-3.0998,-3.0998,-2.9753,-2.86,-2.86,-2.86,-2.86,-2.86,-2.7948,-2.7676,-2.8455,-2.7242,-2.6753,-2.8364,-2.7894,-2.7695,-2.8509,-2.86,-2.86,-2.86,-2.8531,-2.8492,-2.8492,-2.8432,-2.8047,-2.725,-2.6832,-2.6261,-2.5459,-2.4141,0.0,-2.5606,-2.4561,-2.4929,-2.6708,-2.7053,-2.7037,-2.6691,-2.6364,-2.622,-2.6202,-2.6202,-2.6202,-2.6202,-2.6202,-2.6202,-2.6202,-2.6202,-2.6202,-2.6202,-2.6202,-2.6202,-2.6202,-4.3215,-4.316,-4.3105,-4.2994,-4.2938,-4.2901,-4.2901,-4.2901,-4.2901,-4.2901,-4.2901,-4.2919,-4.2957,-4.2975,-4.2994,-4.2975,-4.3068,-4.3123,-4.3123,-4.2449,-4.1937,-4.1646,-4.0896,-4.0093,-3.927,-3.9236,-3.8978,-3.843,-3.8225,-3.8099,-3.8054,-3.7749,-3.7687,-3.7843,-3.7843,-3.7972,-3.8209,-3.8209,-3.8209,-3.8191,-3.7919,-3.7828,-3.7792,-3.7522,-3.7431,-3.7431,-3.7431,-3.7431,-3.7431,-3.7431,-3.7069,-3.6578,-3.6325,-3.5313,-3.4226,-3.4226,-3.3828,-3.3393,-3.3393,-3.3393,-3.3393,-3.3393,-3.218,-3.0998,-3.0998,-2.9753,-2.86,-2.86,-2.86,-2.86,-2.86,-2.8382,-2.831,-2.8563,-2.7713,-2.7387,-2.8455,-2.7912,-2.7495,-2.7749,-2.8274,-2.8165,-2.7061,-2.7898,-2.8276,-2.7716,-2.8101,-2.7968,-2.7174,-2.654,-2.5962,0.0,-2.423,0.0,-2.559,-2.503,-2.5294,-2.6364,-2.6708,-2.6808,-2.6691,-2.659,-2.6434,-2.6202,-2.6202,-2.6202,-2.6202,-2.6202,-2.6202,-2.6202,-2.6202,-2.6202,-2.6202,-2.6202,-2.6202,-2.6202,-4.3123,-4.3104,-4.3049,-4.2919,-4.2901,-4.2901,-4.2901,-4.2901,-4.2901,-4.2901,-4.2901,-4.2901,-4.2901,-4.2901,-4.2901,-4.2901,-4.2975,-4.3012,-4.3012,-4.2632,-4.2286,-4.1977,-4.1467,-4.0847,-4.0028,-4.0009,-3.9609,-3.8808,-3.8547,-3.8368,-3.8307,-3.8307,-3.8257,-3.8209,-3.8209,-3.8209,-3.8209,-3.8209,-3.8209,-3.8209,-3.8209,-3.8209,-3.8209,-3.8209,-3.8209,-3.8209,-3.8209,-3.8209,-3.8209,-3.8209,-3.7865,-3.7448,-3.7448,-3.656,-3.5439,-3.5134,-3.448,-3.3846,-3.3846,-3.3628,-3.3393,-3.3393,-3.2415,-3.1288,-3.069,-2.9536,-2.86,-2.86,-2.86,-2.86,-2.86,-2.86,-2.86,-2.86,-2.8183,-2.8038,-2.8527,-2.8165,-2.7731,-2.7441,-2.7839,-2.7737,-2.6712,-2.7464,-2.7918,-2.7695,-2.804,-2.792,-2.7115,-2.6419,-2.5922,-2.568,-2.4462,-2.4323,-2.5396,-2.5196,-2.5457,-2.6203,-2.6399,-2.6572,-2.6691,-2.6572,-2.6416,-2.6202,-2.6202,-2.6202,-2.6202,-2.6202,-2.6202,-2.6202,-2.6202,-2.6202,-2.6202,-2.6202,-2.6202,-2.6202,-4.3104,-4.3086,-4.3049,-4.2919,-4.2901,-4.2901,-4.2901,-4.2901,-4.2901,-4.2901,-4.2901,-4.2901,-4.2901,-4.2901,-4.2901,-4.2901,-4.2901,-4.2901,-4.2901,-4.303,-4.2741,-4.2014,-4.196,-4.1596,-4.0797,-4.0778,-4.0397,-3.958,-3.8844,-3.8443,-3.8381,-3.8309,-3.8257,-3.8209,-3.8209,-3.8209,-3.8209,-3.8209,-3.8209,-3.8209,-3.8209,-3.8209,-3.8209,-3.8209,-3.8209,-3.8209,-3.8209,-3.8209,-3.8209,-3.8209,-3.8209,-3.8209,-3.8209,-3.7701,-3.6941,-3.6127,-3.5261,-3.4606,-3.4606,-3.4009,-3.3393,-3.3393,-3.2795,-3.1781,-3.0237,-2.9264,-2.869,-2.869,-2.8636,-2.86,-2.86,-2.86,-2.86,-2.86,-2.86,-2.86,-2.86,-2.86,-2.831,-2.7495,-2.7459,-2.7435,-2.7314,-2.7281,-2.7564,-2.8246,-2.8237,-2.7874,-2.7121,-2.6513,-2.6122,-2.6018,-2.4787,-2.4448,-2.5094,-2.516,-2.5507,-2.6202,-2.6202,-2.6364,-2.6641,-2.6346,-2.6202,-2.6202,-2.6202,-2.6202,-2.6202,-2.6202,-2.6202,-2.6202,-2.6202,-2.6202,-2.6202,-2.6202,-2.6202,-2.6202,-4.2938,-4.2938,-4.2938,-4.2919,-4.2901,-4.2901,-4.2901,-4.2901,-4.2901,-4.2901,-4.2901,-4.2901,-4.2901,-4.2901,-4.2901,-4.2901,-4.2901,-4.2901,-4.2901,-4.2938,-4.2847,-4.2666,-4.2648,-4.2285,-4.147,-4.1452,-4.1071,-4.0256,-3.9512,-3.9149,-3.9132,-3.8497,-3.8225,-3.8209,-3.8209,-3.8209,-3.8209,-3.8209,-3.8209,-3.8209,-3.8209,-3.8209,-3.8209,-3.8209,-3.8209,-3.8209,-3.8209,-3.8209,-3.8209,-3.8209,-3.8209,-3.8209,-3.8209,-3.8082,-3.7756,-3.6959,-3.5711,-3.4606,-3.4606,-3.4009,-3.3393,-3.3393,-3.2795,-3.1926,-3.0944,-3.0092,-2.9518,-2.9518,-2.9029,-2.86,-2.86,-2.86,-2.86,-2.86,-2.86,-2.86,-2.86,-2.86,-2.831,-2.7495,-2.7911,-2.7982,-2.7355,-2.7746,-2.8116,-2.8282,-2.8237,-2.8124,-2.7928,-2.7305,-2.6402,-2.5215,-2.5409,-2.5389,-2.511,-2.5656,-2.602,-2.6202,-2.6202,-2.6239,-2.6328,-2.6239,-2.6202,-2.6202,-2.6202,-2.6202,-2.6202,-2.6202,-2.6202,-2.6202,-2.6202,-2.6202,-2.6202,-2.6202,-2.6202,-2.6202,-4.2901,-4.2901,-4.2901,-4.2901,-4.2901,-4.2901,-4.2901,-4.2901,-4.2901,-4.2901,-4.2901,-4.2901,-4.2901,-4.2901,-4.2901,-4.2901,-4.2901,-4.2901,-4.2901,-4.2901,-4.2901,-4.2901,-4.2901,-4.2701,-4.2266,-4.2248,-4.185,-4.1053,-4.0293,-3.9894,-3.9894,-3.9097,-3.8752,-3.8734,-3.8372,-3.8209,-3.8209,-3.8209,-3.8209,-3.8209,-3.8209,-3.8209,-3.8209,-3.8209,-3.8209,-3.8209,-3.8209,-3.8209,-3.8209,-3.8209,-3.8209,-3.8209,-3.8209,-3.8209,-3.8118,-3.7683,-3.6669,-3.562,-3.5258,-3.457,-3.3864,-3.3502,-3.2795,-3.2089,-3.1636,-3.0926,-3.0237,-2.9875,-2.9445,-2.9047,-2.8672,-2.86,-2.8562,-2.8396,-2.8365,-2.8331,-2.821,-2.8183,-2.7866,-2.7005,-2.7246,-2.7299,-2.6805,-2.7077,-2.7427,-2.7768,-2.7745,-2.7806,-2.795,-2.7476,-2.6818,-2.599,-2.604,-2.5933,-2.5607,-2.5987,-2.6202,-2.6202,-2.6202,-2.6202,-2.6202,-2.6202,-2.6202,-2.6202,-2.6202,-2.6202,-2.6202,-2.6202,-2.6202,-2.6202,-2.6202,-2.6202,-2.6202,-2.6202,-2.6202,-2.6202,-4.2901,-4.2901,-4.2901,-4.2901,-4.2901,-4.2901,-4.2901,-4.2901,-4.2901,-4.2901,-4.2901,-4.2901,-4.2901,-4.2901,-4.2901,-4.2901,-4.2901,-4.2901,-4.2901,-4.2901,-4.2901,-4.2901,-4.2901,-4.2901,-4.2901,-4.2901,-4.2574,-4.1868,-4.1071,-4.0673,-4.0655,-3.9912,-3.9568,-3.9532,-3.8844,-3.8553,-3.8553,-3.8553,-3.8553,-3.8553,-3.8553,-3.8553,-3.8553,-3.8553,-3.848,-3.839,-3.839,-3.8299,-3.8209,-3.8209,-3.8209,-3.8209,-3.8209,-3.8209,-3.8209,-3.8209,-3.772,-3.7013,-3.62,-3.5297,-3.4407,-3.361,-3.2886,-3.2379,-3.2379,-3.1763,-3.0998,-3.031,-3.0074,-2.9771,-2.9088,-2.8853,-2.8709,-2.85,-2.8263,-2.8059,-2.7886,-2.7739,-2.7376,-2.6589,-2.6458,-2.6417,-2.6286,-2.6271,-2.6534,-2.7145,-2.7197,-2.7322,-2.7612,-2.7307,-2.7117,-2.7117,-2.6572,-2.6257,-2.6202,-2.6202,-2.6202,-2.6202,-2.6202,-2.6202,-2.6202,-2.6202,-2.6185,-2.6168,-2.6185,-2.6185,-2.6168,-2.6185,-2.6185,-2.6168,-2.6168,-2.6168,-2.6168,-2.6168,-2.6168,-2.6202,-4.2901,-4.2901,-4.2901,-4.2901,-4.2901,-4.2901,-4.2901,-4.2901,-4.2901,-4.2901,-4.2901,-4.2901,-4.2901,-4.2901,-4.2901,-4.2901,-4.2901,-4.2901,-4.2901,-4.2901,-4.2901,-4.2901,-4.2901,-4.2901,-4.2901,-4.2901,-4.2847,-4.2701,-4.1904,-4.1506,-4.1506,-4.0691,-4.0329,-4.0311,-4.0184,-4.0148,-4.0148,-4.0148,-4.0148,-4.0148,-4.0148,-4.0148,-4.0148,-4.0148,-3.9767,-3.9206,-3.9206,-3.8788,-3.8209,-3.8209,-3.8209,-3.8209,-3.8209,-3.8209,-3.8209,-3.8209,-3.8118,-3.7846,-3.7031,-3.5729,-3.4407,-3.361,-3.3302,-3.3212,-3.3212,-3.2596,-3.1981,-3.1854,-3.1288,-3.0781,-3.064,-3.0061,-2.9733,-3.0062,-2.898,-2.8223,-2.8574,0.0,-2.7475,-2.7337,-2.7217,-2.7143,-2.7113,-2.707,-2.7092,-2.718,-2.7197,-2.7228,-2.7276,-2.6956,-2.6775,-2.6775,-2.6691,-2.6486,-2.6203,-2.6202,-2.6202,-2.6202,-2.6202,-2.6202,-2.6202,-2.6202,-2.615,-2.6045,-2.615,-2.615,-2.6045,-2.615,-2.6115,-2.6026,-2.6026,-2.6026,-2.6026,-2.6026,-2.6097,-2.6202,-4.2901,-4.2901,-4.2901,-4.2901,-4.2901,-4.2901,-4.2901,-4.2901,-4.2901,-4.2901,-4.2901,-4.2901,-4.2901,-4.2901,-4.2901,-4.2901,-4.2901,-4.2901,-4.2901,-4.2901,-4.2901,-4.2901,-4.2901,-4.2901,-4.2901,-4.2901,-4.2901,-4.2901,-4.252,-4.2357,-4.2339,-4.1506,-4.1144,-4.1126,-4.0691,-4.0492,-4.0492,-4.0492,-4.0492,-4.0492,-4.0492,-4.0492,-4.0492,-4.0492,-4.0293,-4.0003,-4.0003,-3.9749,-3.9441,-3.9441,-3.917,-3.8861,-3.8861,-3.8553,-3.8209,-3.8209,-3.7901,-3.7466,-3.7104,-3.582,-3.4516,-3.4154,-3.3719,-3.3393,-3.3393,-3.3103,-3.2723,-3.2288,-3.189,-3.1524,-3.1089,-3.0708,-3.04,-3.0244,-2.9263,-2.8466,-2.8249,-2.7515,-2.6971,-2.6872,-2.6807,-2.6741,-2.6708,-2.6674,-2.6657,-2.6657,-2.6657,-2.6742,-2.6923,-2.6607,-2.6504,-2.6691,-2.6521,-2.6364,-2.6202,-2.6202,-2.6202,-2.6202,-2.6202,-2.6202,-2.6202,-2.6115,-2.6063,-2.5992,-2.6063,-2.6063,-2.6026,-2.615,-2.6115,-2.5992,-2.5992,-2.599,-2.5954,-2.599,-2.6045,-2.6097,-4.2901,-4.2901,-4.2901,-4.2901,-4.2901,-4.2901,-4.2901,-4.2901,-4.2901,-4.2901,-4.2901,-4.2901,-4.2901,-4.2901,-4.2901,-4.2901,-4.2901,-4.2901,-4.2901,-4.2901,-4.2901,-4.2901,-4.2901,-4.2901,-4.2901,-4.2901,-4.2901,-4.2901,-4.2901,-4.2901,-4.2901,-4.2266,-4.1976,-4.194,-4.1343,-4.1071,-4.1071,-4.1071,-4.1071,-4.1071,-4.1071,-4.1071,-4.1071,-4.1071,-4.0926,-4.0782,-4.0782,-4.0655,-4.0492,-4.0492,-4.013,-3.9659,-3.9659,-3.9097,-3.848,-3.848,-3.7919,-3.7249,-3.7049,-3.6107,-3.5077,-3.4682,-3.4154,-3.3628,-3.3447,-3.3334,-3.309,-3.2462,-3.2244,-3.1987,-3.1376,-3.1106,-3.0841,-3.0443,0.0,-2.8582,-2.8026,-2.7161,-2.652,-2.6313,-2.6278,-2.6276,-2.6203,-2.6202,-2.6202,-2.6202,-2.6202,-2.6311,-2.6572,-2.6346,-2.6311,-2.6572,-2.6329,-2.6202,-2.6202,-2.6202,-2.6202,-2.6202,-2.6202,-2.6202,-2.6202,-2.6063,-2.599,-2.599,-2.599,-2.5956,-2.5937,-2.6061,-2.6061,-2.5937,-2.5937,-2.5899,-2.5879,-2.6098,-2.6219,-2.6255,-4.2901,-4.2901,-4.2901,-4.2901,-4.2901,-4.2901,-4.2901,-4.2901,-4.2901,-4.2901,-4.2901,-4.2901,-4.2901,-4.2901,-4.2901,-4.2901,-4.2901,-4.2901,-4.2901,-4.2901,-4.2901,-4.2901,-4.2901,-4.2901,-4.2901,-4.2901,-4.2901,-4.2901,-4.2901,-4.2901,-4.2901,-4.2847,-4.281,-4.281,-4.2756,-4.272,-4.272,-4.272,-4.272,-4.272,-4.272,-4.272,-4.272,-4.272,-4.2266,-4.1614,-4.1614,-4.1126,-4.0492,-4.0492,-4.0456,-4.042,-4.042,-3.9912,-3.9297,-3.9297,-3.8735,-3.7955,-3.7194,-3.6904,-3.6469,-3.4969,-3.457,-3.4317,-3.3574,-3.3114,-3.2827,-3.2773,-3.2412,-3.2091,-3.2021,-3.1408,-3.1027,-3.1419,0.0,0.0,-2.8681,-2.7444,-2.6468,-2.6313,-2.6258,-2.6203,-2.6202,-2.6202,-2.6202,-2.6202,-2.6202,-2.6203,-2.6239,-2.6203,-2.6203,-2.6239,-2.6203,-2.6202,-2.6202,-2.6202,-2.6202,-2.6202,-2.6202,-2.6202,-2.6202,-2.6063,-2.5972,-2.5915,-2.5915,-2.5844,-2.5738,-2.5862,-2.5828,-2.5719,-2.5719,-2.5719,-2.5801,-2.6482,-2.6858,-2.6994,-4.2901,-4.2901,-4.2901,-4.2901,-4.2901,-4.2901,-4.2901,-4.2901,-4.2901,-4.2901,-4.2901,-4.2901,-4.2901,-4.2901,-4.2901,-4.2901,-4.2901,-4.2901,-4.2901,-4.2901,-4.2901,-4.2901,-4.2901,-4.2901,-4.2901,-4.2901,-4.2901,-4.2901,-4.2901,-4.2901,-4.2901,-4.2901,-4.2901,-4.2901,-4.2901,-4.2901,-4.2901,-4.2901,-4.2901,-4.2901,-4.2901,-4.2901,-4.2901,-4.2901,-4.2701,-4.2448,-4.2448,-4.2248,-4.1995,-4.1995,-4.1669,-4.1234,-4.1234,-4.0709,-4.0003,-3.9532,-3.8843,-3.8068,-3.7467,-3.7156,-3.685,-3.6236,-3.5349,-3.4519,-3.4208,-3.3458,-3.2795,-3.2795,-3.2434,-3.2092,-3.2092,-3.183,-3.1549,-3.1495,0.0,-2.8852,-2.863,-2.7388,-2.6433,-2.6258,-2.6221,-2.6202,-2.6202,-2.6202,-2.6202,-2.6202,-2.6202,-2.6202,-2.6202,-2.6202,-2.6202,-2.6202,-2.6202,-2.6202,-2.6202,-2.6202,-2.6202,-2.6202,-2.6202,-2.6202,-2.6219,-2.6451,-2.6327,-2.5914,-2.6297,-2.6178,-2.5752,-2.6302,-2.6461,-2.6431,-2.6886,-2.7013,-2.6987,-2.7355,-2.7532,-2.7591,-4.2901,-4.2901,-4.2901,-4.2901,-4.2901,-4.2901,-4.2901,-4.2901,-4.2901,-4.2901,-4.2769,-4.2749,-4.2882,-4.2768,-4.2731,-4.2882,-4.2901,-4.2901,-4.2901,-4.2901,-4.2901,-4.2901,-4.2901,-4.2901,-4.2901,-4.2901,-4.2901,-4.2901,-4.2901,-4.2901,-4.2901,-4.2901,-4.2901,-4.2901,-4.2901,-4.2901,-4.2901,-4.2901,-4.2901,-4.2901,-4.2901,-4.2901,-4.2901,-4.2901,-4.2901,-4.2901,-4.2901,-4.2901,-4.2901,-4.2901,-4.252,-4.2067,-4.2067,-4.1343,-4.0365,-3.9623,-3.8843,-3.8106,-3.7632,-3.7326,-3.7084,-3.6848,-3.6065,-3.5222,-3.4733,-3.3793,-3.2952,-3.2687,-3.2144,-3.1733,-3.1733,-3.1641,-3.1509,-3.1223,-3.019,-2.93,-2.8901,-2.785,-2.7064,-2.6917,-2.6899,-2.6899,-2.6899,-2.6684,-2.6634,-2.6882,-2.6684,-2.6551,-2.6551,-2.6336,-2.6319,-2.6535,-2.6551,-2.6551,-2.6551,-2.6319,-2.6168,-2.615,-2.6381,-2.648,-2.6495,-2.6981,-2.6973,-2.6585,-2.6938,-2.6799,-2.6379,-2.6925,-2.7118,-2.712,-2.7644,-2.7782,-2.7737,-2.8062,-2.8217,-2.8237,-4.2901,-4.2901,-4.2901,-4.2901,-4.2901,-4.2901,-4.2901,-4.2901,-4.2901,-4.2882,-4.2478,-4.2378,-4.2844,-4.2478,-4.2398,-4.2863,-4.2901,-4.2901,-4.2901,-4.29,-4.29,-4.2901,-4.2901,-4.2901,-4.2901,-4.2901,-4.2901,-4.2901,-4.2901,-4.2901,-4.2901,-4.2901,-4.2901,-4.2901,-4.2901,-4.2901,-4.2901,-4.2901,-4.2901,-4.2901,-4.2901,-4.2901,-4.2901,-4.2901,-4.2901,-4.2901,-4.2901,-4.2901,-4.2901,-4.2901,-4.29,-4.2882,-4.2882,-4.1796,-4.0365,-3.9623,-3.8826,-3.8106,-3.7632,-3.7505,-3.7309,-3.6506,-3.6658,-3.658,-3.4971,-3.4026,-3.3284,-3.2458,-3.1564,-3.0912,-3.0892,-3.079,-3.0692,-3.0692,-3.0139,-2.9674,-2.9596,-2.896,-2.8489,-2.8412,-2.8392,-2.8392,-2.8392,-2.7729,-2.7597,-2.8343,-2.7713,-2.7298,-2.7298,-2.6617,-2.6551,-2.73,-2.7298,-2.7298,-2.7298,-2.6584,-2.6148,-2.6025,-2.6749,-2.7111,-2.7128,-2.7669,-2.7939,-2.799,-2.7786,-2.7721,-2.7705,-2.7721,-2.7721,-2.7721,-2.7721,-2.7721,-2.7818,-2.853,-2.889,-2.8986,-4.2901,-4.2901,-4.2901,-4.2901,-4.2901,-4.2901,-4.2901,-4.2901,-4.2769,-4.2458,-4.2297,-4.2239,-4.2398,-4.2279,-4.2398,-4.2863,-4.2901,-4.2901,-4.2901,-4.2595,-4.2555,-4.2882,-4.2901,-4.2901,-4.2901,-4.2901,-4.2901,-4.2901,-4.2901,-4.2901,-4.2901,-4.2901,-4.2901,-4.2901,-4.2901,-4.2901,-4.2901,-4.2901,-4.2901,-4.2901,-4.2901,-4.2901,-4.2901,-4.2901,-4.2901,-4.2901,-4.2901,-4.2901,-4.2901,-4.2901,-4.2673,-4.2418,-4.2418,-4.1681,-4.0752,-4.0312,-3.9641,-3.8741,-3.7313,-3.721,-3.7361,-3.6851,-3.6612,-3.6273,-3.5438,-3.4517,-3.3616,-3.2764,-3.1867,-3.1179,-3.0935,-3.0712,-3.0568,-3.0568,-3.0035,-2.9589,-2.9477,-2.8901,-2.8489,-2.8412,-2.8392,-2.8392,-2.8392,-2.8194,-2.816,-2.8376,-2.8194,-2.8061,-2.8061,-2.7862,-2.7845,-2.8061,-2.8061,-2.8061,-2.8061,-2.775,-2.733,-2.6782,-2.7413,-2.7738,-2.7735,-2.8347,-2.8372,-2.7936,-2.8317,-2.8174,-2.7753,-2.8255,-2.8466,-2.8514,-2.9038,-2.9248,-2.9264,-2.9491,-2.9594,-2.9632,-4.2901,-4.2901,-4.2901,-4.2901,-4.2901,-4.2901,-4.2901,-4.2901,-4.2731,-4.2259,-4.2053,-4.1931,-4.1931,-4.1931,-4.2098,-4.2577,-4.2806,-4.2901,-4.2901,-4.2634,-4.2518,-4.2614,-4.2634,-4.2711,-4.29,-4.2901,-4.2901,-4.2901,-4.2901,-4.2901,-4.2901,-4.2901,-4.2901,-4.2901,-4.2901,-4.2901,-4.2901,-4.2901,-4.2901,-4.2901,-4.2901,-4.2901,-4.2901,-4.2901,-4.2901,-4.2901,-4.2901,-4.2901,-4.2863,-4.2692,-4.23,-4.1931,-4.1931,-4.1378,-4.0618,-4.0131,-3.955,-3.8669,-3.6933,-3.6803,-3.7018,-3.6495,-3.6433,-3.6374,-3.5644,-3.4702,-3.3702,-3.2805,-3.1808,-3.1064,-3.0855,-3.0651,-3.0506,-3.0506,-3.0203,-2.9941,-2.9864,-2.9523,-2.9277,-2.9238,-2.9218,-2.9218,-2.9218,-2.8969,-2.8787,-2.8787,-2.8787,-2.8787,-2.8787,-2.8542,-2.8525,-2.8787,-2.8787,-2.8787,-2.8787,-2.8986,-2.8527,-2.7465,-2.8112,-2.8432,-2.8421,-2.9018,-2.9074,-2.8758,-2.9096,-2.8989,-2.8595,-2.9054,-2.9248,-2.9281,-2.9718,-2.9896,-2.9896,-2.9896,-2.977,-2.9621,-4.2844,-4.2863,-4.2863,-4.2806,-4.2844,-4.2882,-4.2844,-4.2863,-4.2711,-4.2198,-4.1782,-4.1481,-4.1437,-4.1437,-4.163,-4.2095,-4.2575,-4.2844,-4.29,-4.2863,-4.2673,-4.2297,-4.2177,-4.2378,-4.2882,-4.2863,-4.2863,-4.2901,-4.2901,-4.2882,-4.2844,-4.2882,-4.2882,-4.2844,-4.2882,-4.2901,-4.2901,-4.2901,-4.2901,-4.2901,-4.2901,-4.2863,-4.2844,-4.2882,-4.2863,-4.2844,-4.2882,-4.2901,-4.2825,-4.2318,-4.1825,-4.1455,-4.1415,-4.092,-4.018,-3.9403,-3.8871,-3.8168,-3.6515,-3.6291,-3.6354,-3.5639,-3.6114,-3.6529,-3.5677,-3.4679,-3.3682,-3.2721,-3.1594,-3.0753,-3.0712,-3.0589,-3.0506,-3.0506,-3.0506,-3.0506,-3.0506,-3.0506,-3.0506,-3.0506,-3.0506,-3.0506,-3.0506,-2.9877,-2.9496,-2.9496,-2.9496,-2.9496,-2.9496,-2.892,-2.8853,-2.9479,-2.9496,-2.9496,-2.9496,-3.0112,-2.9646,-2.8125,-2.8825,-2.9139,-2.91,-2.9648,-2.9924,-2.9995,-2.9924,-2.9896,-2.9896,-2.9896,-2.9896,-2.9896,-2.9896,-2.9896,-2.9896,-2.9896,-2.9598,-2.9227,-4.2418,-4.2653,-4.2673,-4.1931,-4.24,-4.2787,-4.2418,-4.2653,-4.2596,-4.1743,-4.1569,-4.1348,-4.0995,-4.0949,-4.1139,-4.1613,-4.2077,-4.2498,-4.2882,-4.2555,-4.2458,-4.2749,-4.2035,-4.2035,-4.2882,-4.2537,-4.2518,-4.2901,-4.2901,-4.2711,-4.2358,-4.2731,-4.2692,-4.2378,-4.2749,-4.2901,-4.2901,-4.2901,-4.2901,-4.2901,-4.2901,-4.2673,-4.2398,-4.2768,-4.2673,-4.2398,-4.2768,-4.2901,-4.2769,-4.1931,-4.1343,-4.0926,-4.0838,-4.067,-4.032,-3.9203,-3.881,-3.8289,-3.6319,-3.5912,-3.5907,-3.5327,-3.5418,-3.5594,-3.538,-3.4796,-3.4021,-3.3022,-3.1944,-3.1061,-3.0753,-3.0589,-3.0506,-3.0506,-3.0506,-3.0506,-3.0506,-3.0506,-3.0506,-3.0506,-3.0506,-3.0506,-3.0506,-3.0357,-3.0257,-3.0257,-3.0257,-3.0257,-3.0257,-3.0108,-3.0108,-3.0257,-3.0257,-3.0257,-3.0257,-3.0402,-2.9918,-2.8878,-2.9494,-2.9767,-2.9713,-2.9837,-2.9902,-2.9924,-2.9918,-2.9896,-2.9896,-2.9896,-2.9896,-2.9896,-2.9896,-2.9896,-2.9896,-2.9896,-2.9836,-2.9687,-4.2279,-4.2398,-4.234,-4.1613,-4.1909,-4.2221,-4.2198,-4.2418,-4.23,-4.1591,-4.1503,-4.1253,-4.0556,-4.0676,-4.0995,-4.1459,-4.1931,-4.23,-4.2537,-4.2555,-4.2458,-4.2239,-4.1764,-4.1613,-4.1888,-4.1652,-4.1973,-4.2901,-4.2673,-4.2555,-4.2537,-4.2555,-4.2438,-4.2198,-4.2458,-4.2575,-4.2577,-4.2788,-4.2901,-4.2901,-4.2901,-4.2614,-4.2239,-4.2711,-4.2478,-4.1952,-4.2653,-4.2596,-4.2118,-4.141,-4.0808,-4.0353,-4.0286,-4.0237,-3.9974,-3.8986,-3.8574,-3.8065,-3.6394,-3.5842,-3.5661,-3.5211,-3.5152,-3.5198,-3.5198,-3.4421,-3.3512,-3.2939,-3.1813,-3.0841,-3.0634,-3.0547,-3.0506,-3.0506,-3.0506,-3.0506,-3.0506,-3.0506,-3.0506,-3.0506,-3.0506,-3.0506,-3.0506,-3.0506,-3.0506,-3.0506,-3.0506,-3.0506,-3.0506,-3.0506,-3.0506,-3.0506,-3.0506,-3.0506,-3.0506,-3.0506,-3.0203,-2.9632,-2.9945,-3.0033,-2.9896,-2.9896,-2.9896,-2.9896,-2.9896,-2.9896,-2.9896,-2.9896,-2.9896,-2.9896,-2.9896,-2.9896,-2.9896,-2.9896,-2.9748,-2.9364,-4.2177,-4.2074,-4.1909,-4.1348,-4.1393,-4.1591,-4.1909,-4.2032,-4.1909,-4.1437,-4.137,-4.1047,-4.0196,-4.0451,-4.0855,-4.1326,-4.1739,-4.1973,-4.2074,-4.2518,-4.24,-4.1547,-4.1503,-4.1321,-4.0926,-4.0754,-4.1321,-4.2673,-4.2358,-4.2358,-4.2635,-4.234,-4.2157,-4.2074,-4.2074,-4.2115,-4.2236,-4.2614,-4.2825,-4.2882,-4.2806,-4.2498,-4.2115,-4.2498,-4.2098,-4.1459,-4.232,-4.2059,-4.1281,-4.0879,-4.0377,-3.9901,-3.9849,-3.9755,-3.9543,-3.8756,-3.8303,-3.7759,-3.651,-3.5911,-3.5576,-3.5168,-3.5065,-3.5065,-3.5065,-3.4039,-3.3034,-3.2923,-3.1818,-3.0837,-3.0704,-3.0688,-3.0638,-3.0522,-3.0506,-3.0506,-3.0506,-3.0506,-3.0506,-3.0506,-3.0506,-3.0506,-3.0506,-3.0506,-3.0506,-3.0506,-3.0506,-3.0506,-3.0506,-3.0506,-3.0506,-3.0506,-3.0506,-3.0489,-3.0468,-3.0468,-3.038,-3.0167,-3.0167,-3.0076,-2.9896,-2.9896,-2.9896,-2.9896,-2.9896,-2.9896,-2.9896,-2.9896,-2.9896,-2.9896,-2.9896,-2.9896,-2.9896,-2.9896,-2.956,-2.8912,-4.1678,-4.1591,-4.1303,-4.0434,-4.0955,-4.137,-4.1042,-4.1343,-4.1432,-4.0949,-4.0879,-4.0683,-4.0171,-4.0146,-4.036,-4.0832,-4.0949,-4.1162,-4.1569,-4.2035,-4.2074,-4.1525,-4.1503,-4.1459,-4.141,-4.0611,-4.0707,-4.1678,-4.2015,-4.2015,-4.17,-4.2053,-4.1973,-4.1591,-4.1591,-4.1825,-4.2198,-4.2277,-4.2536,-4.2863,-4.2458,-4.2015,-4.1591,-4.1547,-4.119,-4.0791,-4.1326,-4.1168,-4.0696,-4.0521,-4.0204,-3.9849,-3.9633,-3.9616,-3.9518,-3.8541,-3.8223,-3.7851,-3.6423,-3.5999,-3.5791,-3.5112,-3.4923,-3.4923,-3.4923,-3.4369,-3.38,-3.3686,-3.2978,-3.2199,-3.1565,-3.1449,-3.1234,-3.0605,-3.0506,-3.0506,-3.0506,-3.0506,-3.0506,-3.0506,-3.0506,-3.0506,-3.0506,-3.0506,-3.0506,-3.0506,-3.0506,-3.0506,-3.0506,-3.0506,-3.0506,-3.0506,-3.0506,-3.0464,-3.0401,-3.0401,-3.0274,-3.0017,-3.0017,-2.9973,-2.9896,-2.9896,-2.9896,-2.9896,-2.9896,-2.9896,-2.9896,-2.9896,-2.9896,-2.9896,-2.9896,-2.9896,-2.9896,-2.9896,-2.956,-2.9005,-4.1635,-4.1503,-4.119,-4.0254,-4.0434,-4.0754,-4.0802,-4.0972,-4.1042,-4.0825,-4.0802,-4.0628,-4.0146,-4.0096,-4.0196,-4.0402,-4.0652,-4.0896,-4.1111,-4.1565,-4.1609,-4.1116,-4.1094,-4.0995,-4.0713,-4.0328,-4.0303,-4.0713,-4.1185,-4.1455,-4.1503,-4.1455,-4.1298,-4.1094,-4.1094,-4.1208,-4.1455,-4.199,-4.2318,-4.2478,-4.22,-4.1807,-4.137,-4.1241,-4.0726,-4.012,-4.0343,-4.0449,-4.0449,-4.0112,-3.9867,-3.9659,-3.9554,-3.9484,-3.9391,-3.8944,-3.8526,-3.8079,-3.7417,-3.6638,-3.5926,-3.5595,-3.5197,-3.4899,-3.4899,-3.4681,-3.4373,-3.3912,-3.3193,-3.2597,-3.2266,-3.1879,-3.1499,-3.1168,-3.077,-3.0506,-3.0506,-3.0506,-3.0506,-3.0506,-3.0506,-3.0506,-3.0506,-3.0506,-3.0506,-3.0506,-3.0506,-3.0506,-3.0506,-3.0506,-3.0506,-3.0506,-3.0506,-3.0464,-3.0396,-3.0396,-3.0269,-2.9995,-2.9995,-2.9951,-2.9896,-2.9896,-2.9896,-2.9896,-2.9896,-2.9896,-2.9896,-2.9896,-2.9896,-2.9896,-2.9896,-2.9896,-2.9858,-2.956,-2.9097,-2.8591]},{"header":{"parameterUnit":"m.s-1","parameterCategory":1,"la1":30.6,"la2":28.766,"lo1":-90.7593,"lo2":-88.6598,"dy":0.0162,"dx":0.0183,"nx":116,"ny":114,"refTime":"2024-06-01T06:00:00:Z","depth":0,"parameterNumber":3,"parameterNumberName":"V-component_of_WINDS"},"data":[0.0,0.0,0.0,0.0,0.0,0.0,0.0,0.0,0.0,0.0,0.0,0.0,0.0,0.0,0.0,0.0,0.0,0.0,0.0,0.0,0.0,0.0,0.0,0.0,0.0,0.0,0.0,0.0,0.0,0.0,0.0,0.0,0.0,0.0,0.0,0.0,0.0,0.0,0.0,0.0,0.0,0.0,0.0,0.0,0.0,0.0,0.0,0.0,0.0,0.0,0.0,0.0,0.0,0.0,0.0,0.0,0.0,0.0,0.0,0.0,0.0,0.0,0.0,0.0,0.0,0.0,0.0,0.0,0.0,0.0,0.0,0.0,0.0,0.0,0.0,0.0,0.0,0.0,0.0,0.0,0.0,0.0,0.0,0.0,0.0,0.0,0.0,0.0,0.0,0.0,0.0,0.0,0.0,0.0,0.0,0.0,0.0,0.0,0.0,0.0,0.0,0.0,0.0,0.0,0.0,0.0,0.0,0.0,0.0,0.0,0.0,0.0,0.0,0.0,0.0,0.0,0.0,0.0,0.0,0.0,0.0,0.0,0.0,0.0,0.0,0.0,0.0,0.0,0.0,0.0,0.0,0.0,0.0,0.0,0.0,0.0,0.0,0.0,0.0,0.0,0.0,0.0,0.0,0.0,0.0,0.0,0.0,0.0,0.0,0.0,0.0,0.0,0.0,0.0,0.0,0.0,0.0,0.0,0.0,0.0,0.0,0.0,0.0,0.0,0.0,0.0,0.0,0.0,0.0,0.0,0.0,0.0,0.0,0.0,0.0,0.0,0.0,0.0,0.0,0.0,0.0,0.0,0.0,0.0,0.0,0.0,0.0,0.0,0.0,0.0,0.0,0.0,0.0,0.0,0.0,0.0,0.0,0.0,0.0,0.0,0.0,0.0,0.0,0.0,0.0,0.0,0.0,0.0,0.0,0.0,0.0,0.0,0.0,0.0,0.0,0.0,0.0,0.0,0.0,0.0,0.0,0.0,0.0,0.0,0.0,0.0,0.0,0.0,0.0,0.0,0.0,0.0,0.0,0.0,0.0,0.0,0.0,0.0,0.0,0.0,0.0,0.0,0.0,0.0,0.0,0.0,0.0,0.0,0.0,0.0,0.0,0.0,0.0,0.0,0.0,0.0,0.0,0.0,0.0,0.0,0.0,0.0,0.0,0.0,0.0,0.0,0.0,0.0,0.0,0.0,0.0,0.0,0.0,0.0,0.0,0.0,0.0,0.0,0.0,0.0,0.0,0.0,0.0,0.0,0.0,0.0,0.0,0.0,0.0,0.0,0.0,0.0,0.0,0.0,0.0,0.0,0.0,0.0,0.0,0.0,0.0,0.0,0.0,0.0,0.0,0.0,0.0,0.0,0.0,0.0,0.0,0.0,0.0,0.0,0.0,0.0,0.0,0.0,0.0,0.0,0.0,0.0,0.0,0.0,0.0,0.0,0.0,0.0,0.0,0.0,0.0,0.0,0.0,0.0,0.0,0.0,0.0,0.0,0.0,0.0,0.0,0.0,0.0,0.0,0.0,0.0,0.0,0.0,0.0,0.0,0.0,0.0,0.0,0.0,0.0,0.0,0.0,0.0,0.0,0.0,0.0,0.0,0.0,0.0,0.0,0.0,0.0,0.0,0.0,0.0,0.0,0.0,0.0,0.0,0.0,0.0,0.0,0.0,0.0,0.0,0.0,0.0,0.0,0.0,0.0,0.0,0.0,0.0,0.0,0.0,0.0,0.0,0.0,0.0,0.0,0.0,0.0,0.0,0.0,0.0,0.0,0.0,0.0,0.0,0.0,0.0,0.0,0.0,0.0,0.0,0.0,0.0,0.0,0.0,0.0,0.0,0.0,0.0,0.0,0.0,0.0,0.0,0.0,0.0,0.0,0.0,0.0,0.0,0.0,0.0,0.0,0.0,0.0,0.0,0.0,0.0,0.0,0.0,0.0,0.0,0.0,0.0,0.0,0.0,0.0,0.0,0.0,0.0,0.0,0.0,0.0,0.0,0.0,0.0,0.0,0.0,0.0,0.0,0.0,0.0,0.0,0.0,0.0,0.0,0.0,0.0,0.0,0.0,0.0,0.0,0.0,0.0,0.0,0.0,0.0,0.0,0.0,0.0,0.0,0.0,0.0,0.0,0.0,0.0,0.0,0.0,0.0,0.0,0.0,0.0,0.0,0.0,0.0,0.0,0.0,0.0,0.0,0.0,0.0,0.0,0.0,0.0,0.0,0.0,0.0,0.0,0.0,0.0,0.0,0.0,0.0,0.0,0.0,0.0,0.0,0.0,0.0,0.0,0.0,0.0,0.0,0.0,0.0,0.0,0.0,0.0,0.0,0.0,0.0,0.0,0.0,0.0,0.0,0.0,0.0,0.0,0.0,0.0,0.0,0.0,0.0,0.0,0.0,0.0,0.0,0.0,0.0,0.0,0.0,0.0,0.0,0.0,0.0,0.0,0.0,0.0,0.0,0.0,0.0,0.0,0.0,0.0,0.0,0.0,0.0,0.0,0.0,0.0,0.0,0.0,0.0,0.0,0.0,0.0,0.0,0.0,0.0,0.0,0.0,0.0,0.0,0.0,0.0,0.0,0.0,0.0,0.0,0.0,0.0,0.0,0.0,0.0,0.0,0.0,0.0,0.0,0.0,0.0,0.0,0.0,0.0,0.0,0.0,0.0,0.0,0.0,0.0,0.0,0.0,0.0,0.0,0.0,0.0,0.0,0.0,0.0,0.0,0.0,0.0,0.0,0.0,0.0,0.0,0.0,0.0,0.0,0.0,0.0,0.0,0.0,0.0,0.0,0.0,0.0,0.0,0.0,0.0,0.0,0.0,0.0,0.0,0.0,0.0,0.0,0.0,0.0,0.0,0.0,0.0,0.0,0.0,0.0,0.0,0.0,0.0,0.0,0.0,0.0,0.0,0.0,0.0,0.0,0.0,0.0,0.0,0.0,0.0,0.0,0.0,0.0,0.0,0.0,0.0,0.0,0.0,0.0,0.0,0.0,0.0,0.0,0.0,0.0,0.0,0.0,0.0,0.0,0.0,0.0,0.0,0.0,0.0,0.0,0.0,0.0,0.0,0.0,0.0,0.0,0.0,0.0,0.0,0.0,0.0,0.0,0.0,0.0,0.0,0.0,0.0,0.0,0.0,0.0,0.0,0.0,0.0,0.0,0.0,0.0,0.0,0.0,0.0,0.0,0.0,0.0,0.0,0.0,0.0,0.0,0.0,0.0,0.0,0.0,0.0,0.0,0.0,0.0,0.0,0.0,0.0,0.0,0.0,0.0,0.0,0.0,0.0,0.0,0.0,0.0,0.0,0.0,0.0,0.0,0.0,0.0,0.0,0.0,0.0,0.0,0.0,0.0,0.0,0.0,0.0,0.0,0.0,0.0,0.0,0.0,0.0,0.0,0.0,0.0,0.0,0.0,0.0,0.0,0.0,0.0,0.0,0.0,0.0,0.0,0.0,0.0,0.0,0.0,0.0,0.0,0.0,0.0,0.0,0.0,0.0,0.0,0.0,0.0,0.0,0.0,0.0,0.0,0.0,0.0,0.0,0.0,0.0,0.0,0.0,0.0,0.0,0.0,0.0,0.0,0.0,0.0,0.0,0.0,0.0,0.0,0.0,0.0,0.0,0.0,0.0,0.0,0.0,0.0,0.0,0.0,0.0,0.0,0.0,0.0,0.0,0.0,0.0,0.0,0.0,0.0,0.0,0.0,0.0,0.0,0.0,0.0,0.0,0.0,0.0,0.0,0.0,0.0,0.0,0.0,0.0,0.0,0.0,0.0,0.0,0.0,0.0,0.0,0.0,0.0,0.0,0.0,0.0,0.0,0.0,0.0,0.0,0.0,0.0,0.0,0.0,0.0,0.0,0.0,0.0,0.0,0.0,0.0,0.0,0.0,0.0,0.0,0.0,0.0,0.0,0.0,0.0,0.0,0.0,0.0,0.0,0.0,0.0,0.0,0.0,0.0,0.0,0.0,0.0,0.0,0.0,0.0,0.0,0.0,0.0,0.0,0.0,0.0,0.0,0.0,0.0,0.0,0.0,0.0,0.0,0.0,0.0,0.0,0.0,0.0,0.0,0.0,0.0,0.0,0.0,0.0,0.0,0.0,0.0,0.0,0.0,0.0,0.0,0.0,0.0,0.0,0.0,0.0,0.0,0.0,0.0,0.0,0.0,0.0,0.0,0.0,0.0,0.0,0.0,0.0,0.0,0.0,0.0,0.0,0.0,0.0,0.0,0.0,0.0,0.0,0.0,0.0,0.0,0.0,0.0,0.0,0.0,0.0,0.0,0.0,0.0,0.0,0.0,0.0,0.0,0.0,0.0,0.0,0.0,0.0,0.0,0.0,0.0,0.0,0.0,0.0,0.0,0.0,0.0,0.0,0.0,0.0,0.0,0.0,0.0,0.0,0.0,0.0,0.0,0.0,0.0,0.0,0.0,0.0,0.0,0.0,0.0,0.0,0.0,0.0,0.0,0.0,0.0,0.0,0.0,0.0,0.0,0.0,0.0,0.0,0.0,0.0,0.0,0.0,0.0,0.0,0.0,0.0,0.0,0.0,0.0,0.0,0.0,0.0,0.0,0.0,0.0,0.0,0.0,0.0,0.0,0.0,0.0,0.0,0.0,0.0,0.0,0.0,0.0,0.0,0.0,0.0,0.0,0.0,0.0,0.0,0.0,0.0,0.0,0.0,0.0,0.0,0.0,0.0,0.0,0.0,0.0,0.0,0.0,0.0,0.0,0.0,0.0,0.0,0.0,0.0,0.0,0.0,0.0,0.0,0.0,0.0,0.0,0.0,0.0,0.0,0.0,0.0,0.0,0.0,0.0,0.0,0.0,0.0,0.0,0.0,0.0,0.0,0.0,0.0,0.0,0.0,0.0,0.0,0.0,0.0,0.0,0.0,0.0,0.0,0.0,0.0,0.0,0.0,0.0,0.0,0.0,0.0,0.0,0.0,0.0,0.0,0.0,0.0,0.0,0.0,0.0,0.0,0.0,0.0,0.0,0.0,0.0,0.0,0.0,0.0,0.0,0.0,0.0,0.0,0.0,0.0,0.0,0.0,0.0,0.0,0.0,0.0,0.0,0.0,0.0,0.0,0.0,0.0,0.0,0.0,0.0,0.0,0.0,0.0,0.0,0.0,0.0,0.0,0.0,0.0,0.0,0.0,0.0,0.0,0.0,0.0,0.0,0.0,0.0,0.0,0.0,0.0,0.0,0.0,0.0,0.0,0.0,0.0,0.0,0.0,0.0,0.0,0.0,0.0,0.0,0.0,0.0,0.0,0.0,0.0,0.0,0.0,0.0,0.0,0.0,0.0,0.0,0.0,0.0,0.0,0.0,0.0,0.0,0.0,0.0,0.0,0.0,0.0,0.0,0.0,0.0,0.0,0.0,0.0,0.0,0.0,0.0,0.0,0.0,0.0,0.0,0.0,0.0,0.0,0.0,0.0,0.0,0.0,0.0,0.0,0.0,0.0,0.0,0.0,0.0,0.0,0.0,0.0,0.0,0.0,0.0,0.0,0.0,0.0,0.0,0.0,0.0,0.0,0.0,0.0,0.0,0.0,0.0,0.0,0.0,0.0,0.0,0.0,0.0,0.0,0.0,0.0,0.0,0.0,0.0,0.0,0.0,0.0,0.0,0.0,0.0,0.0,0.0,0.0,0.0,0.0,0.0,0.0,0.0,0.0,0.0,0.0,0.0,0.0,0.0,0.0,0.0,0.0,0.0,0.0,0.0,0.0,0.0,0.0,0.0,0.0,0.0,0.0,0.0,0.0,0.0,0.0,0.0,0.0,0.0,0.0,0.0,0.0,0.0,0.0,0.0,0.0,0.0,0.0,0.0,0.0,0.0,0.0,0.0,0.0,0.0,0.0,0.0,0.0,0.0,0.0,0.0,0.0,0.0,0.0,0.0,0.0,0.0,0.0,0.0,0.0,0.0,0.0,0.0,0.0,0.0,0.0,0.0,0.0,0.0,0.0,0.0,0.0,0.0,0.0,0.0,0.0,0.0,0.0,0.0,0.0,0.0,0.0,0.0,0.0,0.0,0.0,0.0,0.0,0.0,0.0,0.0,0.0,0.0,0.0,0.0,0.0,0.7588,0.734,0.0,0.0,0.0,0.0,0.0,0.0,0.0,0.0,0.0,0.0,0.0,0.0,0.0,0.0,0.0,0.0,0.0,0.0,0.0,0.0,0.0,0.0,0.0,0.8432,0.8804,0.8804,0.8804,0.8804,0.8804,0.0,0.0,0.0,0.0,0.0,0.7912,0.7629,0.7513,0.7513,0.7168,0.7,0.6979,0.6209,0.5411,0.4596,0.0,0.0,0.0,0.0,0.0,0.0,0.0,0.0,0.0,0.0,0.0,0.0,0.0,0.0,0.0,0.0,0.0,0.0,0.0,0.0,0.0,0.0,0.0,0.0,0.0,0.0,0.0,0.0,0.0,0.0,0.0,0.0,0.0,0.0,0.0,0.0,0.0,0.0,0.0,0.0,0.0,0.0,0.0,0.0,0.0,0.0,0.0,0.0,0.0,0.0,0.0,0.0,0.0,0.0,0.0,0.0,0.0,0.0,0.0,0.0,0.0,0.0,0.0,0.0,0.0,0.0,0.0,0.0,0.0,0.0,0.8106,0.7925,0.0,0.0,0.0,0.0,0.0,0.0,0.0,0.0,0.0,0.0,0.0,0.0,0.0,0.0,0.0,0.0,0.0,0.0,0.0,0.0,0.0,0.7905,0.7905,0.8432,0.8804,0.8804,0.8804,0.8804,0.8804,0.8804,0.0,0.0,0.0,0.8337,0.8065,0.7752,0.7616,0.7616,0.727,0.7101,0.708,0.6306,0.5623,0.5048,0.4758,0.0,0.0,0.0,0.0,0.0,0.0,0.0,0.0,0.0,0.0,0.0,0.0,0.0,0.0,0.0,0.0,0.0,0.0,0.0,0.0,0.0,0.0,0.0,0.0,0.0,0.0,0.0,0.0,0.0,0.0,0.0,0.0,0.0,0.0,0.0,0.0,0.0,0.0,0.0,0.0,0.0,0.0,0.0,0.0,0.0,0.0,0.0,0.0,0.0,0.0,0.0,0.0,0.0,0.0,0.0,0.0,0.0,0.0,0.0,0.0,0.0,0.0,0.0,0.8824,0.8848,0.8848,0.8848,0.8848,0.8866,0.862,0.8596,0.8692,0.8524,0.0,0.0,0.0,0.0,0.0,0.0,0.0,0.0,0.0,0.0,0.0,0.0,0.0,0.0,0.0,0.0,0.0,0.0,0.0,0.7905,0.7905,0.8432,0.8804,0.8804,0.8804,0.8804,0.8804,0.8804,0.0,0.0,0.8751,0.8731,0.8691,0.8247,0.8027,0.8027,0.7675,0.7526,0.751,0.7115,0.6895,0.6789,0.54,0.4736,0.4622,0.0,0.0,0.0,0.0,0.0,0.0,0.0,0.0,0.0,0.0,0.0,0.0,0.0,0.0,0.0,0.0,0.0,0.0,0.0,0.0,0.0,0.0,0.0,0.0,0.0,0.0,0.0,0.0,0.0,0.0,0.0,0.0,0.0,0.0,0.0,0.0,0.0,0.0,0.0,0.0,0.0,0.7725,0.7653,0.0,0.0,0.0,0.0,0.0,0.0,0.0,0.0,0.0,0.0,0.0,0.0,0.0,0.8276,0.8851,0.8993,0.9047,0.9047,0.9293,0.9408,0.9408,0.9408,0.9503,0.9629,0.9435,0.0,0.8722,0.8915,0.0,0.0,0.0,0.0,0.0,0.0,0.0,0.0,0.0,0.0,0.0,0.0,0.0,0.0,0.0,0.0,0.0,0.0,0.0,0.0,0.0,0.8203,0.8564,0.8564,0.8608,0.8701,0.8896,0.8799,0.883,0.9028,0.9035,0.9035,0.9035,0.8684,0.8404,0.82,0.7806,0.7739,0.7976,0.7258,0.7194,0.7641,0.6382,0.5662,0.5393,0.4852,0.0,0.0,0.0,0.0,0.0,0.0,0.0,0.0,0.0,0.0,0.0,0.0,0.0,0.0,0.0,0.0,0.0,0.0,0.0,0.0,0.0,0.0,0.0,0.0,0.0,0.0,0.0,0.0,0.0,0.0,0.0,0.0,0.0,0.0,0.0,0.0,0.0,0.0,0.0,0.6881,0.76,0.8325,0.828,0.7976,0.0,0.0,0.0,0.0,0.0,0.0,0.0,0.0,0.0,0.9119,0.9053,0.9187,0.9555,0.9581,0.9612,0.9612,0.9647,0.9676,0.9676,0.9548,0.9612,0.9804,0.9708,0.9567,0.9402,0.9205,0.9029,0.8915,0.0,0.0,0.0,0.0,0.8836,0.8734,0.0,0.0,0.0,0.0,0.0,0.0,0.0,0.0,0.0,0.0,0.0,0.0,0.7513,0.799,0.8331,0.8331,0.8398,0.8561,0.8813,0.8733,0.8797,0.9059,0.9143,0.9169,0.9066,0.8841,0.8622,0.8412,0.8095,0.8112,0.843,0.7609,0.7548,0.8143,0.7388,0.6743,0.6192,0.5533,0.5052,0.4697,0.0,0.0,0.0,0.0,0.0,0.0,0.0,0.0,0.0,0.0,0.0,0.0,0.0,0.0,0.0,0.0,0.0,0.0,0.0,0.0,0.0,0.0,0.0,0.0,0.0,0.0,0.0,0.0,0.0,0.0,0.0,0.0,0.0,0.0,0.0,0.0,0.0,0.7164,0.7717,0.8994,0.8771,0.8473,0.0,0.0,0.0,0.0,0.0,0.0,0.97,0.9736,0.9842,1.014,1.009,1.0155,1.0328,1.0263,1.023,1.023,1.007,0.9968,0.9968,0.9739,0.9734,0.9926,0.9868,0.9926,1.0034,0.9537,0.9327,0.9303,0.9078,0.8975,0.8999,0.9131,0.9077,0.8975,0.0,0.0,0.0,0.0,0.0,0.0,0.0,0.0,0.0,0.0,0.0,0.7513,0.7513,0.7872,0.8116,0.8116,0.8244,0.8322,0.8336,0.8571,0.8706,0.872,0.9024,0.9045,0.8727,0.8589,0.8567,0.8692,0.8776,0.8838,0.887,0.8481,0.8356,0.8383,0.8324,0.7872,0.7068,0.5896,0.5314,0.5112,0.4386,0.0,0.0,0.0,0.0,0.0,0.0,0.0,0.0,0.0,0.0,0.0,0.0,0.0,0.0,0.0,0.0,0.0,0.0,0.0,0.0,0.0,0.0,0.0,0.0,0.0,0.0,0.0,0.0,0.0,0.0,0.0,0.0,0.0,0.0,0.0,0.0,0.0,0.0,0.9933,1.0003,0.0,0.0,0.0,0.0,0.929,0.9754,1.0279,1.0895,1.0922,1.1022,1.1315,1.1192,1.1137,1.115,1.0945,1.0842,1.0835,1.0575,1.0447,1.0441,1.0109,1.0079,1.0269,1.0079,1.011,1.0269,1.0066,0.9964,0.9932,0.9799,0.9729,0.9729,0.9556,0.9486,0.948,0.0,0.0,0.0,0.0,0.0,0.7,0.7,0.7,0.7,0.7,0.7185,0.7302,0.7302,0.7656,0.7902,0.7902,0.8023,0.8206,0.8414,0.8397,0.858,0.8997,0.9127,0.9271,0.9409,0.9285,0.9285,0.94,0.9369,0.9344,0.9344,0.8888,0.8784,0.9021,0.8679,0.8515,0.8406,0.7005,0.6253,0.5891,0.4798,0.4336,0.0,0.0,0.0,0.0,0.0,0.0,0.0,0.0,0.0,0.0,0.0,0.0,0.0,0.0,0.0,0.0,0.0,0.0,0.0,0.0,0.0,0.0,0.0,0.0,0.0,0.0,0.0,0.0,0.0,0.0,0.0,0.0,0.0,0.0,0.0,0.0,0.0,1.033,1.0432,0.0,1.0176,1.038,1.0504,1.0405,1.0718,1.1016,1.1263,1.1269,1.1282,1.1389,1.1354,1.1327,1.1327,1.1258,1.1224,1.1224,1.1051,1.0944,1.0937,1.0699,1.0552,1.0542,1.0477,1.0477,1.0498,1.0434,1.0238,0.9983,0.9958,0.9926,0.9926,0.974,0.9708,0.9676,0.0,0.0,0.0,0.0,0.7,0.7,0.7,0.7,0.7021,0.707,0.7146,0.7216,0.7251,0.7531,0.7686,0.7686,0.7816,0.7997,0.8214,0.8208,0.8399,0.8848,0.9021,0.9328,0.9862,0.9706,0.9698,0.9877,0.9784,0.9725,0.9725,0.9335,0.9178,0.9249,0.904,0.8968,0.8935,0.7945,0.7205,0.6564,0.5419,0.489,0.4727,0.0,0.0,0.0,0.0,0.0,0.0,0.0,0.0,0.0,0.0,0.0,0.0,0.0,0.0,0.0,0.0,0.0,0.0,0.0,0.0,0.0,0.0,0.0,0.0,0.0,0.0,0.0,0.0,0.0,0.0,0.0,0.0,0.0,0.0,0.886,0.9624,1.049,1.068,1.0734,1.0734,1.0969,1.1136,1.1136,1.1282,1.1435,1.157,1.1577,1.1623,1.1717,1.1688,1.1688,1.1688,1.1688,1.1688,1.1688,1.1519,1.1444,1.1438,1.1166,1.1017,1.0935,1.0935,1.0877,1.0734,1.0734,1.052,1.0206,1.0149,1.011,1.0079,0.9926,0.9862,0.9862,0.0,0.0,0.0,0.7,0.7,0.7,0.7,0.7,0.7048,0.7167,0.7195,0.7251,0.7377,0.7468,0.7502,0.7502,0.7621,0.7698,0.7713,0.8012,0.8194,0.8216,0.8669,0.9266,0.9984,0.9738,0.973,0.9999,0.9999,0.9999,0.9999,0.9877,0.9524,0.9033,0.9432,0.9249,0.8626,0.8626,0.8099,0.7172,0.6269,0.5692,0.5305,0.0,0.0,0.0,0.0,0.0,0.0,0.0,0.0,0.0,0.0,0.0,0.0,0.0,0.0,0.0,0.0,0.0,0.0,0.0,0.0,0.0,0.0,0.0,0.0,0.0,0.0,0.0,0.0,0.0,0.0,0.0,0.0,0.0,0.9303,0.9346,0.968,1.0503,1.0861,1.1009,1.1009,1.1269,1.1409,1.1409,1.1415,1.1583,1.1906,1.1919,1.2047,1.2291,1.2305,1.2305,1.2305,1.2305,1.2305,1.2298,1.2053,1.1919,1.1906,1.1583,1.1415,1.1409,1.1395,1.1263,1.0995,1.0982,1.0847,1.0593,1.0403,1.0308,1.0276,1.0079,1.0015,0.9983,0.0,0.0,0.7,0.7,0.7,0.7,0.7,0.7,0.7021,0.7048,0.7223,0.7356,0.7391,0.7538,0.7642,0.7642,0.767,0.7793,0.8048,0.7931,0.8099,0.8692,0.9349,0.9867,1.0205,0.9992,0.9985,1.0213,1.0076,0.9999,0.9999,0.9973,0.9818,0.9577,0.9688,0.9603,0.9328,0.9328,0.8966,0.8235,0.6835,0.6187,0.6021,0.0,0.0,0.0,0.0,0.0,0.0,0.0,0.0,0.0,0.0,0.0,0.0,0.0,0.0,0.0,0.0,0.0,0.0,0.0,0.0,0.0,0.0,0.0,0.0,0.0,0.0,0.0,0.0,0.0,0.0,0.0,0.9095,0.973,0.948,1.0052,1.0613,1.0862,1.1129,1.1309,1.1309,1.1577,1.175,1.175,1.1944,1.2098,1.2178,1.2184,1.2218,1.2298,1.2305,1.2305,1.2305,1.2305,1.2305,1.2305,1.2225,1.2184,1.2178,1.2098,1.1944,1.1737,1.1516,1.1263,1.0975,1.0801,1.0667,1.0593,1.053,1.053,1.0498,1.0301,1.0149,0.9983,0.0,0.7,0.7,0.7,0.7,0.7,0.7,0.7,0.7021,0.707,0.723,0.7356,0.7426,0.7551,0.7642,0.7691,0.7822,0.7938,0.7997,0.7989,0.8386,0.9234,0.9688,1.0058,1.0393,1.0265,1.0265,1.0368,1.0265,1.0205,1.0205,1.0154,1.0084,1.0007,0.9877,0.9766,0.9673,0.9614,0.9432,0.9046,0.788,0.7119,0.6644,0.6051,0.5696,0.5437,0.5227,0.5225,0.5282,0.5123,0.0,0.0,0.0,0.0,0.0,0.0,0.0,0.0,0.0,0.0,0.0,0.0,0.0,0.0,0.0,0.0,0.0,0.0,0.0,0.0,0.0,0.0,0.0,0.0,0.965,1.0178,1.0046,1.0632,1.1135,1.1296,1.1471,1.161,1.161,1.1877,1.2087,1.2087,1.2204,1.2305,1.2305,1.2305,1.2305,1.2305,1.2305,1.2305,1.2305,1.2305,1.2305,1.2305,1.2305,1.2305,1.2305,1.2305,1.2204,1.2037,1.1737,1.1443,1.1149,1.0894,1.07,1.0593,0.0,0.0,0.0,0.0,1.0333,1.0244,0.0,0.7,0.7,0.7,0.7,0.7,0.7,0.7033,0.7082,0.7174,0.7222,0.7307,0.7461,0.7502,0.7551,0.7691,0.8012,0.8092,0.0,0.8312,0.8944,0.9776,0.9863,1.0078,1.0488,1.0496,1.0496,1.0496,1.0496,1.0496,1.0496,1.0368,1.0316,1.0298,0.9981,0.9851,0.9825,0.9673,0.9614,0.9595,0.9086,0.8243,0.7241,0.6885,0.642,0.5923,0.5786,0.5671,0.5582,0.5484,0.0,0.0,0.0,0.0,0.0,0.0,0.0,0.0,0.0,0.0,0.0,0.0,0.0,0.0,0.0,0.0,0.0,0.0,0.0,0.0,0.0,0.0,0.0,0.0,0.9854,1.0526,1.0863,1.1109,1.135,1.1717,1.1877,1.1953,1.1953,1.2151,1.2305,1.2305,1.2305,1.2305,1.2305,1.2305,0.0,0.0,0.0,1.2305,1.2305,1.2305,1.2305,1.2305,1.2305,1.2305,1.2305,1.2305,1.2305,1.2285,1.2033,1.1697,1.1369,1.1109,1.0854,1.0593,1.0593,1.0593,1.0593,1.0593,1.0593,1.0593,0.0,0.7,0.7,0.7,0.7,0.7,0.7,0.7228,0.7316,0.7075,0.7328,0.7498,0.7419,0.7461,0.7551,0.7691,0.8012,0.8334,0.864,0.9304,0.9724,0.9807,1.0166,1.0399,1.0496,1.0496,1.0496,1.0496,1.0496,1.0496,1.0496,1.047,1.0393,1.029,1.0239,1.011,0.9947,0.9818,0.9766,0.974,0.9543,0.9059,0.8408,0.7871,0.7576,0.7453,0.7258,0.7275,0.7295,0.6713,0.6522,0.6446,0.5947,0.5824,0.0,0.0,0.0,0.0,0.0,0.0,0.0,0.0,0.0,0.0,0.0,0.0,0.0,0.0,0.0,0.0,0.0,0.0,0.0,0.8783,0.948,1.0325,1.1442,1.1508,1.1605,1.2059,1.2188,1.2218,1.2218,1.2271,1.2305,1.2305,1.2305,1.2305,1.2305,1.2305,1.2305,1.2305,1.2305,1.2305,1.2305,1.2305,1.2305,1.2305,1.2305,0.0,1.2305,1.2305,1.2305,1.2285,1.2033,1.1697,1.1369,1.1109,1.0854,1.0593,1.0593,1.0593,1.0593,1.0593,1.0593,1.0593,0.7,0.7,0.7,0.7,0.7,0.7,0.7,0.7148,0.7241,0.7241,0.7419,0.7526,0.7514,0.7594,0.7638,0.7607,0.7968,0.8564,0.9386,0.9665,0.9907,1.0133,1.0375,1.0496,1.0496,1.0496,1.0496,1.0496,1.0496,1.0496,1.0496,1.0496,1.047,1.0393,1.0324,1.0239,1.0128,0.9973,0.9851,0.9799,0.981,0.9569,0.9138,0.856,0.8164,0.788,0.778,0.7816,0.7853,0.7486,0.7361,0.7283,0.7001,0.6896,0.6944,0.0,0.0,0.0,0.0,0.0,0.0,0.0,0.0,0.0,0.0,0.0,0.0,0.0,0.0,0.8272,0.8458,0.0,0.832,0.8854,0.9362,0.9944,1.0593,1.1293,1.1976,1.2633,1.2547,1.2452,1.2452,1.2378,1.2305,1.2305,1.2305,1.2305,1.2305,1.2305,1.2305,1.2305,1.2305,1.2305,1.2305,1.2305,1.2305,1.2305,1.2305,1.2305,1.2305,1.2305,1.2305,1.2278,1.1837,1.1563,1.1362,1.0955,1.072,1.0593,1.0593,1.0593,1.0593,1.0593,1.0593,1.0593,0.7,0.7,0.7,0.7,0.7,0.702,0.708,0.714,0.7266,0.7551,0.7631,0.769,0.7704,0.7788,0.7839,0.7773,0.8157,0.8838,0.9894,0.9774,0.9901,1.0437,1.0496,1.0496,1.0496,1.0496,1.0496,1.0496,1.0496,1.0496,1.0496,1.0496,1.0496,1.0496,1.0393,1.0342,1.0342,1.0128,0.9999,0.9903,0.9973,0.9862,0.9614,0.9171,0.8666,0.8243,0.8243,0.8243,0.8217,0.8111,0.8084,0.8057,0.7925,0.7898,0.7979,0.83,0.8407,0.0,0.0,0.0,0.0,0.0,0.0,0.0,0.0,0.8229,0.8165,0.8456,0.8559,0.8656,0.8815,0.8453,0.8337,0.9083,0.9427,0.9712,1.009,1.123,1.2378,1.3156,1.2863,1.2599,1.2599,1.2415,1.2305,1.2305,1.2305,1.2305,1.2305,1.2305,1.2305,1.2305,1.2305,1.2305,1.2305,1.2305,1.2305,1.2305,1.2305,1.2305,1.2305,1.2305,1.2305,1.2271,1.1648,1.1362,1.1262,1.0807,1.0593,1.0593,1.0593,1.0593,1.0593,1.0593,1.0593,1.0593,0.0,0.7,0.7,0.7,0.7,0.7108,0.7397,0.7649,0.7819,0.7852,0.811,0.8243,0.8068,0.8057,0.8241,0.8706,0.8955,0.9308,0.9795,0.9917,1.0064,1.0316,1.0445,1.0496,1.0496,1.0496,1.0496,1.0496,1.0496,1.0496,1.0496,1.0496,1.0496,1.0496,1.047,1.047,1.047,1.0342,1.0272,1.0239,1.0076,0.9973,0.9947,0.9766,0.9577,0.9406,0.9406,0.9406,0.9347,0.885,0.8692,0.8613,0.8057,0.7898,0.7979,0.83,0.8407,0.8419,0.8449,0.7982,0.7749,0.8753,0.8137,0.7788,0.0,0.9421,0.887,0.9478,0.9321,0.9056,0.9048,0.8554,0.8421,0.9372,0.957,1.0168,1.1771,1.2168,1.2562,1.3382,1.2936,1.2599,1.2599,1.2415,1.2305,1.2305,1.2305,1.2305,1.2305,1.2305,1.2305,1.2305,1.2305,1.2305,1.2305,1.2305,1.2305,1.2305,1.2305,1.2305,1.2305,1.2305,1.2305,1.2271,1.1648,1.1242,1.1015,1.0727,1.0593,1.0593,1.0593,1.0593,1.0593,1.0593,1.0593,1.0593,0.0,0.7,0.7,0.7,0.7168,0.7343,0.7471,0.7729,0.7972,0.817,0.8322,0.8373,0.8277,0.8174,0.8324,0.8863,0.8973,0.9242,0.9777,0.9844,1.0007,1.029,1.0342,1.0419,1.0496,1.0496,1.0496,1.0496,1.0496,1.0496,1.0496,1.0496,1.0496,1.0496,1.0496,1.0496,1.0496,1.0368,1.0239,1.0136,1.0162,0.9999,0.9777,0.987,0.9784,0.9588,0.9588,0.9588,0.0,0.9354,0.9276,0.9223,0.8981,0.8902,0.8963,0.9289,0.9377,0.9446,0.9623,0.9749,0.982,0.9747,0.9116,0.8785,0.9723,0.9336,0.889,0.9148,0.9251,0.9303,0.9369,0.927,0.9427,1.0336,1.0464,1.072,1.1502,1.2003,1.2415,1.2753,1.3061,1.3133,1.2804,1.2599,1.2415,1.2305,1.2305,1.2305,1.2305,1.2305,1.2305,1.2305,1.2305,1.2305,1.2305,1.2305,1.2305,1.2305,1.2305,1.2305,1.2305,1.2305,1.2118,1.1735,1.1356,1.1009,1.0767,1.064,1.0593,1.0593,1.0593,1.0593,1.0593,1.0593,1.0593,1.0593,0.0,0.7,0.7,0.7,0.7268,0.7513,0.7513,0.7729,0.8012,0.8362,0.8469,0.8516,0.8516,0.8421,0.8524,0.8999,0.9044,0.9256,0.9798,0.9818,0.9903,1.0162,1.0239,1.0342,1.0445,1.047,1.0496,1.0496,1.0496,1.0496,1.0496,1.0496,1.0496,1.0496,1.0496,1.047,1.0445,1.0342,1.0187,1.0007,1.0262,1.0162,0.9858,1.0031,0.9952,0.9772,0.965,0.9588,0.9588,0.9588,0.9588,0.9588,0.9588,0.9588,0.968,1.0002,1.0025,1.0044,1.045,1.0737,1.0767,1.0329,0.9857,0.9486,0.9486,0.9139,0.8771,0.863,0.9064,0.9504,0.9642,0.9984,1.0475,1.1298,1.1446,1.1521,1.1744,1.2261,1.2636,1.2636,1.3214,1.3523,1.3151,1.2878,1.2648,1.2462,1.2351,1.2305,1.2305,1.2305,1.2305,1.2305,1.2305,1.2305,1.2305,1.2305,1.2305,1.2305,1.2305,1.2305,1.2298,1.2218,1.1904,1.1375,1.1122,1.0861,1.0593,1.0593,1.0593,1.0593,1.0593,1.0593,1.0593,1.0593,1.0593,1.0593,0.0,0.0,0.7,0.7,0.7268,0.7513,0.7513,0.7729,0.8012,0.8362,0.8617,0.8791,0.8791,0.8883,0.9077,0.9371,0.9392,0.9535,0.9884,0.9838,0.9799,0.9825,1.0136,1.029,1.0324,1.0419,1.0496,1.0496,1.0496,1.0496,1.0496,1.0496,1.0496,1.0496,1.0496,1.0419,1.0324,1.029,1.0187,1.0029,1.0356,1.0492,1.0458,1.0329,1.0275,1.023,0.9757,0.0,0.9588,0.9588,0.9588,0.9588,0.9588,0.9588,0.968,1.0002,0.9876,0.9757,1.033,0.9818,0.9315,1.0241,0.9996,0.9486,0.9486,0.9139,0.8683,0.8203,0.8919,0.9662,0.9868,1.0545,1.1335,1.212,1.2261,1.2526,1.3309,1.3455,1.3455,1.3455,1.3506,1.3557,1.3667,1.331,1.2999,1.2808,1.2465,1.2305,1.2305,1.2305,1.2305,1.2305,1.2305,1.2305,1.2305,1.2305,1.2305,1.2305,1.2305,1.2305,1.2291,1.2047,1.171,1.1375,1.1122,1.0861,1.0593,1.0593,1.0593,1.0593,1.0593,1.0593,1.0593,1.0593,1.0593,1.0593,0.0,0.0,0.0,0.7566,0.7686,0.7776,0.7776,0.7839,0.8012,0.8362,0.8798,0.0,0.0,0.0,0.0,0.0,0.9529,0.9534,0.9885,0.9672,0.961,0.9799,0.9903,1.0191,1.0607,1.0687,1.0851,1.1146,1.1146,1.1146,1.1146,1.1146,1.1126,1.104,1.104,1.0923,1.0757,1.0659,1.0725,1.0865,1.0752,1.0785,1.0878,1.0712,1.0574,1.0446,0.0,0.9797,0.9588,0.9588,0.9647,0.9706,0.9614,0.9725,0.9859,0.9892,0.9908,0.9981,1.0186,1.0323,1.0483,1.0807,1.0525,1.0161,1.0161,0.9468,0.8742,0.8612,0.8599,0.8821,0.9558,1.0366,1.1229,1.2161,1.2746,1.3193,1.3455,1.3682,1.374,1.3521,1.4062,1.4297,1.3994,1.3512,1.3248,1.3253,1.288,1.2636,1.2636,1.2412,1.2305,1.2305,1.2305,1.2305,1.2305,1.2305,1.2305,1.2305,1.2305,1.2204,1.2004,1.171,1.1416,1.1122,1.0861,1.068,1.0593,1.0593,1.0593,1.0593,1.0593,1.0593,1.0593,1.0593,1.0593,1.0593,0.0,0.0,0.0,0.0,0.0,0.0,0.0,0.0,0.0,0.0,0.0,0.0,0.0,0.0,0.0,0.0,0.0,0.9714,1.0023,0.9739,0.9664,0.9838,0.9806,1.0061,1.0616,1.0678,1.0887,1.1334,1.139,1.139,1.1334,1.139,1.1341,1.1187,1.1187,1.1094,1.0916,1.0844,1.0906,1.1034,1.0945,1.0975,1.1085,1.096,1.0842,0.0,1.0389,1.0141,0.9929,0.9694,0.9647,0.9732,0.9681,0.9784,0.9918,0.9907,0.9836,0.9825,1.0188,1.0408,1.0665,1.1018,1.0897,1.067,1.0521,0.9754,0.9014,0.884,0.8598,0.8623,0.9348,1.0349,1.1217,1.1685,1.2444,1.3045,1.3239,1.3478,1.372,1.3827,1.4392,1.4656,1.4396,1.4006,1.3729,1.3686,1.3206,1.2898,1.2784,1.2465,1.2305,1.2305,1.2305,1.2305,1.2305,1.2305,1.2305,1.2305,1.2305,1.2204,1.2011,1.1717,1.1483,1.1283,1.0921,1.0747,1.074,1.0633,1.0593,1.0593,1.0593,1.0593,1.0593,1.0593,1.0593,1.0593,0.0,0.0,0.0,0.0,0.0,0.0,0.0,0.0,0.0,0.0,0.0,0.0,0.0,0.0,0.0,0.0,0.0,0.0,1.0268,1.0038,0.99,0.9907,0.9833,0.9985,1.0334,1.0479,1.072,1.1062,1.1241,1.1241,1.1062,1.1241,1.1241,1.1033,1.1033,1.0961,1.0832,1.0832,1.0789,1.0689,1.1012,1.1136,1.1151,1.1136,0.0,0.0,1.0762,1.0638,1.0542,0.9877,0.9624,0.9636,0.9773,0.9799,0.9825,1.0014,0.9638,0.9321,1.0286,1.0093,0.9858,1.0798,1.1078,1.1007,1.0618,0.999,0.9365,0.8925,0.8896,0.8972,0.9181,1.0435,1.1296,1.0873,1.1595,1.233,1.282,1.3045,1.3502,1.4365,1.4511,1.4596,1.4827,1.4702,1.4427,1.4014,1.3478,1.304,1.2842,1.2509,1.2305,1.2305,1.2305,1.2305,1.2305,1.2305,1.2305,1.2305,1.2305,1.2291,1.2271,1.2033,1.1893,1.1826,1.1236,1.0982,1.0949,1.0707,1.0593,1.0593,1.0593,1.0593,1.0593,1.0593,1.0593,1.0593,0.0,0.0,0.0,0.0,0.0,0.0,0.0,0.0,0.0,0.0,0.0,0.0,0.0,0.0,0.0,0.0,0.0,0.0,1.0282,0.9817,0.9688,1.003,0.9936,1.0195,1.088,1.1033,1.1345,1.1806,1.1874,1.1874,1.1806,1.1874,1.1776,1.1593,1.1593,1.1525,1.1403,1.1403,1.1481,1.1624,0.0,1.1575,1.1765,0.0,0.0,1.1423,1.1092,1.0975,1.0916,1.0477,1.0177,0.9963,0.9944,0.981,0.9688,0.9836,0.9693,0.9523,0.9788,0.9903,1.0021,1.0303,1.074,1.1062,1.0968,1.0194,0.9472,0.935,0.8549,0.7935,0.8157,0.9599,1.0748,1.0802,1.2321,1.3579,1.3696,1.4145,1.4356,1.4165,1.4531,1.4662,1.4267,1.4404,1.4385,1.4094,1.3789,1.3542,1.3347,1.2811,1.2452,1.2305,1.2305,1.2305,1.2305,1.2305,1.2305,1.2305,1.2305,1.2191,1.2013,1.194,1.1665,1.1209,1.1062,1.0901,1.07,1.062,1.0593,1.0593,1.0593,1.0593,1.0593,1.0593,1.0593,1.0593,0.0,0.0,0.0,0.0,0.0,0.0,0.0,0.0,0.0,0.0,0.0,0.0,0.0,0.0,0.0,0.0,0.0,0.0,0.0,0.9628,0.9583,1.0006,0.9946,1.0243,1.0936,1.113,1.1443,1.1872,0.0,0.0,1.1872,1.1934,1.1789,1.1501,1.1649,1.1603,1.1386,1.1533,0.0,0.0,0.0,0.0,0.0,0.0,0.0,1.1569,1.1386,1.132,1.1269,1.0938,1.0637,1.0391,1.0295,1.0092,0.992,0.992,0.9765,0.9588,0.9588,0.9746,0.9958,1.0243,1.0594,1.0968,1.1254,1.039,0.9486,0.9486,0.8425,0.7527,0.765,0.9091,1.0264,1.0178,1.197,1.3442,1.3666,1.4177,1.451,1.4426,1.4681,1.471,1.4245,1.4401,1.4426,1.4301,1.3931,1.3659,1.342,1.2897,1.2562,1.2452,1.2342,1.2305,1.2305,1.2305,1.2305,1.2305,1.2305,1.2218,1.2094,1.2094,1.1877,1.1557,1.1296,1.1089,1.0922,1.07,1.0593,1.0593,1.0593,1.0593,1.0593,1.0593,1.0593,1.0593,0.0,0.0,0.0,0.0,0.0,0.0,0.0,0.0,0.0,0.0,0.0,0.0,0.0,0.0,0.0,0.0,0.0,0.0,0.0,0.0,0.0,0.9869,0.9904,1.0172,1.0726,1.095,1.1208,1.156,1.1596,1.1574,0.0,0.0,0.0,0.0,0.0,0.0,0.0,0.0,0.0,0.0,0.0,0.0,0.0,0.0,0.0,1.156,1.1591,1.1591,1.1547,1.1261,1.1012,1.081,1.0659,1.0488,1.0315,1.0146,0.9899,0.9646,0.9603,0.9588,0.976,1.0375,1.0586,1.0777,1.1386,1.0476,0.9518,0.9614,0.849,0.7554,0.7749,0.8981,0.9906,0.9621,1.1352,1.2907,1.3382,1.3906,1.4352,1.479,1.4842,1.4735,1.4416,1.4379,1.4379,1.4379,1.3925,1.3584,1.3355,1.2912,1.2636,1.2562,1.2378,1.2305,1.2305,1.2305,1.2305,1.2305,1.2305,1.2305,1.2305,1.2305,1.2278,1.2218,1.1663,1.1369,1.1323,1.0814,1.0593,1.0593,1.0593,1.0593,1.0593,1.0593,1.0593,1.0593,0.0,0.0,0.0,0.0,0.0,0.0,0.0,0.0,0.0,0.0,0.912,0.9613,0.0,0.0,0.0,0.0,0.0,0.0,0.0,0.0,0.0,0.9731,0.9828,1.0081,1.047,1.0597,1.0897,1.1334,1.0877,1.0835,1.118,1.0946,1.0755,1.0711,1.1041,0.0,0.0,0.0,0.0,1.1334,1.1334,1.1279,0.0,0.0,0.0,0.0,1.1529,1.1591,1.1584,1.1525,1.1321,1.1005,1.0704,1.0579,1.0484,1.0185,1.006,0.9958,0.9687,0.9588,0.9709,1.0089,1.0389,1.0689,1.11,1.0299,0.9646,1.0193,0.8807,0.7847,0.8941,0.9604,1.0242,1.0987,1.2386,1.3554,1.4183,1.4547,1.4702,1.4589,1.4553,1.4318,1.3718,1.3667,1.3667,1.3667,1.3572,1.3548,1.362,1.3142,1.2709,1.2378,1.2335,1.2305,1.2305,1.2305,1.2305,1.2305,1.2305,1.2305,1.2305,1.2305,1.2171,1.196,1.1577,1.1255,1.1042,1.0734,1.0593,1.0593,1.0593,1.0593,1.0593,1.0593,1.0593,1.0593,0.0,0.0,0.0,0.0,0.0,0.0,0.0,0.8024,0.8266,0.8573,0.9088,0.9528,0.9774,0.9997,1.0084,0.0,0.0,0.0,0.0,0.0,0.0,0.0,1.0003,1.0242,1.0386,1.0697,1.0974,1.1216,0.0,1.0991,1.1196,1.1135,1.1034,1.0887,1.1089,1.1109,1.0972,1.1236,1.1279,1.1216,1.1216,1.1153,0.0,0.0,0.0,0.0,1.1397,1.1498,1.1591,1.1591,1.1489,1.1335,1.1173,1.1004,1.0777,1.0448,1.0236,1.0031,0.9702,0.9588,0.9731,1.0228,1.047,1.0719,1.1246,1.066,1.0098,1.0421,0.9454,0.8748,0.939,1.0055,1.0685,1.1149,1.2353,1.347,1.4166,1.4494,1.464,1.4526,1.4511,1.4254,1.3558,1.3492,1.3492,1.3492,1.3492,1.3528,1.3607,1.3168,1.2753,1.2489,1.2342,1.2305,1.2305,1.2415,1.2415,1.2305,1.2415,1.2415,1.2305,1.2305,1.2225,1.2071,1.1623,1.1349,1.1182,1.0774,1.0593,1.0593,1.0593,1.0593,1.0593,1.0593,1.0593,1.0593,0.0,0.0,0.0,0.0,0.0,0.0,0.0,0.8016,0.8347,0.8654,0.8966,0.9309,0.9754,0.9787,0.9814,0.0,0.0,0.0,0.0,0.0,0.0,0.0,0.0,1.0332,1.0332,0.0,0.0,1.1028,1.1012,0.0,0.0,0.0,0.0,0.0,1.1121,1.1059,1.0822,1.1019,1.109,0.0,0.0,1.1028,0.0,0.0,0.0,0.0,0.0,1.1373,1.1529,1.1529,1.156,1.1591,1.1591,1.1415,1.1144,1.0814,1.0463,1.0133,0.9811,0.9716,0.9855,1.0441,1.0638,1.0872,1.1459,1.1021,1.0548,1.0706,1.0066,0.9582,0.9901,1.0464,1.0954,1.1185,1.2173,1.3155,1.3879,1.4298,1.4511,1.4511,1.4511,1.4254,1.3558,1.3492,1.3492,1.3492,1.3492,1.3499,1.3455,1.3119,1.2863,1.2599,1.2452,1.2342,1.2305,1.2489,1.2489,1.2305,1.2489,1.2489,1.2305,1.2305,1.2305,1.2271,1.175,1.1483,1.1349,1.0868,1.0646,1.0593,1.0593,1.0593,1.0593,1.0593,1.0593,1.0593,0.0,0.0,0.0,0.0,0.0,0.0,0.0,0.7645,0.784,0.8275,0.8743,0.9132,0.9407,0.9768,0.9881,0.0,0.0,0.0,0.0,0.0,0.0,0.0,0.0,0.0,0.0,0.0,0.0,1.0839,1.029,0.0,0.0,0.0,0.0,0.0,0.0,1.0829,1.0822,1.1019,0.0,0.0,0.0,0.0,0.0,0.0,0.0,0.0,0.0,1.1216,1.1334,1.1334,1.1466,1.1591,1.1591,1.1569,1.1481,1.1158,1.0828,1.047,1.0148,1.0053,1.0141,1.0499,1.0843,1.1151,1.1511,1.1021,1.0674,1.1373,1.044,0.9901,1.1178,1.0947,1.0835,1.1758,1.2269,1.2899,1.385,1.4298,1.4511,1.4511,1.4511,1.4254,1.3558,1.3492,1.3492,1.3492,1.3492,1.3419,1.3236,1.3193,1.301,1.2599,1.2562,1.2489,1.2305,1.2489,1.2489,1.2305,1.2489,1.2489,1.2305,1.2305,1.2305,1.2285,1.1964,1.1677,1.1369,1.1082,1.0827,1.0593,1.0593,1.0593,1.0593,1.0593,1.0593,1.0593,0.0,0.0,0.0,0.0,0.0,0.0,0.7982,0.787,0.7952,0.8481,0.8702,0.8992,0.9425,0.9603,0.9723,0.9831,0.0,0.0,0.0,0.0,0.0,0.0,0.0,0.0,0.0,0.0,1.0504,1.0681,1.0506,0.0,0.0,0.0,0.0,0.0,0.0,1.0993,1.097,1.0853,0.0,0.0,0.0,0.0,0.0,0.0,0.0,0.0,0.0,0.0,1.1303,1.1303,1.1435,1.1591,1.1591,1.1591,1.1525,1.1202,1.1012,1.0843,1.0485,1.0389,1.047,1.0828,1.1004,1.1188,1.1518,1.1373,1.1247,1.1529,1.1146,1.0951,1.1498,1.1373,1.1283,1.1697,1.186,1.2211,1.2994,1.2976,1.3135,1.382,1.3202,1.295,1.3462,1.3046,1.2973,1.3455,1.3492,1.3455,1.3382,1.3273,1.3083,1.279,1.2673,1.2342,1.1744,1.2452,1.2452,1.1781,1.2452,1.2378,1.1595,1.1595,1.1595,1.1545,1.1305,1.1275,1.1369,1.1109,1.0854,1.0593,1.0593,1.0593,1.0593,1.0593,1.0593,1.0593,0.0,0.0,0.0,0.0,0.0,0.8178,0.8136,0.7992,0.8084,0.8719,0.8739,0.8915,0.9424,0.9516,0.9606,0.983,0.9894,0.0,0.0,0.0,0.0,0.0,0.0,0.0,0.0,0.0,1.0593,1.0593,1.0681,1.0744,0.0,0.0,1.1146,1.1146,0.0,0.0,0.0,0.0,0.0,0.0,0.0,0.0,0.0,0.0,0.0,0.0,0.0,0.0,0.0,0.0,0.0,1.1498,1.1498,1.156,1.1547,1.132,1.118,1.1056,1.0821,1.0762,1.0785,1.1048,1.118,1.1305,1.154,1.1591,1.1591,1.1591,1.1591,1.1591,1.1591,1.1435,1.1341,1.156,1.1508,1.1725,1.2543,1.2234,1.2279,1.3189,1.2278,1.2018,1.3038,1.2863,1.29,1.3455,1.3492,1.3492,1.3492,1.3382,1.32,1.301,1.2636,1.2224,1.1855,1.2378,1.2231,1.1409,1.1922,1.17,1.0769,1.0769,1.0881,1.1099,1.0918,1.1112,1.1536,1.1243,1.0949,1.0713,1.0626,1.0593,1.0593,1.0593,1.0593,1.0593,0.0,0.0,0.0,0.0,0.0,0.0,0.7967,0.7892,0.8089,0.8897,0.8827,0.8915,0.9424,0.9516,0.9516,0.9516,0.9676,0.0,0.0,0.0,0.0,0.0,0.0,0.0,0.0,0.0,1.0593,1.0593,1.0593,1.0593,1.0624,1.0744,1.0807,1.0807,0.0,0.0,0.0,0.0,0.0,0.0,0.0,0.0,0.0,0.0,0.0,0.0,0.0,0.0,0.0,0.0,0.0,0.0,0.0,1.1428,1.1591,1.1591,1.1357,1.1107,1.11,1.11,1.11,1.1107,1.1349,1.1591,1.1591,1.1591,1.1591,1.1591,1.1591,1.1591,1.1591,1.0989,1.0737,1.1466,1.1265,1.147,1.2802,1.2589,1.2412,1.2782,1.2088,1.1789,1.2257,1.3046,1.3492,1.3492,1.3492,1.3492,1.3492,1.3492,1.3382,1.32,1.2415,1.2298,1.2863,1.2305,1.1781,1.1409,1.0795,1.0303,0.9895,0.9895,1.0351,1.1111,1.1105,1.1401,1.1879,1.1543,1.1249,1.0962,1.0707,1.0593,1.0593,1.0593,1.0593,1.0593,0.0,0.0,0.0,0.0,0.0,0.0,0.0,0.8453,0.8603,0.8941,0.9099,0.9266,0.9474,0.9516,0.9516,0.9516,0.9548,0.0,0.0,0.0,0.0,0.0,0.0,0.0,0.0,0.0,1.0593,1.0593,1.0593,1.0593,1.0593,1.0744,1.0807,1.0807,1.0807,1.0807,0.0,0.0,0.0,0.0,0.0,0.0,0.0,0.0,0.0,0.0,0.0,0.0,0.0,0.0,0.0,0.0,0.0,0.0,0.0,1.156,1.1518,1.1437,1.1437,1.1437,1.1437,1.1437,1.1518,1.1591,1.1591,1.1209,1.0863,1.0863,1.0478,1.0155,1.0155,0.9964,0.9931,1.0302,1.0279,1.0394,1.0943,1.1299,1.1631,1.2078,1.2583,1.2516,1.1564,1.2709,1.3492,1.3492,1.3492,1.3492,1.3492,1.2452,1.2268,1.3156,1.2936,1.2636,1.2298,1.2636,1.2187,1.0999,1.1217,1.0614,0.9263,0.915,0.9226,0.949,1.0051,1.058,1.1095,1.1307,1.1256,1.0962,1.0707,1.0593,1.0593,1.0593,1.0593,1.0593,0.0,0.0,0.0,0.0,0.0,0.0,0.0,0.8767,0.8918,0.9047,0.9263,0.9482,0.9671,0.958,0.9516,0.9612,0.9548,0.0,0.0,0.0,0.0,0.0,0.0,0.0,0.0,1.0593,1.0593,1.0593,1.0593,1.0593,1.0593,1.0688,1.0713,1.0713,1.0713,1.0713,0.0,0.0,0.0,0.0,0.0,0.0,0.0,0.0,0.0,0.0,0.0,0.0,0.0,0.0,0.0,0.0,0.0,0.0,0.0,0.0,1.1591,1.1591,1.1591,1.1591,1.1591,1.1591,1.1591,1.1591,1.1591,1.1247,1.0832,1.0548,1.0161,0.9805,0.955,0.9294,0.9245,0.9631,0.9458,0.9614,1.0495,1.0826,1.1077,1.1255,1.2325,1.2526,1.1223,1.2562,1.3492,1.3492,1.3229,1.32,1.3499,1.1966,1.1632,1.2826,1.2562,1.2452,1.2562,1.2753,1.2335,1.1248,1.095,1.0164,0.8998,0.847,0.8585,0.9188,0.9669,1.0447,0.0,1.1381,1.1282,1.1116,1.0747,1.0593,1.0593,1.0593,1.0593,1.0593,0.0,0.0,0.0,0.0,0.0,0.0,0.0,0.8834,0.9037,0.9163,0.9323,0.9544,0.9926,0.967,0.958,0.9772,0.0,0.0,0.0,0.0,0.0,0.0,0.0,0.0,0.0,1.0593,1.0593,1.0593,1.0593,1.0593,1.0593,1.0593,1.0593,1.0593,1.0593,1.0561,0.0,0.0,0.0,0.0,0.0,0.0,0.0,0.0,0.0,0.0,0.0,0.0,0.0,0.0,0.0,0.0,0.0,0.0,0.0,0.0,0.0,0.0,0.0,1.1591,1.1591,1.1591,1.1591,1.1591,1.1591,1.156,0.0,1.0579,1.039,1.0161,0.9486,0.8844,0.8624,0.9285,0.8884,0.9156,1.1083,1.1093,1.0808,1.0506,1.1564,1.1966,1.1186,1.2489,1.3455,1.3492,1.2826,1.2709,1.3455,1.204,1.1521,1.2268,1.1521,1.1818,1.3309,1.2636,1.2144,1.1822,1.0121,0.9188,0.8889,0.794,0.8313,0.9739,0.9836,1.0734,1.2078,1.1567,1.1362,1.1302,1.0814,1.0593,1.0593,1.0593,1.0593,1.0593,0.0,0.0,0.0,0.0,0.0,0.0,0.0,0.0,0.0,0.0,0.9263,0.9451,0.9608,0.9548,0.9516,0.0,0.0,0.0,0.0,0.0,0.0,0.0,0.0,0.0,0.0,1.0593,1.0593,1.0593,1.0593,1.0593,1.0593,1.0593,1.0593,1.0593,1.0593,1.0301,0.0,0.0,0.0,0.0,0.0,0.0,0.0,0.0,0.0,0.0,1.0593,1.0593,0.0,0.0,0.0,0.0,0.0,0.0,0.0,0.0,1.1591,1.1591,1.1591,0.0,1.1591,1.1591,1.1591,1.1591,0.0,1.1146,1.0548,0.9869,0.9326,0.878,0.8102,0.7847,0.7836,0.8143,0.8206,0.8613,0.9886,1.113,1.1769,1.139,1.1916,1.1966,1.1186,1.2003,1.2826,1.3455,1.3309,1.3309,1.3492,1.2562,1.2114,1.2298,1.1521,1.1298,1.1669,1.2077,1.1669,1.0395,0.9787,0.9112,0.8289,0.7915,0.7872,0.8118,0.9151,0.9809,1.0206,1.0846,1.1096,1.1056,1.0734,1.0593,1.0593,1.0593,1.0593,1.0593,0.0,0.0,0.0,0.0,0.0,0.0,0.0,0.0,0.0,0.0,0.0,0.0,0.0,0.0,0.0,0.0,0.0,0.0,0.0,0.0,0.0,0.0,0.0,0.0,1.0593,1.0593,1.0593,1.0593,1.0593,1.0593,1.0593,1.0593,1.0593,1.0593,1.0593,1.0396,0.0,0.0,0.0,0.0,0.0,0.0,0.0,0.0,0.0,0.0,1.0104,1.0301,0.0,1.0199,1.0333,1.0656,0.0,0.0,0.0,0.0,1.1529,1.1591,1.1591,1.1591,1.1591,1.1591,1.1591,1.1591,1.1591,1.1279,1.08,1.0098,0.9422,0.8844,0.849,0.8166,0.8015,0.8213,0.8651,0.93,1.0233,1.1163,1.1583,1.112,1.1457,1.1595,1.1149,1.1818,1.2636,1.3455,1.3156,1.3119,1.3499,1.2378,1.1744,1.1744,1.1249,1.1021,1.1111,1.1426,1.1206,1.0438,0.9798,0.9163,0.8627,0.8063,0.8097,0.8642,0.9243,0.9726,1.0156,1.075,1.0824,1.056,1.0572,1.0593,1.0593,1.0593,1.0593,1.0593,0.0,0.0,0.0,0.0,0.0,0.0,0.0,0.0,0.0,0.0,0.0,0.0,0.0,0.0,0.0,0.0,0.0,0.0,0.0,0.0,0.0,0.0,0.0,1.0593,1.0593,1.0593,1.0593,1.0593,1.0593,1.0593,1.0593,1.0593,1.0593,1.0593,1.0593,1.053,0.0,0.0,0.0,0.0,0.0,0.0,0.0,0.0,0.0,0.0,0.0,0.0,0.0,0.9843,1.0072,1.0624,1.0776,0.0,0.0,0.0,0.0,0.0,1.1591,1.1591,1.1591,1.1591,1.1591,1.1591,1.1591,1.1591,1.1404,1.0643,1.0034,0.9614,0.9518,0.8969,0.8614,0.879,0.9552,1.0422,1.1335,1.1366,1.1077,1.0561,1.0746,1.0962,1.1074,1.1706,1.2469,1.3353,1.2793,1.2693,1.3309,1.2055,1.1249,1.1138,1.0978,1.09,1.0954,1.0689,1.0598,1.0679,0.9653,0.9237,0.9334,0.8441,0.8665,0.9766,0.9646,0.996,1.0563,1.0821,1.0594,1.0135,1.0463,1.0593,1.0593,1.0593,1.0593,1.0593,0.0,0.0,0.0,0.0,0.0,0.0,0.0,0.0,0.0,0.0,0.0,0.0,0.0,0.0,0.0,0.0,0.0,0.0,0.0,0.0,0.0,0.0,1.0498,1.0593,1.0593,1.0593,1.0593,1.0593,1.0593,1.0593,1.0593,1.0593,1.0593,1.0593,1.0593,1.0263,0.9652,0.0,0.0,0.0,0.8587,0.0,0.0,0.0,0.0,0.0,0.0,0.0,0.0,1.0263,1.0498,1.0624,1.0776,0.0,0.0,0.0,0.0,0.0,1.156,1.1591,1.1591,1.1591,1.1591,1.1591,1.1591,1.1591,1.1404,1.0643,1.0421,1.0161,0.9614,0.9084,0.8779,0.8783,0.9846,1.103,1.2024,1.2114,1.183,1.1085,1.046,1.0368,1.1037,1.1223,1.1788,1.2998,1.2976,1.2817,1.2653,1.2425,1.1971,1.1307,1.1227,1.0909,1.0254,0.9769,0.9276,0.8813,0.8636,0.8909,0.9561,0.9226,0.9112,0.9163,0.9801,0.9775,0.9346,1.0267,1.0589,1.0519,1.0575,1.0593,1.0593,1.0593,1.0593,1.0593,0.0,0.0,0.0,0.0,0.0,0.0,0.0,0.0,0.0,0.0,0.0,0.0,0.0,0.0,0.0,0.0,0.0,0.0,0.0,0.0,0.0,1.0466,1.0561,1.0593,1.0593,1.0593,1.0593,1.0593,1.0593,1.0593,1.0593,1.0593,1.0593,1.0593,1.0593,1.0396,1.004,0.9294,0.0,0.0,0.0,0.0,0.0,0.0,0.0,0.0,0.0,0.0,0.0,0.0,1.0269,1.0624,1.0681,0.0,0.0,0.0,0.0,0.0,1.156,1.1591,1.1591,1.1591,1.1591,1.1622,1.1685,1.1716,1.1615,1.1272,1.0919,1.0692,1.0724,1.0315,1.0242,1.0951,1.0993,1.1297,1.2168,1.1463,1.0705,1.0344,0.9495,0.9378,1.0563,1.0671,1.1227,1.2615,1.2745,1.2645,1.2499,1.2485,1.2139,1.1348,1.1188,1.0766,0.995,0.959,0.9207,0.8796,0.9219,0.9344,0.9197,0.9647,0.9814,0.9827,0.9996,0.9894,0.9587,1.0309,1.0364,1.004,1.0428,1.0593,1.0593,1.0593,1.0593,1.0593,0.0,0.0,0.0,0.0,0.0,0.0,0.0,0.0,0.0,0.0,0.0,0.0,0.0,0.0,0.0,0.0,0.0,0.0,0.0,0.0,1.0276,1.053,1.053,1.0561,1.0593,1.0593,1.0593,1.0593,1.0593,1.0593,1.0593,1.0593,1.0593,1.0593,1.0428,1.0333,1.0263,0.9037,0.8716,0.0,0.0,0.0,0.0,0.0,0.0,0.0,0.0,0.0,0.0,0.0,0.0,0.0,0.0,0.0,0.0,1.0769,1.1052,1.1334,1.1529,1.1591,1.1591,1.1591,1.1591,1.1676,1.1875,1.1921,1.1944,1.2082,1.1709,1.151,1.2002,1.167,1.1614,1.248,1.1999,1.1786,1.246,1.1197,1.0107,0.9871,0.9095,0.902,1.0199,1.0441,1.1035,1.2275,1.2375,1.238,1.2299,1.2299,1.2026,1.1377,1.1219,1.0829,1.0235,1.0065,0.9753,0.9282,0.9897,0.9829,0.9165,1.0048,1.0419,1.0366,1.0367,1.0222,1.0031,1.0483,1.0301,0.9811,1.0421,1.0656,1.0656,1.0624,1.0593,1.0593,0.0,0.0,0.0,0.0,0.0,0.0,0.0,0.0,0.0,0.0,0.0,0.0,0.0,0.0,0.0,0.0,0.0,0.0,0.0,0.0,0.9989,1.0308,1.0333,1.0396,1.0593,1.0593,1.0593,1.0593,1.0593,1.0593,1.0593,1.0593,1.0593,1.0561,0.9875,0.9582,0.9518,0.8812,0.8166,0.7619,0.0,0.0,0.0,0.0,0.0,0.0,0.0,0.0,0.0,0.0,0.0,0.0,0.0,0.0,0.9026,0.9856,1.0243,1.0566,1.1365,1.1591,1.1591,1.1591,1.1591,1.1735,1.2166,1.2265,1.242,1.2902,1.2971,1.2937,1.3004,1.2633,1.2119,1.1598,1.2221,1.2919,1.3364,1.2551,1.1574,1.0635,1.0176,1.0066,1.0268,1.0854,1.1438,1.1989,1.204,1.1941,1.1679,1.1657,1.1626,1.1563,1.1573,1.1534,1.1464,1.1442,1.0887,0.9762,0.9795,0.996,1.0199,1.0707,1.0638,1.0083,1.1002,1.085,1.0031,1.0572,1.0681,1.0523,1.0713,1.0776,1.0776,1.0656,1.0593,1.0593,0.0,0.0,0.0,0.0,0.0,0.0,0.0,0.0,0.0,0.0,0.0,0.0,0.0,0.0,0.0,0.0,0.0,0.0,0.0,0.0,1.0053,1.0301,1.0301,1.0403,1.0593,1.0593,1.0593,1.0593,1.0593,1.0593,1.0593,1.0593,1.0364,0.9907,0.962,0.9262,0.8844,0.8166,0.7749,0.7456,0.7003,0.0,0.0,0.0,0.0,0.0,0.0,0.0,0.0,0.0,0.849,0.849,0.849,0.8581,0.8801,0.925,0.9532,0.9856,1.0699,1.0926,1.1021,1.1498,1.1591,1.1774,1.2357,1.2337,1.2316,1.2821,1.2924,1.3022,1.3351,1.3172,1.2893,1.2721,1.2854,1.3006,1.3169,1.2342,1.1492,1.0808,1.0249,0.9978,1.0104,1.0542,1.1055,1.1687,1.1736,1.1716,1.1599,1.1591,1.1591,1.1591,1.1591,1.1591,1.1591,1.1591,1.136,1.0926,1.1077,1.0902,1.045,1.1254,1.1306,1.0829,1.1212,1.1035,1.0509,1.0721,1.0776,1.0744,1.0933,1.0902,1.08,1.0744,1.0681,1.0593,0.0,0.0,0.0,0.0,0.0,0.0,0.0,0.0,0.0,0.0,0.0,0.0,0.0,0.0,0.0,0.0,0.0,0.0,0.983,0.9894,1.0021,1.0206,1.0269,1.0403,1.0593,1.0593,1.0593,1.0593,1.0593,1.0593,1.0593,1.0593,1.0333,0.9843,0.939,0.8941,0.8458,0.7521,0.7167,0.7101,0.6613,0.6387,0.0,0.0,0.0,0.0,0.0,0.0,0.0,0.0,0.7842,0.7842,0.7842,0.7934,0.8156,0.857,0.8988,0.9474,1.0288,1.0674,1.0958,1.1466,1.1591,1.1774,1.2461,1.2418,1.2412,1.2937,1.3048,1.3057,1.3119,1.3286,1.3302,1.3087,1.3142,1.3153,1.3053,1.2397,1.1621,1.0803,1.0591,1.0376,1.0015,1.0534,1.1115,1.156,1.1591,1.1591,1.1591,1.1591,1.1591,1.1591,1.1591,1.1591,1.1591,1.1591,1.1591,1.1599,1.178,1.1383,1.0523,1.1461,1.1574,1.1052,1.1279,1.124,1.0958,1.0902,1.0902,1.0902,1.1059,1.1028,1.0902,1.0902,1.0776,1.0624,0.0,0.0,0.0,0.0,0.0,0.0,0.0,0.0,0.0,0.0,0.0,0.0,0.0,0.0,0.0,0.0,0.0,0.0,0.9516,0.9676,0.9862,0.9983,1.018,1.0403,1.0593,1.0593,1.0593,1.0593,1.0593,1.0593,1.0593,1.0593,1.0593,1.053,0.9134,0.8522,0.8393,0.7003,0.642,0.642,0.642,0.6387,0.0,0.0,0.0,0.0,0.0,0.0,0.0,0.0,0.6387,0.6387,0.6387,0.0,0.6868,0.7735,0.8603,0.9436,1.025,1.1021,1.1591,1.1591,1.1591,1.1774,1.2453,1.2601,1.2783,1.3472,1.361,1.331,1.2301,1.2934,1.3276,1.226,1.2934,1.3457,1.3132,1.2923,1.2225,1.0681,1.1445,1.1545,1.0142,1.1101,1.1747,1.1622,1.1591,1.1591,1.1591,1.1591,1.1591,1.1591,1.1591,1.1591,1.1591,1.1591,1.1591,1.1591,1.1591,1.1216,1.0548,1.1279,1.1209,1.0548,1.1279,1.1498,1.1279,1.1153,1.109,1.109,1.109,1.109,1.109,1.109,1.0902,1.0624,0.0,0.0,0.0,0.0,0.0,0.0,0.0,0.0,0.0,0.0,0.0,0.0,0.0,0.0,0.0,0.0,0.0,0.0,0.9516,0.9676,0.9862,0.9983,1.018,1.0403,1.0593,1.0593,1.0593,1.0593,1.0593,1.0593,1.0593,1.0593,1.0333,0.9811,0.939,0.8941,0.8458,0.7554,0.7167,0.7134,0.6613,0.6387,0.0,0.0,0.0,0.0,0.0,0.0,0.0,0.0,0.0,0.0,0.6387,0.0,0.6556,0.6926,0.7306,0.7812,0.8637,0.9474,1.0256,1.0706,1.1303,1.1832,1.2156,1.2249,1.2436,1.3099,1.3243,1.3241,1.3171,1.3197,1.3137,1.2837,1.2868,1.2861,1.2766,1.2687,1.2203,1.0989,1.167,1.1802,1.0667,1.1296,1.1771,1.1747,1.1654,1.1591,1.1591,1.1591,1.1591,1.1591,1.1591,1.1591,1.1591,1.1591,1.1591,1.1591,1.1591,1.1498,1.1279,1.1498,1.1466,1.1279,1.1498,1.1498,1.1303,1.1272,1.1247,1.124,1.1404,1.1373,1.1247,1.1247,1.1122,1.0933,0.0,0.0,0.0,0.0,0.0,0.0,0.0,0.0,0.0,0.0,0.0,0.0,0.0,0.0,0.0,0.0,0.0,0.0,0.0,0.0,0.9926,0.9983,1.0269,1.0466,1.0593,1.0593,1.0593,1.0593,1.0593,1.0593,1.0593,1.0593,1.0364,0.9939,0.9646,0.9262,0.8844,0.7907,0.7489,0.7428,0.6712,0.6387,0.6387,0.0,0.0,0.0,0.0,0.0,0.0,0.0,0.0,0.0,0.6387,0.6367,0.6427,0.699,0.7386,0.7825,0.8831,0.9718,1.044,1.0832,1.1334,1.1778,1.2027,1.2189,1.2406,1.2806,1.2909,1.2973,1.3172,1.3044,1.2909,1.2909,1.2734,1.259,1.259,1.259,1.2274,1.1428,1.1957,1.2089,1.1216,1.1646,1.1996,1.1934,1.1778,1.1685,1.1685,1.1622,1.1591,1.1591,1.1591,1.1591,1.1591,1.1591,1.1591,1.1591,1.1591,1.1591,1.1591,1.1591,1.1591,1.1591,1.1591,1.1498,1.1303,1.1404,1.1373,1.1334,1.1529,1.1466,1.1303,1.1404,1.1279,1.109,0.0,0.0,0.0,0.0,0.0,0.0,0.0,0.0,0.0,0.0,0.0,0.0,0.0,0.0,0.0,0.0,0.0,0.0,0.0,0.0,0.9989,0.9983,1.0403,1.0593,1.0593,1.0593,1.0593,1.0593,1.0593,1.0593,1.0593,1.0593,1.0593,1.0561,0.9907,0.9614,0.9518,0.8166,0.7587,0.7521,0.6712,0.6387,0.6387,0.6387,0.0,0.0,0.0,0.0,0.0,0.0,0.0,0.0,0.6387,0.6294,0.6426,0.7555,0.8222,0.8842,0.9989,1.0874,1.1498,1.1498,1.156,1.1716,1.2058,1.2375,1.259,1.259,1.259,1.259,1.259,1.259,1.259,1.259,1.259,1.259,1.259,1.259,1.2406,1.1872,1.2274,1.2344,1.1685,1.2027,1.2243,1.2127,1.1934,1.1833,1.1802,1.1685,1.1622,1.1591,1.1591,1.1591,1.1591,1.1591,1.1591,1.1591,1.1591,1.1591,1.1591,1.1591,1.1591,1.1591,1.1591,1.1498,1.1341,1.1529,1.1498,1.1334,1.1529,1.1498,1.1334,1.1529,1.1404,1.1153,0.0,0.0,0.0,0.0,0.0,0.0,0.0,0.0,0.0,0.0,0.0,0.0,0.0,0.0,0.0,0.0,0.0,0.0,0.0,0.0,0.9894,0.9983,1.0403,1.0593,1.0593,1.0593,1.0593,1.0593,1.0593,1.0593,1.0593,1.0593,1.0593,1.0593,1.0428,1.0364,1.0269,0.8877,0.8296,0.8166,0.6905,0.6387,0.6387,0.6387,0.6387,0.0,0.0,0.0,0.0,0.0,0.0,0.0,0.6387,0.6294,0.6278,0.6759,0.7392,0.8021,0.8547,0.9681,1.0737,1.0737,1.1373,1.2027,1.2212,1.2436,1.259,1.259,1.259,1.259,1.259,1.259,1.259,1.259,1.259,1.259,1.259,1.259,1.2406,1.1872,1.2274,1.2375,1.1809,1.2089,1.2274,1.2274,1.212,1.1965,1.1809,1.1771,1.1716,1.1591,1.1591,1.1591,1.1591,1.1591,1.1591,1.1591,1.1591,1.1591,1.1591,1.1591,1.1591,1.1591,1.1591,1.1591,1.1529,1.1591,1.156,1.1529,1.1591,1.156,1.1529,1.1591,1.156,1.1466,0.0,0.0,0.0,0.0,0.0,0.0,0.0,0.0,0.0,0.0,0.0,0.0,0.0,0.0,0.0,0.0,0.0,0.0,0.0,0.0,0.9011,0.9486,0.9817,1.0142,1.0466,1.0561,1.0593,1.0593,1.0593,1.0593,1.0593,1.0593,1.0593,1.0593,1.0593,1.0396,1.0002,0.8941,0.8328,0.7939,0.6839,0.6387,0.6408,0.6323,0.6343,0.6408,0.6319,0.0,0.0,0.0,0.0,0.0,0.0,0.0,0.6318,0.6944,0.7409,0.7913,0.8927,0.9825,1.0579,1.0926,1.1498,1.1996,1.2182,1.2344,1.242,1.2337,1.2471,1.259,1.259,1.259,1.259,1.259,1.259,1.259,1.259,1.259,1.2498,1.2212,1.2436,1.2498,1.2212,1.2336,1.2428,1.2428,1.2274,1.212,1.1965,1.1833,1.1747,1.1591,1.1591,1.1591,1.1591,1.1591,1.1591,1.1591,1.1591,1.1591,1.1591,1.1591,1.1591,1.1591,1.1591,1.1591,1.1591,1.1591,1.1591,1.1591,1.1591,1.1591,1.1591,1.1591,1.1591,1.1591,0.0,0.0,0.0,0.0,0.0,0.0,0.0,0.0,0.0,0.0,0.0,0.0,0.0,0.0,0.0,0.0,0.0,0.0,0.0,0.7674,0.8027,0.8731,0.9005,0.9364,0.9919,1.0238,1.0396,1.0396,1.053,1.062,1.0667,1.062,1.0593,1.0593,1.0466,1.0072,0.9454,0.8651,0.8004,0.7428,0.6712,0.6387,0.64,0.6282,0.6298,0.6351,0.6233,0.6273,0.6371,0.6371,0.0,0.0,0.0,0.0,0.6371,0.7256,0.7587,0.7996,0.9528,1.0218,1.0674,1.1404,1.1716,1.184,1.1996,1.2135,1.2164,1.1994,1.2305,1.2574,1.2511,1.2551,1.259,1.259,1.259,1.259,1.259,1.259,1.259,1.259,1.259,1.259,1.259,1.259,1.259,1.259,1.2467,1.2274,1.2151,1.1965,1.1809,1.1654,1.1622,1.1622,1.1591,1.1591,1.1591,1.1591,1.1591,1.1591,1.1591,1.1591,1.1591,1.1591,1.1591,1.1591,1.1591,1.1591,1.1591,1.1591,1.1591,1.1591,1.1591,1.1591,1.1591,1.1591,0.0,0.0,0.0,0.0,0.0,0.0,0.0,0.0,0.0,0.0,1.0593,1.053,1.0371,1.0079,0.0,0.0,0.0,0.0,0.7484,0.0,0.0,0.7869,0.8183,0.8382,0.849,0.9262,0.9646,0.9646,1.0301,1.072,1.0929,1.0713,1.0593,1.0561,0.9939,0.9582,0.9422,0.8166,0.7587,0.7428,0.6712,0.6387,0.6383,0.6392,0.6298,0.6212,0.6215,0.6223,0.6212,0.6212,0.629,0.0,0.0,0.0,0.6276,0.6713,0.7108,0.758,0.8292,0.9454,1.0674,1.1404,1.1716,1.1809,1.1833,1.1859,1.1875,1.1821,1.2253,1.2495,1.2146,1.2345,1.259,1.259,1.259,1.259,1.259,1.259,1.259,1.259,1.259,1.259,1.259,1.259,1.259,1.259,1.259,1.2467,1.2274,1.2243,1.2081,1.1771,1.1771,1.1716,1.1591,1.1591,1.1591,1.1591,1.1591,1.1591,1.1591,1.1591,1.1591,1.1591,1.1591,1.1591,1.1591,1.1591,1.1591,1.1591,1.1591,1.1591,1.1591,1.1591,1.1591,1.1591,0.0,0.0,0.0,0.0,0.0,0.0,0.0,0.0,0.0,0.0,0.0,1.0561,1.0466,0.9843,0.0,0.0,0.0,0.0,0.6309,0.6375,0.0,0.0,0.7279,0.767,0.8064,0.9,0.9486,0.9486,1.0231,1.074,1.0989,1.0894,1.0889,1.1035,1.0542,1.0139,0.9729,0.8965,0.8199,0.7456,0.7134,0.6842,0.655,0.6343,0.631,0.6274,0.6102,0.6033,0.6049,0.6174,0.6229,0.6314,0.6388,0.0,0.0,0.0,0.6746,0.7264,0.8484,0.957,1.0573,1.1404,1.1654,1.1716,1.1771,1.1813,1.1722,1.1465,1.1805,1.212,1.2014,1.2146,1.2329,1.2558,1.259,1.259,1.259,1.259,1.259,1.259,1.259,1.259,1.259,1.259,1.259,1.259,1.259,1.2498,1.2305,1.2305,1.2151,1.1809,1.1802,1.1747,1.1591,1.1591,1.1591,1.1591,1.1591,1.1591,1.1591,1.1591,1.1591,1.1591,1.1591,1.1591,1.1591,1.1591,1.1591,1.1591,1.1591,1.1591,1.1591,1.1591,1.1591,1.1591,0.0,0.0,0.0,0.0,0.0,0.0,0.0,0.0,0.0,0.0,0.0,0.0,1.0593,0.0,0.0,0.0,0.0,0.0,0.5458,0.0,0.0,0.0,0.0,0.692,0.7702,0.8672,0.9288,0.9486,1.0231,1.078,1.1102,1.1102,1.1296,1.1595,1.1015,1.0454,0.9965,0.9471,0.8716,0.7861,0.7861,0.7502,0.6937,0.6766,0.6576,0.6351,0.6116,0.5994,0.6004,0.6135,0.6208,0.6265,0.6319,0.6351,0.0,0.0,0.0,0.6969,0.8554,0.9372,1.0021,1.1052,1.131,1.1404,1.1677,1.1704,1.1541,1.1107,1.1295,1.1555,1.1671,1.18,1.1972,1.2272,1.2391,1.2455,1.2455,1.2535,1.259,1.259,1.259,1.259,1.259,1.259,1.259,1.259,1.259,1.2529,1.2367,1.2367,1.2243,1.1934,1.1903,1.1809,1.1654,1.1622,1.1591,1.1591,1.1591,1.1591,1.1591,1.1591,1.1591,1.1591,1.1591,1.1591,1.1591,1.1591,1.1591,1.1591,1.1591,1.1591,1.1591,1.1591,1.1591,1.1591,0.0,0.0,0.0,0.0,0.0,0.0,0.0,0.0,0.0,0.0,0.0,0.0,1.0593,1.0206,0.9428,0.8124,0.0,0.0,0.0,0.0,0.0,0.0,0.0,0.0,0.6924,0.7822,0.8667,0.9486,1.0231,1.0881,1.1369,1.1369,1.1703,1.2181,1.0713,1.0016,0.9931,0.8978,0.8652,0.8818,0.8818,0.8363,0.7694,0.7971,0.7391,0.6383,0.6363,0.6278,0.6195,0.6207,0.6294,0.6375,0.6241,0.6223,0.6159,0.0,0.0,0.0,0.7777,0.8194,0.8683,1.0193,1.0548,1.0737,1.1466,1.1471,1.1234,1.0883,1.0778,1.0771,1.0841,1.1221,1.1527,1.1543,1.1821,1.2014,1.2014,1.2375,1.259,1.259,1.259,1.259,1.259,1.259,1.259,1.259,1.259,1.259,1.259,1.259,1.2498,1.2274,1.2151,1.1996,1.1802,1.1654,1.1591,1.1591,1.1591,1.1591,1.1591,1.1591,1.1591,1.1591,1.1591,1.1591,1.1591,1.1591,1.1591,1.1591,1.1591,1.1591,1.1591,1.1591,1.1591,1.1591,0.0,0.0,0.0,0.0,0.0,0.0,0.0,0.0,0.0,0.0,0.0,0.0,0.0,1.0238,0.962,0.8737,0.7474,0.0,0.0,0.0,0.0,0.0,0.0,0.0,0.0,0.8064,0.8877,0.8877,1.004,1.0794,1.1149,1.1149,1.1263,1.1456,1.1085,1.089,1.0865,1.0166,0.9643,0.9299,0.9299,0.9036,0.8606,0.7991,0.7606,0.7254,0.6521,0.6159,0.6029,0.617,0.622,0.6265,0.6232,0.6207,0.6174,0.5971,0.6072,0.6472,0.7378,0.785,0.835,0.9442,1.0123,1.0579,1.0832,1.1186,1.1388,1.1056,1.0868,1.0723,1.0627,1.0927,1.132,1.1757,1.1932,1.2099,1.2337,1.2511,1.259,1.259,1.259,1.259,1.259,1.259,1.259,1.259,1.259,1.259,1.259,1.2367,1.2231,1.2297,1.2026,1.1867,1.1802,1.1654,1.1591,1.1591,1.1591,1.1591,1.1591,1.1591,1.1591,1.1591,1.1591,1.1591,1.1591,1.1591,1.1591,1.1591,1.1591,1.1591,1.1591,1.1591,1.1591,1.1591,0.0,0.0,0.0,0.0,0.0,0.0,0.0,0.0,0.0,1.0593,0.0,0.0,0.0,0.0,0.9364,0.8318,0.6953,0.6108,0.6075,0.0,0.0,0.0,0.0,0.0,0.0,0.8328,0.9011,0.9198,1.0136,1.074,1.0995,1.0995,1.1042,1.1142,1.1236,1.1283,1.1249,1.0801,1.0385,1.0019,1.0113,0.9712,0.9008,0.8516,0.7962,0.7396,0.6709,0.6298,0.6083,0.6233,0.6269,0.6249,0.6126,0.6008,0.5898,0.5811,0.5951,0.6227,0.6902,0.7354,0.7837,0.8705,0.9384,0.9939,1.039,1.0863,1.1217,1.1113,1.1019,1.0883,1.0645,1.0868,1.1233,1.1594,1.1839,1.2107,1.2375,1.2519,1.259,1.259,1.259,1.259,1.259,1.259,1.259,1.259,1.2479,1.2415,1.2415,1.2035,1.1915,1.2118,1.1908,1.1835,1.1895,1.1809,1.1716,1.1654,1.1747,1.1716,1.1591,1.1654,1.1654,1.1591,1.1591,1.1591,1.1591,1.1591,1.1591,1.1591,1.1591,1.1591,1.1591,1.1591,1.1591,1.1591,0.0,0.0,0.0,0.0,0.0,0.0,0.0,0.0,1.0593,1.0593,0.0,0.0,0.0,0.0,0.0,0.69,0.6079,0.5583,0.5462,0.6042,0.0,0.0,0.0,0.0,0.8924,0.8484,0.9005,1.0561,1.0593,1.0734,1.0982,1.0982,1.1129,1.1355,1.1102,1.0982,1.0962,1.0713,1.076,1.1015,1.1255,1.0396,0.8981,0.9646,0.8614,0.685,0.6993,0.6798,0.6465,0.6465,0.6428,0.6367,0.6006,0.5624,0.5349,0.5543,0.575,0.5963,0.0,0.0,0.0,0.7944,0.8328,0.8877,1.0161,1.0485,1.0656,1.103,1.1197,1.1204,1.0883,1.1073,1.1235,1.1055,1.1554,1.199,1.2035,1.2337,1.259,1.259,1.259,1.259,1.259,1.259,1.259,1.259,1.2234,1.1998,1.199,1.1686,1.1589,1.1789,1.1813,1.1895,1.2089,1.2096,1.1996,1.1802,1.1996,1.1934,1.1622,1.1747,1.1716,1.1622,1.1591,1.1591,1.1591,1.1591,1.1591,1.1591,1.1591,1.1591,1.1591,1.1591,1.1591,1.1591,0.0,0.0,0.0,0.0,0.0,1.0593,1.0593,1.0593,1.0593,0.0,0.0,0.0,1.0593,0.9817,0.9043,0.8431,0.7251,0.647,0.6346,0.6013,0.5811,0.5811,0.6699,0.7349,0.7697,0.8871,0.9594,0.9811,1.0333,1.0633,1.0713,1.0713,1.0754,1.0827,1.0747,1.0713,1.0707,1.0626,1.076,1.0982,1.0888,1.0895,1.0969,1.0239,0.9852,0.9578,0.8946,0.8279,0.7706,0.7706,0.7237,0.6554,0.622,0.5951,0.575,0.5799,0.5967,0.615,0.623,0.0,0.0,0.0,0.0,0.0,0.9678,1.0573,1.1313,1.1443,1.1299,1.1167,1.116,1.1233,1.1298,1.1345,1.1717,1.2107,1.2377,1.2527,1.259,1.259,1.259,1.259,1.259,1.259,1.259,1.259,1.2503,1.2297,1.2035,1.1686,1.1535,1.1573,1.1709,1.1955,1.2243,1.2158,1.1996,1.1802,1.1996,1.1965,1.1747,1.1771,1.1771,1.1747,1.1654,1.1591,1.1591,1.1591,1.1591,1.1591,1.1591,1.1591,1.1591,1.1591,1.1591,1.1591,0.0,0.0,0.0,0.0,0.0,1.0593,1.0593,1.0593,1.0593,0.0,0.0,0.0,1.0168,0.982,0.9223,0.8333,0.7512,0.6826,0.6379,0.6243,0.6108,0.6046,0.6798,0.7284,0.754,0.8651,0.9332,0.9486,1.0231,1.0593,1.0593,1.0593,1.0593,1.0593,1.0593,1.0593,1.0593,1.0593,1.0687,1.0854,1.0928,1.1015,1.1047,1.0615,1.036,1.0142,0.9676,0.8933,0.8191,0.8191,0.748,0.653,0.6269,0.6057,0.5888,0.5888,0.6041,0.6207,0.6207,0.6439,0.6741,0.6881,0.0,0.0,0.939,1.0345,1.1216,1.1529,1.1445,1.1336,1.1396,1.1457,1.1541,1.1601,1.1843,1.2132,1.2436,1.256,1.259,1.259,1.2726,1.2758,1.2606,1.2726,1.275,1.2606,1.2455,1.2115,1.1622,1.1257,1.1221,1.1479,1.16,1.1925,1.2428,1.2344,1.2212,1.2027,1.2212,1.2158,1.1934,1.1996,1.1934,1.1802,1.1716,1.1654,1.1591,1.1591,1.1591,1.1591,1.1591,1.1591,1.1591,1.1591,1.1591,1.1591,0.0,0.0,1.0593,1.0593,1.062,1.064,1.064,1.064,1.0653,0.0,1.0687,1.0424,0.977,0.9894,0.9318,0.7653,0.7423,0.7022,0.6218,0.6634,0.6863,0.6741,0.683,0.7251,0.7994,0.8231,0.8748,0.962,1.0269,1.0593,1.0593,1.0593,1.0593,1.0593,1.0593,1.0593,1.0593,1.0593,1.0613,1.0687,1.1169,1.0884,1.0288,1.0942,1.0568,0.9721,0.9838,0.9315,0.8502,0.8305,0.7492,0.6568,0.633,0.6131,0.5973,0.5953,0.6086,0.624,0.6335,0.6548,0.6839,0.704,0.7749,0.0,0.9422,1.0098,1.0769,1.1466,1.1591,1.1591,1.1591,1.1716,1.1771,1.1771,1.1934,1.212,1.2274,1.2436,1.2545,1.2584,1.283,1.2893,1.2647,1.2869,1.2901,1.2614,1.2226,1.1733,1.109,1.0775,1.0886,1.1471,1.1527,1.1905,1.259,1.259,1.2498,1.2305,1.2498,1.2436,1.2127,1.2243,1.2151,1.1833,1.184,1.1747,1.1622,1.1622,1.1622,1.1591,1.1591,1.1591,1.1591,1.1591,1.1591,1.1591,0.0,1.0593,1.0593,1.0593,1.0787,1.0909,1.0909,1.0909,1.0995,1.1229,1.1256,1.1188,1.1047,1.0422,0.9865,0.9474,0.8728,0.8096,0.7777,0.7381,0.7051,0.6863,0.6892,0.7284,0.8134,0.8786,0.9498,1.0396,1.053,1.0593,1.0593,1.0593,1.0593,1.0593,1.0593,1.0593,1.0593,1.0593,1.0727,1.0915,1.1035,1.1255,1.1535,1.167,1.1735,1.173,1.1752,1.1255,1.0293,0.8853,0.8192,0.7851,0.6911,0.6592,0.6509,0.6359,0.6339,0.6494,0.7075,0.7298,0.7521,0.8194,0.8935,0.0,1.0053,1.0661,1.124,1.1529,1.1591,1.1591,1.1591,1.1622,1.1654,1.1654,1.1771,1.1934,1.212,1.2158,1.2289,1.2488,1.2374,1.2429,1.2734,1.2594,1.2507,1.2598,1.2226,1.1837,1.1416,1.1328,1.1352,1.1515,1.1765,1.2123,1.259,1.259,1.2498,1.2305,1.2498,1.2467,1.2274,1.2274,1.2274,1.2212,1.2089,1.1934,1.1771,1.1771,1.1716,1.1591,1.1591,1.1591,1.1591,1.1591,1.1591,1.1591,1.0593,1.0593,1.064,1.0787,1.0895,1.1042,1.1189,1.1209,1.1316,1.161,1.1777,1.1715,1.1422,1.0984,1.0506,1.0028,0.9382,0.8812,0.8393,0.8032,0.7772,0.7549,0.7544,0.7739,0.8188,0.8909,0.9562,1.004,1.0428,1.0593,1.0593,1.0593,1.0593,1.0593,1.0593,1.0593,1.0593,1.0593,1.0673,1.0834,1.1096,1.1476,1.1919,1.2067,1.2178,1.2305,1.2305,1.1781,1.0859,0.9316,0.8623,0.827,0.745,0.7022,0.689,0.7009,0.7053,0.7194,0.7839,0.8004,0.8134,0.8613,0.9288,0.0,0.0,1.0692,1.1216,1.1341,1.1404,1.1384,1.1225,1.1288,1.1349,1.1349,1.141,1.1523,1.1818,1.1996,1.2158,1.2287,1.2341,1.238,1.2436,1.2499,1.2555,1.2606,1.2226,1.194,1.1765,1.1582,1.1567,1.1749,1.1895,1.2194,1.259,1.259,1.256,1.2467,1.256,1.256,1.2467,1.2467,1.2398,1.2305,1.2212,1.2058,1.1809,1.1903,1.184,1.1685,1.1622,1.1654,1.1685,1.1622,1.1591,1.1591,1.0593,1.0593,1.0667,1.0901,1.1002,1.1156,1.1355,1.1435,1.1617,1.1917,1.2204,1.2231,1.1782,1.1628,1.1274,1.0585,1.0118,0.9636,0.9083,0.8875,0.8701,0.8463,0.8328,0.8323,0.8436,0.9037,0.946,0.9716,1.0301,1.0593,1.0593,1.0593,1.0593,1.0593,1.0593,1.0593,1.0593,1.0593,1.066,1.0801,1.1236,1.1536,1.1772,1.2084,1.2218,1.2218,1.2218,1.1775,1.0973,0.9847,0.9215,0.8757,0.8239,0.7693,0.7357,0.7688,0.7737,0.7836,0.8417,0.8619,0.878,0.9069,0.955,0.9996,0.0,0.0,0.0,1.109,1.1185,1.1162,1.0906,1.0934,1.1039,1.1128,1.1084,1.1194,1.1547,1.184,1.2026,1.2087,1.2277,1.233,1.2148,1.2474,1.2672,1.2553,1.2289,1.2091,1.199,1.1813,1.1797,1.1982,1.2083,1.2266,1.259,1.259,1.259,1.259,1.259,1.259,1.259,1.259,1.2498,1.2367,1.2367,1.2182,1.1903,1.2058,1.2027,1.1864,1.1716,1.1716,1.1771,1.1654,1.1622,1.1622,1.0593,1.0593,1.06,1.0633,1.1035,1.1349,1.1389,1.165,1.1924,1.2218,1.2549,1.2817,1.2986,1.2525,1.2261,1.2488,1.1691,1.1153,1.1085,1.0302,0.97,0.937,0.878,0.8742,0.9352,0.9422,0.9811,1.0491,1.0561,1.0593,1.0593,1.0593,1.0593,1.0593,1.0593,1.0593,1.0593,1.0593,1.0855,1.1295,1.1369,1.1289,1.1156,1.1745,1.1953,1.1953,1.1953,1.1715,1.1272,1.0723,1.0473,1.0311,0.9599,0.8871,0.8234,0.8144,0.7919,0.787,0.8583,0.9084,0.955,1.0231,1.046,1.0523,1.0674,0.0,1.087,1.1059,0.0,1.1115,1.108,0.0,0.0,1.121,1.1077,1.1073,1.1547,1.1622,1.1725,1.198,1.1828,1.1872,1.2253,1.2334,1.2352,1.2344,1.2458,1.2391,1.2006,1.2289,1.2343,1.1998,1.2359,1.2551,1.259,1.259,1.259,1.259,1.259,1.259,1.259,1.259,1.259,1.256,1.256,1.2428,1.2243,1.2274,1.2274,1.2212,1.1895,1.1778,1.1771,1.1654,1.1685,1.1771,1.0593,1.0593,1.0646,1.0814,1.1009,1.1289,1.163,1.2231,1.2625,1.2603,1.2973,1.3253,1.3213,1.2819,1.265,1.277,1.2251,1.1864,1.1697,1.1129,1.0746,1.0624,1.0044,0.9918,1.0373,1.0219,1.0295,1.0593,1.0593,1.0593,0.0,0.0,1.0593,1.06,1.0767,1.0847,1.0847,1.0847,1.0955,1.1176,1.1176,1.1169,1.1241,1.1901,1.2053,1.1879,1.167,1.153,1.1348,1.0994,1.0816,1.0617,1.0107,0.9638,0.9195,0.8888,0.8683,0.8653,0.908,0.9053,0.9198,1.0333,1.0269,1.0104,1.0586,1.0681,1.0713,1.0776,0.0,0.0,0.0,0.0,0.0,0.0,1.0546,1.0536,1.1322,1.1529,1.1643,1.1743,1.1672,1.1713,1.1972,1.2017,1.2081,1.2274,1.2367,1.2396,1.2345,1.2511,1.2527,1.2337,1.2511,1.259,1.259,1.259,1.259,1.259,1.259,1.259,1.259,1.259,1.259,1.259,1.259,1.2498,1.2305,1.2436,1.2398,1.2274,1.2151,1.2027,1.1965,1.1778,1.174,1.1802,1.0593,1.0593,1.066,1.0868,1.1009,1.1336,1.2047,1.2665,1.306,1.3038,1.3373,1.3553,1.3467,1.318,1.3065,1.3146,1.2772,1.2465,1.2288,1.1877,1.1595,1.155,1.1022,1.0807,1.0989,1.074,1.0593,1.0593,1.0593,1.0593,0.0,0.0,1.0593,1.0606,1.0894,1.0995,1.0995,1.1082,1.1162,1.1236,1.1236,1.1418,1.1683,1.2026,1.1966,1.171,1.141,1.1256,1.1169,1.1035,1.0903,1.0765,1.0565,1.029,0.9929,0.9585,0.9436,0.944,0.9539,0.9347,0.9358,1.0364,1.0199,0.9939,1.0491,1.0593,1.0593,1.0593,1.0681,0.0,0.0,0.0,0.9877,1.0557,0.0,1.0262,1.1135,1.1373,1.1498,1.1591,1.1591,1.1654,1.1747,1.1771,1.1926,1.2212,1.2274,1.2398,1.259,1.259,1.259,1.259,1.259,1.259,1.259,1.259,1.259,1.259,1.259,1.259,1.259,1.259,1.259,1.259,1.259,1.2529,1.2398,1.2529,1.2498,1.2367,1.2367,1.2274,1.212,1.1965,1.1903,1.1934,1.0593,1.0593,1.0593,1.06,1.1042,1.171,1.2623,1.2777,1.3005,1.35,1.3593,1.3706,1.4028,1.3753,1.3686,1.4015,1.3514,1.318,1.3166,1.2605,1.2151,1.1906,1.1323,1.0982,1.0995,1.074,1.0593,1.0593,1.0593,1.0593,0.0,0.0,1.0593,1.0606,1.0894,1.0995,1.1009,1.1289,1.1577,1.1873,1.1873,1.2155,1.2497,1.1943,1.1587,1.1369,1.1109,1.0861,1.066,1.0935,1.1009,1.1036,1.1275,1.0817,1.0206,1.0182,1.0065,0.9962,0.9822,1.025,1.0706,1.0624,1.0593,1.0561,1.0593,1.0593,1.0593,1.0593,1.0593,1.0586,1.0579,1.0314,1.0238,1.0714,1.0547,0.0,0.0,1.1122,1.1247,1.156,1.1591,1.1591,1.1622,1.1716,1.1903,1.2089,1.2212,1.2398,1.259,1.259,1.259,1.259,1.259,1.259,1.259,1.259,1.259,1.259,1.259,1.259,1.259,1.259,1.259,1.259,1.259,1.259,1.259,1.259,1.259,1.259,1.259,1.2467,1.2274,1.2151,1.2182,1.2274,1.1136,1.1136,1.1009,1.066,1.0914,1.1436,1.2318,1.2792,1.3193,1.3553,1.3773,1.3975,1.4075,1.4001,1.3975,1.4082,1.3901,1.3707,1.3467,1.2933,1.2683,1.2752,1.1804,1.1463,1.185,1.1196,1.0842,1.0842,1.0687,1.0593,0.0,0.0,0.0,1.0606,1.0894,1.1102,1.1283,1.1349,1.1597,1.1906,1.219,1.2404,1.2558,1.2332,1.2109,1.1893,1.173,1.1525,1.1349,1.1586,1.1654,1.1674,1.1771,1.1532,1.1075,1.0543,1.0284,1.0106,0.9959,0.9771,0.9799,1.0548,1.039,1.0168,1.0523,1.0593,1.0593,1.0593,1.0593,1.0593,1.0593,1.0122,0.9926,1.0573,1.0273,1.0209,0.0,1.0908,1.1043,1.1344,1.1529,1.1591,1.1591,1.1654,1.1716,1.1903,1.2058,1.2251,1.2398,1.2529,1.259,1.259,1.259,1.259,1.259,1.259,1.259,1.259,1.259,1.259,1.259,1.259,1.259,1.259,1.259,1.259,1.259,1.259,1.259,1.259,1.259,1.256,1.2467,1.2305,1.2274,1.2305,1.1415,1.1389,1.1309,1.0929,1.1196,1.1724,1.2505,1.3046,1.3433,1.372,1.3968,1.4088,1.4088,1.4088,1.4088,1.4088,1.4088,1.4008,1.3773,1.334,1.3153,1.3313,1.2418,1.2024,1.2291,1.165,1.1202,1.0995,1.0841,1.0693,0.0,0.0,0.0,0.0,1.0969,1.1249,1.1409,1.172,1.1921,1.2096,1.2498,1.2725,1.2835,1.2827,1.2571,1.2191,1.2054,1.1908,1.184,1.1942,1.2017,1.1996,1.185,1.1741,1.1518,1.0876,1.0653,1.0549,1.0429,1.0117,0.9983,1.0737,1.0579,1.032,1.0618,1.0719,1.0751,1.0688,1.0681,1.0681,1.0681,1.0231,1.004,1.0523,1.0295,1.0231,0.0,1.076,1.092,1.1188,1.1334,1.1467,1.1584,1.1591,1.1654,1.1778,1.1996,1.2151,1.2305,1.2498,1.259,1.259,1.259,1.259,1.259,1.259,1.259,1.259,1.259,1.259,1.259,1.259,1.259,1.259,1.259,1.259,1.259,1.259,1.259,1.259,1.259,1.2744,1.2889,1.2521,1.2552,1.2758,1.155,1.1469,1.1475,1.1475,1.1937,1.2492,1.3133,1.3413,1.3693,1.4048,1.4088,1.4088,1.4088,1.4088,1.4088,1.4088,1.4088,1.4088,1.4088,1.3808,1.3613,1.3626,1.3093,1.2683,1.2371,1.2051,1.1651,1.1056,1.1015,1.0888,0.0,0.0,0.0,0.0,1.1149,1.1375,1.1463,1.2254,1.2475,1.2378,1.2753,1.3046,1.3229,1.3419,1.2978,1.2247,1.213,1.2059,1.2059,1.2059,1.2045,1.1989,1.1687,1.1542,1.1458,1.1227,1.123,1.1272,1.1153,1.1216,1.1272,1.1153,1.1122,1.1059,1.087,1.0965,1.1059,1.0839,1.0807,1.0807,1.0807,1.0713,1.0624,1.0624,1.0593,1.0593,1.0593,1.0699,1.0888,1.109,1.1092,1.1232,1.1562,1.1591,1.1654,1.1771,1.1965,1.2158,1.2274,1.2467,1.259,1.259,1.259,1.259,1.259,1.259,1.259,1.259,1.259,1.259,1.259,1.2621,1.2621,1.259,1.2621,1.2621,1.259,1.259,1.259,1.259,1.259,1.2981,1.342,1.2889,1.3072,1.3631,1.2462,1.2592,1.2752,1.2752,1.2325,1.2331,1.3333,1.3373,1.3507,1.4021,1.4088,1.4088,1.4088,1.4088,1.4088,1.4088,1.4088,1.4088,1.4088,1.3808,1.37,1.3968,1.3407,1.316,1.3253,1.2572,1.2118,1.1971,1.1316,1.0955,1.0875,0.0,0.0,0.0,1.0942,1.1223,1.145,1.2036,1.2545,1.2973,1.3083,1.3163,1.3229,1.3419,1.3259,1.2955,1.3057,1.3028,1.292,1.3064,1.2941,1.2731,1.2644,1.2195,1.1736,1.1747,1.1553,1.1334,1.1435,1.1498,1.1466,1.1279,1.1247,1.1209,1.1059,1.1059,1.109,1.1028,1.1028,1.1028,1.1028,1.087,1.0744,1.0744,1.0688,1.0593,1.0593,1.0647,1.0769,1.1062,1.1092,1.1232,1.1562,1.1591,1.1622,1.1654,1.1778,1.1965,1.2151,1.2274,1.2467,1.259,1.259,1.259,1.259,1.259,1.259,1.259,1.259,1.259,1.2621,1.3064,1.3033,1.2621,1.3064,1.3003,1.259,1.259,1.259,1.259,1.259,1.2981,1.3541,1.3872,1.4112,1.4261,1.3012,1.3093,1.3253,1.3333,1.2979,1.2872,1.35,1.3614,1.3714,1.4041,1.4088,1.4088,1.4088,1.4088,1.4088,1.4088,1.4088,1.4088,1.4088,1.3928,1.3915,1.4082,1.3768,1.3614,1.36,1.2987,1.2565,1.2305,1.155,1.1116,1.0982,0.0,0.0,1.0613,1.0995,1.1276,1.145,1.209,1.2703,1.32,1.32,1.3236,0.0,1.3455,1.3419,1.3346,1.3455,1.3419,1.3346,1.3455,1.3375,1.3192,1.3053,1.2691,1.2304,1.2225,1.2018,1.1848,1.1945,1.1875,1.1733,1.1638,1.1536,1.1404,1.1216,1.1247,1.1279,1.1216,1.1185,1.1185,1.1185,1.0965,1.0776,1.0713,1.0713,1.0688,1.0688,1.0757,1.0925,1.1163,1.1183,1.1294,1.1577,1.1459,1.1437,1.1584,1.1583,1.1744,1.2081,1.2212,1.2398,1.259,1.259,1.259,1.259,1.259,1.259,1.259,1.259,1.259,1.2621,1.3208,1.3299,1.3003,1.3359,1.3307,1.2972,1.2713,1.259,1.2652,1.3224,1.364,1.4043,1.4971,1.5157,1.4942,1.3313,1.3333,1.3447,1.362,1.3686,1.3713,1.3713,1.3981,1.4162,1.4195,1.4202,1.4202,1.4202,1.4202,1.4188,1.4148,1.4142,1.4128,1.4088,1.4088,1.4088,1.4088,1.4088,1.3968,1.3666,1.3373,1.2973,1.2365,1.177,1.1316,0.0,0.0,1.0593,1.062,1.1129,1.141,1.1592,1.2324,1.2863,1.3236,1.3236,1.3346,1.3492,1.3492,1.3492,1.3492,1.3492,1.3492,1.3492,1.3492,1.3492,1.3448,1.3162,1.3038,1.295,1.2631,1.2521,1.2485,1.2485,1.228,1.2054,1.201,1.1823,1.1611,1.138,1.1466,1.156,1.1365,1.1341,1.1341,1.1341,1.1048,1.0746,1.0627,1.069,1.0777,1.0777,1.0968,1.1185,1.1279,1.1334,0.0,1.1591,1.1335,1.1291,1.1569,1.1449,1.1563,1.2081,1.2212,1.2367,1.259,1.259,1.259,1.259,1.259,1.259,1.259,1.259,1.259,1.2621,1.3307,1.3571,1.3511,1.3692,1.3713,1.3571,1.2981,1.2713,1.2828,1.4022,1.4558,1.4765,1.5865,1.5951,1.5623,1.354,1.3919,1.4229,1.4041,1.4208,1.4326,1.4326,1.4409,1.4536,1.4821,1.4854,1.4854,1.4854,1.4854,1.471,1.4469,1.4442,1.4342,1.4102,1.4088,1.4088,1.4088,1.4088,1.4062,1.4008,1.3721,1.3273,1.2703,1.2114,1.1516,1.0982,0.0,1.0593,1.0606,1.0915,1.1546,1.2318,1.271,1.3083,1.3455,1.3455,1.3455,1.3492,1.3492,1.3492,1.3492,1.3492,1.3492,1.3492,1.3492,1.3492,1.3484,1.3426,1.3221,1.2994,1.2943,1.2731,1.2485,1.2485,1.2448,1.2339,1.2069,1.1959,1.185,1.1619,1.156,1.1591,1.156,1.156,1.156,1.156,1.1157,1.0765,1.0613,1.062,1.0644,1.0644,1.0984,1.1272,1.1303,1.1466,1.156,1.1591,1.154,1.1533,1.1591,1.1571,1.1719,1.2089,1.212,1.2282,1.259,1.259,1.259,1.259,1.259,1.259,1.259,1.259,1.259,1.2652,1.3791,1.4022,1.3571,1.4608,1.4785,1.4261,1.3601,1.3329,1.342,1.4201,1.4795,1.5264,1.5507,1.5865,1.623,1.4329,1.4429,1.4522,1.4543,1.4656,1.4803,1.495,1.5104,1.5144,1.5028,1.5008,1.5008,1.5008,1.5008,1.4948,1.4763,1.4609,1.4462,1.4322,1.4168,1.4088,1.4088,1.4088,1.4088,1.4088,1.3753,1.3427,1.3025,1.2275,1.1643,1.1209,1.0801,1.0593,1.062,1.1316,1.197,1.2589,1.3086,1.335,1.3346,1.3455,1.3492,1.3492,1.3492,1.3492,1.3492,1.3492,1.3492,1.3492,1.3492,1.3492,1.3492,1.3492,1.3389,1.3258,1.3258,1.3148,1.3023,1.3023,1.2899,1.2694,1.2332,1.2127,1.1923,1.1665,1.1591,1.1591,1.1591,1.1591,1.156,1.1466,1.1243,1.0963,1.0655,1.065,1.071,1.071,1.099,1.1247,1.1445,1.1529,1.1591,1.1591,1.1591,1.1591,1.1591,1.1491,1.1622,1.2081,1.2158,1.2344,1.259,1.259,1.259,1.259,1.259,1.259,1.259,1.259,1.2775,1.3094,1.4052,1.449,1.4519,1.5147,1.5235,1.4913,1.4282,1.4022,1.4082,1.4736,1.5147,1.5439,1.5797,1.6105,1.6413,1.5022,1.4874,1.4851,1.5019,1.5145,1.5312,1.5495,1.5779,1.5759,1.5256,1.515,1.5189,1.5241,1.5196,1.5169,1.5154,1.4888,1.4683,1.4623,1.4342,1.4182,1.4182,1.4122,1.4088,1.4088,1.3854,1.3527,1.3213,1.2476,1.1906,1.151,1.0989,1.084,1.0966,1.1908,1.2494,1.2871,1.3523,1.3667,1.3467,1.355,1.3601,1.3594,1.3521,1.3492,1.3492,1.3492,1.3492,1.3492,1.3492,1.3492,1.3492,1.3492,1.3492,1.3492,1.3492,1.3492,1.3492,1.3492,1.3309,1.3031,1.2674,1.2346,1.2018,1.1736,1.1643,1.1591,1.1591,1.1591,1.156,1.1404,1.1257,1.1045,1.0739,1.0693,1.0702,1.0839,1.101,1.1224,1.1555,1.1591,1.1591,1.1591,1.1591,1.1591,1.1591,1.1471,1.1556,1.1936,1.2174,1.2366,1.2479,1.257,1.2694,1.2797,1.2846,1.2846,1.2797,1.2797,1.3042,1.3511,1.4201,1.4824,1.541,1.5555,1.5526,1.5381,1.503,1.4824,1.4765,1.5381,1.5623,1.5681,1.6202,1.6413,1.6413,1.5062,1.5391,1.5609,1.5342,1.5663,1.5993,1.6028,1.6292,1.6332,1.5799,1.5752,1.5799,1.6041,1.5846,1.5738,1.5713,1.5469,1.5204,1.4988,1.4643,1.4482,1.4482,1.4229,1.4088,1.4088,1.4062,1.3774,1.3213,1.2884,1.2415,1.1859,1.1496,1.1593,1.208,1.248,1.2996,1.3613,1.4004,1.4243,1.4348,1.4055,1.3938,1.3901,1.3609,1.3492,1.3492,1.3492,1.3492,1.3492,1.3492,1.3492,1.3492,1.3492,1.3492,1.3492,1.3492,1.3492,1.3492,1.3492,1.3477,1.3367,1.3045,1.2716,1.2361,1.2032,1.1765,1.1591,1.1591,1.1591,1.1591,1.1591,1.1077,1.0734,1.1004,1.0551,1.0369,1.0989,1.11,1.1224,1.1555,1.1591,1.1591,1.1591,1.1591,1.1591,1.1591,1.1686,1.1699,1.157,1.2035,1.2226,1.2053,1.253,1.2983,1.342,1.3608,1.3608,1.342,1.342,1.345,1.3511,1.4201,1.4824,1.5439,1.6048,1.5951,1.5439,1.599,1.5865,1.5381,1.6048,1.6316,1.6316,1.6374,1.6413,1.6413,1.5697,1.5775,1.584,1.6065,1.6116,1.6183,1.6371,1.6504,1.6534,1.6298,1.6298,1.6305,1.6447,1.6353,1.6304,1.628,1.5876,1.5587,1.5465,1.4872,1.4522,1.4522,1.4242,1.4088,1.4088,1.4088,1.3888,1.3427,1.3173,1.2844,1.2429,1.2243,1.2444,1.2931,1.3402,1.376,1.4019,1.4453,1.4561,1.4496,1.4364,1.4313,1.4298,1.4166,1.4115,1.4115,1.4115,1.4115,1.4115,1.4115,1.3821,1.3492,1.3492,1.3492,1.3492,1.3492,1.3492,1.3492,1.3492,1.3492,1.3418,1.3089,1.2767,1.2404,1.2076,1.1787,1.1591,1.1591,1.1591,1.1591,1.1591,1.1379,1.118,1.1114,1.0726,1.055,1.1041,1.0931,1.1004,1.1533,1.1591,1.1518,1.132,1.1481,1.1511,1.132,1.1597,1.1811,1.1859,1.1942,1.2115,1.2345,1.2439,1.2808,1.3502,1.3689,1.3892,1.4112,1.3683,1.3713,1.4112,1.438,1.504,1.6019,1.6288,1.6259,1.6019,1.6288,1.623,1.6019,1.6288,1.6413,1.6413,1.6413,1.6413,1.6413,1.617,1.61,1.6158,1.6648,1.6593,1.6515,1.6788,1.6817,1.6817,1.6817,1.6817,1.677,1.673,1.6636,1.6636,1.673,1.6306,1.6042,1.6042,1.5334,1.4825,1.4737,1.4498,1.4302,1.4208,1.4208,1.4058,1.385,1.348,1.3227,1.3045,1.2972,1.3227,1.3765,1.4141,1.4417,1.4558,1.4911,1.4955,1.4743,1.4648,1.4611,1.4596,1.454,1.4511,1.4511,1.4511,1.4511,1.4511,1.4511,1.4203,1.3762,1.3667,1.3572,1.3492,1.3492,1.3492,1.3492,1.3492,1.3492,1.344,1.3206,1.2833,1.2426,1.2193,1.186,1.1591,1.1591,1.1591,1.1591,1.1591,1.1518,1.1408,1.1269,1.0894,1.0762,1.1188,1.0968,1.0968,1.1525,1.1591,1.1503,1.1269,1.149,1.1558,1.1322,1.1675,1.1888,1.1913,1.2035,1.2231,1.2511,1.2571,1.3017,1.3835,1.4053,1.4346,1.4765,1.4103,1.4142,1.4765,1.4971,1.5546,1.6413,1.6413,1.6413,1.6413,1.6413,1.6413,1.6413,1.6413,1.6413,1.6413,1.6413,1.6413,1.6413,1.617,1.64,1.6683,1.6932,1.7145,1.7279,1.7279,1.7279,1.7279,1.7279,1.7279,1.7239,1.7026,1.6784,1.673,1.6979,1.673,1.6581,1.6581,1.607,1.5629,1.5301,1.5021,1.4726,1.4405,1.4398,1.4391,1.4391,1.3857,1.3593,1.3586,1.3513,1.3891,1.4603,1.4603,1.4904,1.5374,1.5382,1.5382,1.5345,1.5024,1.49,1.4863,1.4589,1.4511,1.4511,1.4511,1.4511,1.4511,1.4511,1.4504,1.4438,1.4115,1.3755,1.3492,1.3492,1.3492,1.3492,1.3492,1.3492,1.3492,1.3492,1.3001,1.2485,1.2485,1.2021,1.1591,1.1591,1.1591,1.1591,1.1591,1.1327,1.1217,1.1533,1.1041,1.0843,1.1496,1.1305,1.1224,1.1555,1.1591,1.1591,1.1591,1.1709,1.1802,1.1802,1.1996,1.1905,1.1532,1.2334,1.2631,1.2314,1.3006,0.0,1.4672,1.4868,1.5127,1.5381,1.4765,1.4795,1.541,1.6077,1.6384,1.6413,1.6413,1.6413,1.6413,1.6413,1.6413,1.6413,1.6413,1.6413,1.6413,1.6413,1.6413,1.6413,1.6697,1.6784,1.6925,1.7153,1.7239,1.7279,1.7279,1.7279,1.7279,1.7279,1.7279,1.7286,1.7192,1.7145,1.7099,1.72,1.7019,1.6878,1.6878,1.6348,1.5993,1.5934,1.5596,1.529,1.4927,1.4963,1.4816,1.4608,1.4434,1.4435,1.4608,1.4585,1.4798,1.5146,1.5146,1.5245,1.5389,1.5389,1.5389,1.5382,1.5272,1.5236,1.5221,1.516,1.5123,1.5123,1.5123,1.5123,1.5123,1.5123,1.4977,1.4732,1.463,1.4267,1.3828,1.3828,1.3667,1.3492,1.3492,1.3492,1.3492,1.3492,1.3001,1.2485,1.2485,1.2021,1.1591,1.1591,1.1591,1.1591,1.1591,1.1503,1.1474,1.1577,1.1232,1.11,1.1533,1.1313,1.1144,1.1246,1.1459,1.1415,1.0968,1.1449,1.1712,1.148,1.1928,1.2088,1.171,1.1747,1.1935,0.0,1.2714,0.0,1.47,1.5226,1.5691,1.6077,1.542,1.5206,1.541,1.5623,1.5961,1.6413,1.6413,1.6413,1.6413,1.6413,1.6413,1.6413,1.6413,1.6413,1.6413,1.6413,1.6413,1.6413,1.6932,1.6979,1.7066,1.7286,1.7279,1.7279,1.7279,1.7279,1.7279,1.7279,1.7279,1.7279,1.7279,1.7279,1.7279,1.7279,1.72,1.7106,1.7106,1.6686,1.6391,1.6324,1.6126,1.5833,1.5516,1.5509,1.5353,1.5043,1.4797,1.4824,1.509,1.509,1.5215,1.5389,1.5389,1.5389,1.5389,1.5389,1.5389,1.5389,1.5389,1.5389,1.5389,1.5389,1.5389,1.5389,1.5389,1.5389,1.5389,1.5389,1.525,1.5082,1.5082,1.4725,1.4318,1.424,1.3931,1.3675,1.3675,1.3587,1.3492,1.3492,1.3097,1.2602,1.2361,1.1933,1.1591,1.1591,1.1591,1.1591,1.1591,1.1591,1.1591,1.1591,1.1423,1.1364,1.1562,1.1415,1.1239,1.1122,1.1283,1.1277,1.0894,1.1376,1.1707,1.1684,1.2119,1.2249,1.1895,1.211,1.2434,1.2839,1.3316,1.4043,1.5071,1.5478,1.5946,1.6374,1.598,1.5652,1.541,1.5652,1.599,1.6413,1.6413,1.6413,1.6413,1.6413,1.6413,1.6413,1.6413,1.6413,1.6413,1.6413,1.6413,1.6413,1.6979,1.7026,1.7066,1.7286,1.7279,1.7279,1.7279,1.7279,1.7279,1.7279,1.7279,1.7279,1.7279,1.7279,1.7279,1.7279,1.7279,1.7279,1.7279,1.7113,1.689,1.655,1.6581,1.6385,1.607,1.6063,1.5913,1.5641,1.5057,1.4902,1.5167,1.5138,1.5215,1.5389,1.5389,1.5389,1.5389,1.5389,1.5389,1.5389,1.5389,1.5389,1.5389,1.5389,1.5389,1.5389,1.5389,1.5389,1.5389,1.5389,1.5389,1.5389,1.5389,1.5185,1.4878,1.4596,1.4291,1.3982,1.3982,1.374,1.3492,1.3492,1.325,1.284,1.2178,1.1823,1.1628,1.1628,1.1606,1.1591,1.1591,1.1591,1.1591,1.1591,1.1591,1.1591,1.1591,1.1591,1.1474,1.1144,1.1129,1.1189,1.1279,1.151,1.1842,1.2282,1.2498,1.2447,1.2075,1.3183,1.3816,1.3761,1.4528,1.5166,1.568,1.5722,1.5977,1.6413,1.6413,1.6077,1.5497,1.6105,1.6413,1.6413,1.6413,1.6413,1.6413,1.6413,1.6413,1.6413,1.6413,1.6413,1.6413,1.6413,1.6413,1.6413,1.7239,1.7239,1.7239,1.7286,1.7279,1.7279,1.7279,1.7279,1.7279,1.7279,1.7279,1.7279,1.7279,1.7279,1.7279,1.7279,1.7279,1.7279,1.7279,1.7239,1.7203,1.713,1.7123,1.6977,1.6702,1.6695,1.6542,1.6213,1.5813,1.5668,1.5711,1.5456,1.5347,1.5389,1.5389,1.5389,1.5389,1.5389,1.5389,1.5389,1.5389,1.5389,1.5389,1.5389,1.5389,1.5389,1.5389,1.5389,1.5389,1.5389,1.5389,1.5389,1.5389,1.5338,1.5206,1.4885,1.4428,1.3982,1.3982,1.374,1.3492,1.3492,1.325,1.2899,1.2463,1.212,1.1926,1.1926,1.1728,1.1591,1.1591,1.1591,1.1591,1.1591,1.1591,1.1591,1.1591,1.1591,1.1474,1.1144,1.1419,1.1555,1.1331,1.1813,1.2189,1.2297,1.2498,1.2558,1.2471,1.3651,1.4038,1.3442,1.3904,1.4658,1.5691,1.607,1.6299,1.6413,1.6413,1.6316,1.6173,1.6316,1.6413,1.6413,1.6413,1.6413,1.6413,1.6413,1.6413,1.6413,1.6413,1.6413,1.6413,1.6413,1.6413,1.6413,1.7279,1.7279,1.7279,1.7279,1.7279,1.7279,1.7279,1.7279,1.7279,1.7279,1.7279,1.7279,1.7279,1.7279,1.7279,1.7279,1.7279,1.7279,1.7279,1.7279,1.7279,1.7279,1.7279,1.7252,1.7077,1.7069,1.6908,1.6639,1.6279,1.6118,1.6118,1.5796,1.5608,1.56,1.5455,1.5389,1.5389,1.5389,1.5389,1.5389,1.5389,1.5389,1.5389,1.5389,1.5389,1.5389,1.5389,1.5389,1.5389,1.5389,1.5389,1.5389,1.5389,1.5389,1.5352,1.5177,1.4769,1.4392,1.4245,1.3967,1.3682,1.3536,1.325,1.2965,1.2782,1.2456,1.2178,1.2032,1.1897,1.1736,1.1621,1.1591,1.1685,1.1981,1.2004,1.2135,1.2413,1.2474,1.237,1.2094,1.2273,1.2441,1.2393,1.2734,1.3045,1.3282,1.342,1.3338,1.3033,1.3962,1.4297,1.3856,1.462,1.5352,1.6001,1.6278,1.6413,1.6413,1.6413,1.6413,1.6413,1.6413,1.6413,1.6413,1.6413,1.6413,1.6413,1.6413,1.6413,1.6413,1.6413,1.6413,1.6413,1.6413,1.6413,1.6413,1.7279,1.7279,1.7279,1.7279,1.7279,1.7279,1.7279,1.7279,1.7279,1.7279,1.7279,1.7279,1.7279,1.7279,1.7279,1.7279,1.7279,1.7279,1.7279,1.7279,1.7279,1.7279,1.7279,1.7279,1.7279,1.7279,1.7201,1.6969,1.6646,1.6485,1.6477,1.6126,1.5987,1.5972,1.5694,1.5528,1.5528,1.5528,1.5528,1.5528,1.5528,1.5528,1.5528,1.5528,1.5498,1.5462,1.5462,1.5425,1.5389,1.5389,1.5389,1.5389,1.5389,1.5389,1.5389,1.5389,1.5192,1.4907,1.4626,1.4306,1.3901,1.3579,1.3287,1.3082,1.3082,1.2833,1.2485,1.2207,1.2113,1.2028,1.1789,1.1694,1.1892,1.2578,1.2583,1.275,1.3488,1.3567,1.3463,1.3293,1.3336,1.346,1.3756,1.3785,1.3997,1.4471,1.4499,1.4261,1.3692,1.4291,1.4647,1.4647,1.5691,1.6288,1.6413,1.6413,1.6413,1.6413,1.6413,1.6413,1.6413,1.6413,1.6402,1.6431,1.6402,1.6402,1.6431,1.6402,1.6402,1.6431,1.6431,1.6431,1.6431,1.6431,1.6431,1.6413,1.7279,1.7279,1.7279,1.7279,1.7279,1.7279,1.7279,1.7279,1.7279,1.7279,1.7279,1.7279,1.7279,1.7279,1.7279,1.7279,1.7279,1.7279,1.7279,1.7279,1.7279,1.7279,1.7279,1.7279,1.7279,1.7279,1.7257,1.7252,1.6983,1.6822,1.6822,1.6492,1.6345,1.6338,1.6287,1.6221,1.6221,1.6221,1.6221,1.6221,1.6221,1.6221,1.6221,1.6221,1.6067,1.584,1.584,1.5622,1.5389,1.5389,1.5389,1.5389,1.5389,1.5389,1.5389,1.5389,1.5352,1.5243,1.4915,1.4435,1.3901,1.3579,1.3455,1.3418,1.3418,1.317,1.2921,1.287,1.2602,1.2397,1.238,1.2145,1.2278,1.3345,1.2941,1.2862,1.3859,0.0,1.3661,1.363,1.3868,1.4055,1.4114,1.428,1.4405,1.449,1.4499,1.444,1.435,1.4942,1.5264,1.5264,1.5449,1.5836,1.6374,1.6413,1.6413,1.6413,1.6413,1.6413,1.6413,1.6413,1.6459,1.6552,1.6459,1.6459,1.6552,1.6459,1.6477,1.6581,1.6581,1.6581,1.6581,1.6581,1.6506,1.6413,1.7279,1.7279,1.7279,1.7279,1.7279,1.7279,1.7279,1.7279,1.7279,1.7279,1.7279,1.7279,1.7279,1.7279,1.7279,1.7279,1.7279,1.7279,1.7279,1.7279,1.7279,1.7279,1.7279,1.7279,1.7279,1.7279,1.7279,1.7279,1.7179,1.7113,1.7106,1.6822,1.6675,1.6668,1.6492,1.6411,1.6411,1.6411,1.6411,1.6411,1.6411,1.6411,1.6411,1.6411,1.6279,1.6162,1.6162,1.606,1.5935,1.5935,1.5826,1.5652,1.5652,1.5528,1.5389,1.5389,1.5265,1.509,1.4944,1.4472,1.3945,1.3799,1.3623,1.3492,1.3492,1.3375,1.3221,1.3045,1.2884,1.2696,1.2521,1.2368,1.2709,1.3983,1.3684,1.3769,1.5099,1.4978,1.4835,1.4972,1.5128,1.5284,1.5381,1.5478,1.5507,1.5507,1.5507,1.5362,1.5001,1.5594,1.5768,1.541,1.5739,1.6077,1.6413,1.6413,1.6413,1.6413,1.6413,1.6413,1.6413,1.6477,1.6524,1.6599,1.6524,1.6524,1.6581,1.6459,1.6477,1.6599,1.6599,1.6637,1.6694,1.6637,1.6552,1.6506,1.7279,1.7279,1.7279,1.7279,1.7279,1.7279,1.7279,1.7279,1.7279,1.7279,1.7279,1.7279,1.7279,1.7279,1.7279,1.7279,1.7279,1.7279,1.7279,1.7279,1.7279,1.7279,1.7279,1.7279,1.7279,1.7279,1.7279,1.7279,1.7279,1.7279,1.7279,1.7077,1.7013,1.6998,1.6704,1.6594,1.6594,1.6594,1.6594,1.6594,1.6594,1.6594,1.6594,1.6594,1.6587,1.6529,1.6529,1.6477,1.6411,1.6411,1.6213,1.6023,1.6023,1.5796,1.5498,1.5498,1.5272,1.5002,1.4922,1.4542,1.4172,1.4056,1.3799,1.3587,1.3514,1.3637,1.3664,1.3446,1.3562,1.3619,1.3359,1.3244,1.3611,1.4972,0.0,1.476,1.6262,1.6039,1.5817,1.6085,1.6142,1.622,1.6374,1.6413,1.6413,1.6413,1.6413,1.6163,1.5652,1.6105,1.6163,1.5652,1.6134,1.6413,1.6413,1.6413,1.6413,1.6413,1.6413,1.6413,1.6413,1.6524,1.6637,1.6637,1.6637,1.6655,1.6684,1.6563,1.6563,1.6684,1.6684,1.6779,1.6846,1.6867,1.6824,1.6767,1.7279,1.7279,1.7279,1.7279,1.7279,1.7279,1.7279,1.7279,1.7279,1.7279,1.7279,1.7279,1.7279,1.7279,1.7279,1.7279,1.7279,1.7279,1.7279,1.7279,1.7279,1.7279,1.7279,1.7279,1.7279,1.7279,1.7279,1.7279,1.7279,1.7279,1.7279,1.7257,1.7296,1.7296,1.722,1.7206,1.7206,1.7206,1.7206,1.7206,1.7206,1.7206,1.7206,1.7206,1.7077,1.6866,1.6866,1.6668,1.6411,1.6411,1.6397,1.6382,1.6382,1.6126,1.5877,1.5877,1.565,1.5287,1.498,1.4863,1.4688,1.4128,1.3967,1.3865,1.3565,1.4013,1.453,1.4506,1.5157,1.5782,1.5747,1.5489,1.5639,1.675,0.0,0.0,1.6768,1.6327,1.5943,1.6085,1.6249,1.6374,1.6413,1.6413,1.6413,1.6413,1.6413,1.6374,1.6316,1.6374,1.6374,1.6316,1.6374,1.6413,1.6413,1.6413,1.6413,1.6413,1.6413,1.6413,1.6413,1.6524,1.6666,1.679,1.679,1.6864,1.6955,1.6835,1.6853,1.6983,1.6983,1.6983,1.7037,1.7528,1.7525,1.728,1.7279,1.7279,1.7279,1.7279,1.7279,1.7279,1.7279,1.7279,1.7279,1.7279,1.7279,1.7279,1.7279,1.7279,1.7279,1.7279,1.7279,1.7279,1.7279,1.7279,1.7279,1.7279,1.7279,1.7279,1.7279,1.7279,1.7279,1.7279,1.7279,1.7279,1.7279,1.7279,1.7279,1.7279,1.7279,1.7279,1.7279,1.7279,1.7279,1.7279,1.7279,1.7279,1.7279,1.7279,1.7252,1.715,1.715,1.7069,1.6967,1.6967,1.6835,1.6712,1.6712,1.6499,1.6162,1.5972,1.5644,1.5477,1.5904,1.5486,1.4842,1.464,1.4282,1.399,1.3821,1.4202,1.4601,1.4601,1.534,1.6,1.6,1.6,1.6292,1.7145,0.0,1.5993,1.716,1.6497,1.6,1.6249,1.6345,1.6413,1.6413,1.6413,1.6413,1.6413,1.6413,1.6413,1.6413,1.6413,1.6413,1.6413,1.6413,1.6413,1.6413,1.6413,1.6413,1.6413,1.6413,1.6413,1.6423,1.6932,1.7016,1.6828,1.7241,1.7245,1.7004,1.7162,1.7348,1.7536,1.7838,1.7965,1.8075,1.8192,1.8137,1.8046,1.7279,1.7279,1.7279,1.7279,1.7279,1.7279,1.7279,1.7279,1.7279,1.7279,1.7552,1.7652,1.7326,1.7606,1.7645,1.7326,1.7279,1.7279,1.7279,1.7279,1.7279,1.7279,1.7279,1.7279,1.7279,1.7279,1.7279,1.7279,1.7279,1.7279,1.7279,1.7279,1.7279,1.7279,1.7279,1.7279,1.7279,1.7279,1.7279,1.7279,1.7279,1.7279,1.7279,1.7279,1.7279,1.7279,1.7279,1.7279,1.7279,1.7279,1.7179,1.7049,1.7049,1.6756,1.6309,1.6009,1.5644,1.559,1.646,1.6085,1.5456,1.531,1.4801,1.4231,1.4033,1.4562,1.506,1.4982,1.5939,1.6784,1.6784,1.6957,1.7242,1.7755,1.7081,1.6789,1.7581,1.6941,1.6504,1.6779,1.6808,1.6808,1.6808,1.6674,1.6643,1.6798,1.6674,1.6591,1.6591,1.6456,1.6446,1.6581,1.6591,1.6591,1.6591,1.6446,1.6431,1.6459,1.6605,1.6667,1.6717,1.748,1.76,1.7265,1.783,1.7864,1.7543,1.7779,1.7949,1.8121,1.8427,1.8607,1.8709,1.875,1.8765,1.8734,1.7279,1.7279,1.7279,1.7279,1.7279,1.7279,1.7279,1.7279,1.7279,1.7326,1.8195,1.8427,1.7419,1.8195,1.838,1.7372,1.7279,1.7279,1.7279,1.7333,1.7333,1.7279,1.7279,1.7279,1.7279,1.7279,1.7279,1.7279,1.7279,1.7279,1.7279,1.7279,1.7279,1.7279,1.7279,1.7279,1.7279,1.7279,1.7279,1.7279,1.7279,1.7279,1.7279,1.7279,1.7279,1.7279,1.7279,1.7279,1.7279,1.7279,1.7333,1.7326,1.7326,1.6887,1.636,1.6009,1.5687,1.559,1.646,1.6698,1.6611,1.6301,1.5561,1.4779,1.4174,1.5149,1.6099,1.5787,1.7182,1.8482,1.8516,1.8684,1.8808,1.8808,1.8289,1.7963,1.8092,1.7747,1.7543,1.7668,1.7699,1.7699,1.7699,1.7285,1.7203,1.7668,1.7275,1.7017,1.7017,1.6632,1.6591,1.6977,1.7017,1.7017,1.7017,1.6612,1.6498,1.662,1.7082,1.7313,1.7324,1.8141,1.8405,1.8221,1.8566,1.8698,1.8687,1.8698,1.8698,1.8698,1.8698,1.8698,1.8763,1.9244,1.9304,1.9231,1.7279,1.7279,1.7279,1.7279,1.7279,1.7279,1.7279,1.7279,1.7552,1.8241,1.8611,1.8696,1.838,1.8603,1.838,1.7372,1.7279,1.7279,1.7279,1.7971,1.8064,1.7326,1.7279,1.7279,1.7279,1.7279,1.7279,1.7279,1.7279,1.7279,1.7279,1.7279,1.7279,1.7279,1.7279,1.7279,1.7279,1.7279,1.7279,1.7279,1.7279,1.7279,1.7279,1.7279,1.7279,1.7279,1.7279,1.7279,1.7279,1.7279,1.7785,1.8334,1.8334,1.807,1.7561,1.6543,1.6016,1.6047,1.7449,1.7253,1.683,1.7331,1.6637,1.596,1.6525,1.6004,1.5765,1.692,1.7483,1.791,1.8405,1.8774,1.9008,1.9008,1.8496,1.8177,1.8285,1.7841,1.7543,1.7668,1.7699,1.7699,1.7699,1.7575,1.7554,1.7688,1.7575,1.7492,1.7492,1.7368,1.7358,1.7492,1.7492,1.7492,1.7492,1.7509,1.7369,1.7103,1.7675,1.7927,1.7968,1.8674,1.8779,1.8446,1.8966,1.9004,1.872,1.9058,1.92,1.9233,1.954,1.9682,1.9693,1.9845,1.9868,1.9846,1.7279,1.7279,1.7279,1.7279,1.7279,1.7279,1.7279,1.7279,1.7645,1.865,1.9109,1.933,1.933,1.933,1.8964,1.7963,1.7512,1.7279,1.7279,1.7878,1.8102,1.7924,1.7878,1.7692,1.7333,1.7279,1.7279,1.7279,1.7279,1.7279,1.7279,1.7279,1.7279,1.7279,1.7279,1.7279,1.7279,1.7279,1.7279,1.7279,1.7279,1.7279,1.7279,1.7279,1.7279,1.7279,1.7279,1.7279,1.7372,1.7738,1.8557,1.933,1.933,1.913,1.8725,1.7763,1.7043,1.6914,1.8414,1.8149,1.7706,1.8847,1.8016,1.7058,1.7674,1.7066,1.6666,1.7719,1.795,1.807,1.8539,1.8875,1.9108,1.9108,1.8781,1.8573,1.8661,1.8359,1.8162,1.8225,1.8257,1.8257,1.8257,1.8102,1.7988,1.7988,1.7988,1.7988,1.7988,1.7792,1.7781,1.7988,1.7988,1.7988,1.7988,1.8333,1.8217,1.7666,1.8213,1.8508,1.8633,1.9252,1.9381,1.908,1.9488,1.9507,1.9288,1.9551,1.9682,1.9704,1.9998,2.0118,2.0118,2.0118,2.027,2.0453,1.7419,1.7372,1.7372,1.7512,1.7419,1.7326,1.7419,1.7372,1.7692,1.8788,1.965,2.0232,2.0322,2.0322,1.9968,1.9018,1.8017,1.7419,1.7333,1.7372,1.7785,1.8611,1.8834,1.8427,1.7326,1.7372,1.7372,1.7279,1.7279,1.7326,1.7419,1.7326,1.7326,1.7419,1.7326,1.7279,1.7279,1.7279,1.7279,1.7279,1.7279,1.7372,1.7419,1.7326,1.7372,1.7419,1.7326,1.7279,1.7466,1.8565,1.9559,2.0331,2.0367,2.0179,1.9869,1.9325,1.8541,1.8154,1.9314,1.9195,1.9076,2.0576,1.9608,1.8262,1.813,1.8149,1.8193,1.8278,1.8518,1.8707,1.8774,1.8975,1.9108,1.9108,1.9108,1.9108,1.9108,1.9108,1.9108,1.9108,1.9108,1.9108,1.9108,1.8714,1.8476,1.8476,1.8476,1.8476,1.8476,1.8071,1.803,1.8465,1.8476,1.8476,1.8476,1.9,1.8932,1.8265,1.8764,1.9105,1.9306,1.9857,2.0042,1.99,2.0042,2.0118,2.0118,2.0118,2.0118,2.0118,2.0118,2.0118,2.0118,2.0118,2.0485,2.0944,1.8334,1.7831,1.7785,1.933,1.8326,1.7559,1.8334,1.7831,1.7917,1.9687,2.0051,2.0503,2.1284,2.1373,2.0962,1.996,1.901,1.8149,1.7326,1.8064,1.8241,1.7652,1.9101,1.9101,1.7326,1.8056,1.8102,1.7279,1.7279,1.7692,1.8473,1.7645,1.7738,1.8427,1.7652,1.7279,1.7279,1.7279,1.7279,1.7279,1.7279,1.7785,1.838,1.7606,1.7785,1.838,1.7606,1.7279,1.7552,1.933,2.0557,2.1418,2.1543,2.1568,2.1269,2.0029,1.9509,1.9457,1.9925,1.9855,1.9904,2.1069,2.0915,2.0498,2.0478,1.8843,1.7805,1.9403,1.877,1.8114,1.8707,1.8975,1.9108,1.9108,1.9108,1.9108,1.9108,1.9108,1.9108,1.9108,1.9108,1.9108,1.9108,1.9015,1.8953,1.8953,1.8953,1.8953,1.8953,1.8859,1.8859,1.8953,1.8953,1.8953,1.8953,1.909,1.9014,1.8754,1.9383,1.9749,1.9901,2.0031,2.0074,2.0042,2.0085,2.0118,2.0118,2.0118,2.0118,2.0118,2.0118,2.0118,2.0118,2.0118,2.0172,2.0356,1.8603,1.838,1.8465,1.996,1.9376,1.8688,1.8788,1.8334,1.8557,2.0005,2.0187,2.0737,2.2192,2.1971,2.1284,2.0277,1.933,1.8557,1.8056,1.8064,1.8241,1.8696,1.9642,1.996,1.9422,1.9923,1.9239,1.7279,1.7785,1.8064,1.8056,1.8064,1.8288,1.8788,1.8241,1.8017,1.7963,1.7505,1.7279,1.7279,1.7279,1.7924,1.8696,1.7692,1.8195,1.9285,1.7831,1.7917,1.8918,2.0421,2.1641,2.2599,2.2677,2.2765,2.2674,2.1722,2.1053,2.0721,2.1065,2.0693,2.0382,2.1262,2.1436,2.1359,2.1359,1.9873,1.8864,2.0037,1.9257,1.8486,1.8865,1.9042,1.9108,1.9108,1.9108,1.9108,1.9108,1.9108,1.9108,1.9108,1.9108,1.9108,1.9108,1.9108,1.9108,1.9108,1.9108,1.9108,1.9108,1.9108,1.9108,1.9108,1.9108,1.9108,1.9108,1.9108,1.9149,1.9243,1.9586,1.9878,2.0118,2.0118,2.0118,2.0118,2.0118,2.0118,2.0118,2.0118,2.0118,2.0118,2.0118,2.0118,2.0118,2.0118,2.0302,2.0752,1.8834,1.9063,1.9376,2.0503,2.0413,2.0005,1.9376,1.9155,1.9376,2.0322,2.0458,2.1141,2.2916,2.2422,2.1552,2.0548,1.9741,1.9239,1.9063,1.8102,1.8326,2.0096,2.0187,2.0602,2.1418,2.1784,2.0602,1.7785,1.8473,1.8473,1.7824,1.8465,1.888,1.9063,1.9063,1.8972,1.875,1.7924,1.7466,1.7326,1.7512,1.8149,1.8972,1.8149,1.8964,2.0277,1.8511,1.9001,2.0638,2.1507,2.2555,2.3503,2.359,2.3711,2.376,2.3402,2.2675,2.202,2.2209,2.1577,2.0956,2.1446,2.154,2.154,2.154,2.0859,2.0293,2.0473,1.9882,1.9316,1.9233,1.9222,1.9191,1.9119,1.9108,1.9108,1.9108,1.9108,1.9108,1.9108,1.9108,1.9108,1.9108,1.9108,1.9108,1.9108,1.9108,1.9108,1.9108,1.9108,1.9108,1.9108,1.9108,1.9098,1.9131,1.9131,1.9308,1.9638,1.9638,1.9813,2.0118,2.0118,2.0118,2.0118,2.0118,2.0118,2.0118,2.0118,2.0118,2.0118,2.0118,2.0118,2.0118,2.0118,2.0506,2.1345,1.9824,2.0005,2.0593,2.2413,2.132,2.0458,2.1195,2.0557,2.0376,2.1373,2.1507,2.1917,2.296,2.3003,2.2545,2.1596,2.1373,2.0917,2.0051,1.9101,1.9063,2.0141,2.0187,2.0277,2.0421,2.205,2.1872,1.9824,1.9147,1.9147,1.9778,1.9109,1.9239,2.0005,2.0005,1.9559,1.8788,1.8657,1.811,1.7372,1.8241,1.9147,2.0005,2.0096,2.0818,2.1632,2.0548,2.0863,2.181,2.2173,2.2862,2.359,2.3991,2.398,2.3803,2.3792,2.3711,2.3423,2.2649,2.2331,2.2148,2.1834,2.1769,2.1769,2.1769,2.1217,2.0763,2.0947,2.0607,2.012,1.9772,1.9699,1.9564,1.917,1.9108,1.9108,1.9108,1.9108,1.9108,1.9108,1.9108,1.9108,1.9108,1.9108,1.9108,1.9108,1.9108,1.9108,1.9108,1.9108,1.9108,1.9108,1.9108,1.9175,1.9274,1.9274,1.9473,1.9868,1.9868,1.9933,2.0118,2.0118,2.0118,2.0118,2.0118,2.0118,2.0118,2.0118,2.0118,2.0118,2.0118,2.0118,2.0118,2.0118,2.0506,2.1219,1.9914,2.0187,2.0818,2.2775,2.2413,2.1784,2.1695,2.1329,2.1195,2.165,2.1695,2.2059,2.3003,2.3091,2.2916,2.2511,2.2015,2.1516,2.106,2.0104,2.0014,2.1006,2.1051,2.1284,2.1819,2.2643,2.2687,2.1819,2.0872,2.0331,2.0187,2.0331,2.0647,2.1051,2.1051,2.0827,2.0331,1.9247,1.8565,1.8195,1.8734,1.955,2.0458,2.0674,2.1712,2.2931,2.2536,2.2306,2.2306,2.2984,2.3484,2.3947,2.412,2.4196,2.4198,2.4217,2.4074,2.3795,2.3381,2.2894,2.2449,2.2242,2.1994,2.1807,2.1807,2.1566,2.1322,2.1139,2.0741,2.0369,2.0162,1.9969,1.973,1.9523,1.9274,1.9108,1.9108,1.9108,1.9108,1.9108,1.9108,1.9108,1.9108,1.9108,1.9108,1.9108,1.9108,1.9108,1.9108,1.9108,1.9108,1.9108,1.9108,1.9175,1.9318,1.9318,1.9517,1.99,1.99,1.9966,2.0118,2.0118,2.0118,2.0118,2.0118,2.0118,2.0118,2.0118,2.0118,2.0118,2.0118,2.0118,2.014,2.0506,2.1092,2.1741]}]]